<?xml version="1.0" encoding="UTF-8" standalone="no" ?>
<gpx xmlns="http://www.topografix.com/GPX/1/1" xmlns:xsi="http://www.w3.org/2001/XMLSchema-instance" xsi:schemaLocation="http://www.topografix.com/GPX/1/1 http://www.topografix.com/GPX/1/1/gpx.xsd" version="1.1" creator="VisuGPX - https://www.visugpx.com">
  <metadata>
    <name>Les Crêtes</name>
    <desc><![CDATA[Les plus hautes falaises littorales de France.
Difficulté moyenne.]]></desc>
  </metadata>
  <trk>
    <name><![CDATA[Les Crêtes_1]]></name>
    <trkseg>
      <trkpt lat="43.18361" lon="5.59926">
        <ele>44.7</ele>
        <time>2021-01-13T08:43:27Z</time>
      </trkpt>
      <trkpt lat="43.18365" lon="5.59929">
        <ele>44.4</ele>
        <time>2021-01-13T08:44:35Z</time>
      </trkpt>
      <trkpt lat="43.1837" lon="5.59932">
        <ele>44</ele>
        <time>2021-01-13T08:44:57Z</time>
      </trkpt>
      <trkpt lat="43.18374" lon="5.59937">
        <ele>43.6</ele>
        <time>2021-01-13T08:45:03Z</time>
      </trkpt>
      <trkpt lat="43.18377" lon="5.59942">
        <ele>43.2</ele>
        <time>2021-01-13T08:45:07Z</time>
      </trkpt>
      <trkpt lat="43.18381" lon="5.59947">
        <ele>42.6</ele>
        <time>2021-01-13T08:45:13Z</time>
      </trkpt>
      <trkpt lat="43.18386" lon="5.59949">
        <ele>42.3</ele>
        <time>2021-01-13T08:45:19Z</time>
      </trkpt>
      <trkpt lat="43.18391" lon="5.59948">
        <ele>42.2</ele>
        <time>2021-01-13T08:45:23Z</time>
      </trkpt>
      <trkpt lat="43.18395" lon="5.59944">
        <ele>42.4</ele>
        <time>2021-01-13T08:45:27Z</time>
      </trkpt>
      <trkpt lat="43.18399" lon="5.5994">
        <ele>42.6</ele>
        <time>2021-01-13T08:45:31Z</time>
      </trkpt>
      <trkpt lat="43.18403" lon="5.59934">
        <ele>43</ele>
        <time>2021-01-13T08:45:35Z</time>
      </trkpt>
      <trkpt lat="43.18404" lon="5.59924">
        <ele>43.7</ele>
        <time>2021-01-13T08:45:41Z</time>
      </trkpt>
      <trkpt lat="43.18403" lon="5.59917">
        <ele>44.3</ele>
        <time>2021-01-13T08:45:45Z</time>
      </trkpt>
      <trkpt lat="43.184" lon="5.59911">
        <ele>44.7</ele>
        <time>2021-01-13T08:45:51Z</time>
      </trkpt>
      <trkpt lat="43.18395" lon="5.59906">
        <ele>45.1</ele>
        <time>2021-01-13T08:45:57Z</time>
      </trkpt>
      <trkpt lat="43.18392" lon="5.59902">
        <ele>45.5</ele>
        <time>2021-01-13T08:46:03Z</time>
      </trkpt>
      <trkpt lat="43.18388" lon="5.59899">
        <ele>45.8</ele>
        <time>2021-01-13T08:46:07Z</time>
      </trkpt>
      <trkpt lat="43.18382" lon="5.59895">
        <ele>46.2</ele>
        <time>2021-01-13T08:46:13Z</time>
      </trkpt>
      <trkpt lat="43.18378" lon="5.59893">
        <ele>46.5</ele>
        <time>2021-01-13T08:46:17Z</time>
      </trkpt>
      <trkpt lat="43.18372" lon="5.59889">
        <ele>46.9</ele>
        <time>2021-01-13T08:46:23Z</time>
      </trkpt>
      <trkpt lat="43.18367" lon="5.59888">
        <ele>47.2</ele>
        <time>2021-01-13T08:46:27Z</time>
      </trkpt>
      <trkpt lat="43.18362" lon="5.59883">
        <ele>47.7</ele>
        <time>2021-01-13T08:46:33Z</time>
      </trkpt>
      <trkpt lat="43.18356" lon="5.59878">
        <ele>48.3</ele>
        <time>2021-01-13T08:46:39Z</time>
      </trkpt>
      <trkpt lat="43.18351" lon="5.59874">
        <ele>48.8</ele>
        <time>2021-01-13T08:46:45Z</time>
      </trkpt>
      <trkpt lat="43.18346" lon="5.5987">
        <ele>49.3</ele>
        <time>2021-01-13T08:46:51Z</time>
      </trkpt>
      <trkpt lat="43.1834" lon="5.59865">
        <ele>50</ele>
        <time>2021-01-13T08:46:57Z</time>
      </trkpt>
      <trkpt lat="43.18336" lon="5.59858">
        <ele>50.8</ele>
        <time>2021-01-13T08:47:03Z</time>
      </trkpt>
      <trkpt lat="43.18334" lon="5.59851">
        <ele>51.5</ele>
        <time>2021-01-13T08:47:09Z</time>
      </trkpt>
      <trkpt lat="43.18331" lon="5.59844">
        <ele>52</ele>
        <time>2021-01-13T08:47:15Z</time>
      </trkpt>
      <trkpt lat="43.18328" lon="5.59836">
        <ele>52.4</ele>
        <time>2021-01-13T08:47:21Z</time>
      </trkpt>
      <trkpt lat="43.18325" lon="5.5983">
        <ele>52.6</ele>
        <time>2021-01-13T08:47:27Z</time>
      </trkpt>
      <trkpt lat="43.18323" lon="5.59823">
        <ele>52.6</ele>
        <time>2021-01-13T08:47:33Z</time>
      </trkpt>
      <trkpt lat="43.1832" lon="5.59816">
        <ele>52.6</ele>
        <time>2021-01-13T08:47:39Z</time>
      </trkpt>
      <trkpt lat="43.18321" lon="5.59808">
        <ele>52.9</ele>
        <time>2021-01-13T08:47:45Z</time>
      </trkpt>
      <trkpt lat="43.1832" lon="5.598">
        <ele>53</ele>
        <time>2021-01-13T08:47:51Z</time>
      </trkpt>
      <trkpt lat="43.18317" lon="5.59795">
        <ele>53</ele>
        <time>2021-01-13T08:47:55Z</time>
      </trkpt>
      <trkpt lat="43.1831" lon="5.59794">
        <ele>52.5</ele>
        <time>2021-01-13T08:47:59Z</time>
      </trkpt>
      <trkpt lat="43.18303" lon="5.59794">
        <ele>52.1</ele>
        <time>2021-01-13T08:48:03Z</time>
      </trkpt>
      <trkpt lat="43.18296" lon="5.59791">
        <ele>51.7</ele>
        <time>2021-01-13T08:48:07Z</time>
      </trkpt>
      <trkpt lat="43.1829" lon="5.59789">
        <ele>51.5</ele>
        <time>2021-01-13T08:48:11Z</time>
      </trkpt>
      <trkpt lat="43.18286" lon="5.59786">
        <ele>51.3</ele>
        <time>2021-01-13T08:48:15Z</time>
      </trkpt>
      <trkpt lat="43.18282" lon="5.59783">
        <ele>51.2</ele>
        <time>2021-01-13T08:48:19Z</time>
      </trkpt>
      <trkpt lat="43.18276" lon="5.59784">
        <ele>50.7</ele>
        <time>2021-01-13T08:48:25Z</time>
      </trkpt>
      <trkpt lat="43.18271" lon="5.59786">
        <ele>50.4</ele>
        <time>2021-01-13T08:48:29Z</time>
      </trkpt>
      <trkpt lat="43.18266" lon="5.59788">
        <ele>50.1</ele>
        <time>2021-01-13T08:48:33Z</time>
      </trkpt>
      <trkpt lat="43.1826" lon="5.5979">
        <ele>49.6</ele>
        <time>2021-01-13T08:48:39Z</time>
      </trkpt>
      <trkpt lat="43.18254" lon="5.59791">
        <ele>49.2</ele>
        <time>2021-01-13T08:48:43Z</time>
      </trkpt>
      <trkpt lat="43.18249" lon="5.59793">
        <ele>48.9</ele>
        <time>2021-01-13T08:48:47Z</time>
      </trkpt>
      <trkpt lat="43.18243" lon="5.59794">
        <ele>48.6</ele>
        <time>2021-01-13T08:48:51Z</time>
      </trkpt>
      <trkpt lat="43.18238" lon="5.59794">
        <ele>48.3</ele>
        <time>2021-01-13T08:48:55Z</time>
      </trkpt>
      <trkpt lat="43.18231" lon="5.59794">
        <ele>48</ele>
        <time>2021-01-13T08:49:01Z</time>
      </trkpt>
      <trkpt lat="43.18227" lon="5.59794">
        <ele>47.7</ele>
        <time>2021-01-13T08:49:05Z</time>
      </trkpt>
      <trkpt lat="43.1822" lon="5.59794">
        <ele>47.3</ele>
        <time>2021-01-13T08:49:11Z</time>
      </trkpt>
      <trkpt lat="43.18215" lon="5.59794">
        <ele>47.1</ele>
        <time>2021-01-13T08:49:15Z</time>
      </trkpt>
      <trkpt lat="43.1821" lon="5.59795">
        <ele>46.8</ele>
        <time>2021-01-13T08:49:19Z</time>
      </trkpt>
      <trkpt lat="43.18205" lon="5.59795">
        <ele>46.6</ele>
        <time>2021-01-13T08:49:23Z</time>
      </trkpt>
      <trkpt lat="43.18201" lon="5.59795">
        <ele>46.3</ele>
        <time>2021-01-13T08:49:27Z</time>
      </trkpt>
      <trkpt lat="43.18195" lon="5.59794">
        <ele>46</ele>
        <time>2021-01-13T08:49:33Z</time>
      </trkpt>
      <trkpt lat="43.1819" lon="5.59791">
        <ele>45.7</ele>
        <time>2021-01-13T08:49:39Z</time>
      </trkpt>
      <trkpt lat="43.18183" lon="5.59789">
        <ele>45.4</ele>
        <time>2021-01-13T08:49:45Z</time>
      </trkpt>
      <trkpt lat="43.18178" lon="5.59788">
        <ele>45.1</ele>
        <time>2021-01-13T08:49:49Z</time>
      </trkpt>
      <trkpt lat="43.18174" lon="5.59786">
        <ele>44.8</ele>
        <time>2021-01-13T08:49:53Z</time>
      </trkpt>
      <trkpt lat="43.18169" lon="5.59785">
        <ele>44.5</ele>
        <time>2021-01-13T08:49:57Z</time>
      </trkpt>
      <trkpt lat="43.18163" lon="5.59783">
        <ele>44.3</ele>
        <time>2021-01-13T08:50:01Z</time>
      </trkpt>
      <trkpt lat="43.18159" lon="5.59781">
        <ele>44.1</ele>
        <time>2021-01-13T08:50:05Z</time>
      </trkpt>
      <trkpt lat="43.18156" lon="5.59774">
        <ele>44</ele>
        <time>2021-01-13T08:50:11Z</time>
      </trkpt>
      <trkpt lat="43.18155" lon="5.59766">
        <ele>43.9</ele>
        <time>2021-01-13T08:50:17Z</time>
      </trkpt>
      <trkpt lat="43.18154" lon="5.59757">
        <ele>43.9</ele>
        <time>2021-01-13T08:50:23Z</time>
      </trkpt>
      <trkpt lat="43.18154" lon="5.59749">
        <ele>43.9</ele>
        <time>2021-01-13T08:50:27Z</time>
      </trkpt>
      <trkpt lat="43.18154" lon="5.59743">
        <ele>44.2</ele>
        <time>2021-01-13T08:50:31Z</time>
      </trkpt>
      <trkpt lat="43.18153" lon="5.59736">
        <ele>44.5</ele>
        <time>2021-01-13T08:50:35Z</time>
      </trkpt>
      <trkpt lat="43.18152" lon="5.5973">
        <ele>44.8</ele>
        <time>2021-01-13T08:50:39Z</time>
      </trkpt>
      <trkpt lat="43.18151" lon="5.59723">
        <ele>45.2</ele>
        <time>2021-01-13T08:50:43Z</time>
      </trkpt>
      <trkpt lat="43.18149" lon="5.59717">
        <ele>45.5</ele>
        <time>2021-01-13T08:50:47Z</time>
      </trkpt>
      <trkpt lat="43.18147" lon="5.59711">
        <ele>45.8</ele>
        <time>2021-01-13T08:50:51Z</time>
      </trkpt>
      <trkpt lat="43.18144" lon="5.59705">
        <ele>46.1</ele>
        <time>2021-01-13T08:50:55Z</time>
      </trkpt>
      <trkpt lat="43.18142" lon="5.59699">
        <ele>46.4</ele>
        <time>2021-01-13T08:50:59Z</time>
      </trkpt>
      <trkpt lat="43.18141" lon="5.59692">
        <ele>46.7</ele>
        <time>2021-01-13T08:51:03Z</time>
      </trkpt>
      <trkpt lat="43.18139" lon="5.59685">
        <ele>47.1</ele>
        <time>2021-01-13T08:51:09Z</time>
      </trkpt>
      <trkpt lat="43.18139" lon="5.59676">
        <ele>47.5</ele>
        <time>2021-01-13T08:51:15Z</time>
      </trkpt>
      <trkpt lat="43.18142" lon="5.5967">
        <ele>47.8</ele>
        <time>2021-01-13T08:51:19Z</time>
      </trkpt>
      <trkpt lat="43.18143" lon="5.59664">
        <ele>48.2</ele>
        <time>2021-01-13T08:51:23Z</time>
      </trkpt>
      <trkpt lat="43.18145" lon="5.59658">
        <ele>48.5</ele>
        <time>2021-01-13T08:51:27Z</time>
      </trkpt>
      <trkpt lat="43.18146" lon="5.59651">
        <ele>48.9</ele>
        <time>2021-01-13T08:51:31Z</time>
      </trkpt>
      <trkpt lat="43.18147" lon="5.59644">
        <ele>49.3</ele>
        <time>2021-01-13T08:51:35Z</time>
      </trkpt>
      <trkpt lat="43.18148" lon="5.59636">
        <ele>49.7</ele>
        <time>2021-01-13T08:51:41Z</time>
      </trkpt>
      <trkpt lat="43.1815" lon="5.59629">
        <ele>50.1</ele>
        <time>2021-01-13T08:51:45Z</time>
      </trkpt>
      <trkpt lat="43.1815" lon="5.5962">
        <ele>50.6</ele>
        <time>2021-01-13T08:51:51Z</time>
      </trkpt>
      <trkpt lat="43.1815" lon="5.59614">
        <ele>50.9</ele>
        <time>2021-01-13T08:51:55Z</time>
      </trkpt>
      <trkpt lat="43.1815" lon="5.59607">
        <ele>51.3</ele>
        <time>2021-01-13T08:51:59Z</time>
      </trkpt>
      <trkpt lat="43.18149" lon="5.59601">
        <ele>51.7</ele>
        <time>2021-01-13T08:52:03Z</time>
      </trkpt>
      <trkpt lat="43.18147" lon="5.59592">
        <ele>52.2</ele>
        <time>2021-01-13T08:52:09Z</time>
      </trkpt>
      <trkpt lat="43.18146" lon="5.59582">
        <ele>52.8</ele>
        <time>2021-01-13T08:52:15Z</time>
      </trkpt>
      <trkpt lat="43.18146" lon="5.59576">
        <ele>53.1</ele>
        <time>2021-01-13T08:52:19Z</time>
      </trkpt>
      <trkpt lat="43.18145" lon="5.59567">
        <ele>53.5</ele>
        <time>2021-01-13T08:52:25Z</time>
      </trkpt>
      <trkpt lat="43.18147" lon="5.59561">
        <ele>53.7</ele>
        <time>2021-01-13T08:52:29Z</time>
      </trkpt>
      <trkpt lat="43.18148" lon="5.59554">
        <ele>54</ele>
        <time>2021-01-13T08:52:33Z</time>
      </trkpt>
      <trkpt lat="43.18148" lon="5.59548">
        <ele>54.3</ele>
        <time>2021-01-13T08:52:37Z</time>
      </trkpt>
      <trkpt lat="43.18148" lon="5.59541">
        <ele>54.6</ele>
        <time>2021-01-13T08:52:41Z</time>
      </trkpt>
      <trkpt lat="43.18148" lon="5.59534">
        <ele>54.9</ele>
        <time>2021-01-13T08:52:45Z</time>
      </trkpt>
      <trkpt lat="43.18149" lon="5.59527">
        <ele>55.2</ele>
        <time>2021-01-13T08:52:49Z</time>
      </trkpt>
      <trkpt lat="43.1815" lon="5.5952">
        <ele>55.5</ele>
        <time>2021-01-13T08:52:53Z</time>
      </trkpt>
      <trkpt lat="43.1815" lon="5.59511">
        <ele>55.9</ele>
        <time>2021-01-13T08:52:59Z</time>
      </trkpt>
      <trkpt lat="43.1815" lon="5.59504">
        <ele>56.2</ele>
        <time>2021-01-13T08:53:03Z</time>
      </trkpt>
      <trkpt lat="43.1815" lon="5.59497">
        <ele>56.6</ele>
        <time>2021-01-13T08:53:07Z</time>
      </trkpt>
      <trkpt lat="43.18151" lon="5.59491">
        <ele>57.1</ele>
        <time>2021-01-13T08:53:11Z</time>
      </trkpt>
      <trkpt lat="43.18151" lon="5.59484">
        <ele>57.6</ele>
        <time>2021-01-13T08:53:15Z</time>
      </trkpt>
      <trkpt lat="43.18151" lon="5.59478">
        <ele>58.1</ele>
        <time>2021-01-13T08:53:19Z</time>
      </trkpt>
      <trkpt lat="43.1815" lon="5.59472">
        <ele>58.6</ele>
        <time>2021-01-13T08:53:23Z</time>
      </trkpt>
      <trkpt lat="43.18149" lon="5.59465">
        <ele>59.1</ele>
        <time>2021-01-13T08:53:27Z</time>
      </trkpt>
      <trkpt lat="43.18149" lon="5.59456">
        <ele>59.8</ele>
        <time>2021-01-13T08:53:33Z</time>
      </trkpt>
      <trkpt lat="43.1815" lon="5.59449">
        <ele>60.3</ele>
        <time>2021-01-13T08:53:37Z</time>
      </trkpt>
      <trkpt lat="43.18148" lon="5.59442">
        <ele>60.8</ele>
        <time>2021-01-13T08:53:43Z</time>
      </trkpt>
      <trkpt lat="43.18147" lon="5.59435">
        <ele>61.4</ele>
        <time>2021-01-13T08:53:55Z</time>
      </trkpt>
      <trkpt lat="43.18148" lon="5.59426">
        <ele>62.1</ele>
        <time>2021-01-13T08:54:01Z</time>
      </trkpt>
      <trkpt lat="43.1815" lon="5.59419">
        <ele>62.6</ele>
        <time>2021-01-13T08:54:05Z</time>
      </trkpt>
      <trkpt lat="43.18151" lon="5.59412">
        <ele>63.1</ele>
        <time>2021-01-13T08:54:09Z</time>
      </trkpt>
      <trkpt lat="43.18151" lon="5.59404">
        <ele>63.6</ele>
        <time>2021-01-13T08:54:15Z</time>
      </trkpt>
      <trkpt lat="43.18151" lon="5.59395">
        <ele>64.2</ele>
        <time>2021-01-13T08:54:21Z</time>
      </trkpt>
      <trkpt lat="43.18152" lon="5.59387">
        <ele>64.8</ele>
        <time>2021-01-13T08:54:27Z</time>
      </trkpt>
      <trkpt lat="43.18153" lon="5.59381">
        <ele>65.1</ele>
        <time>2021-01-13T08:54:31Z</time>
      </trkpt>
      <trkpt lat="43.18154" lon="5.59372">
        <ele>65.7</ele>
        <time>2021-01-13T08:54:37Z</time>
      </trkpt>
      <trkpt lat="43.18155" lon="5.59364">
        <ele>66.2</ele>
        <time>2021-01-13T08:54:43Z</time>
      </trkpt>
      <trkpt lat="43.18155" lon="5.59354">
        <ele>66.8</ele>
        <time>2021-01-13T08:54:49Z</time>
      </trkpt>
      <trkpt lat="43.18156" lon="5.59346">
        <ele>67.3</ele>
        <time>2021-01-13T08:54:55Z</time>
      </trkpt>
      <trkpt lat="43.18159" lon="5.59338">
        <ele>67.8</ele>
        <time>2021-01-13T08:55:01Z</time>
      </trkpt>
      <trkpt lat="43.18162" lon="5.59331">
        <ele>68.3</ele>
        <time>2021-01-13T08:55:07Z</time>
      </trkpt>
      <trkpt lat="43.18166" lon="5.59324">
        <ele>68.8</ele>
        <time>2021-01-13T08:55:13Z</time>
      </trkpt>
      <trkpt lat="43.1817" lon="5.59316">
        <ele>69.4</ele>
        <time>2021-01-13T08:55:19Z</time>
      </trkpt>
      <trkpt lat="43.18174" lon="5.59311">
        <ele>69.8</ele>
        <time>2021-01-13T08:55:25Z</time>
      </trkpt>
      <trkpt lat="43.18179" lon="5.59306">
        <ele>70.1</ele>
        <time>2021-01-13T08:55:31Z</time>
      </trkpt>
      <trkpt lat="43.18183" lon="5.59302">
        <ele>70.3</ele>
        <time>2021-01-13T08:55:35Z</time>
      </trkpt>
      <trkpt lat="43.18188" lon="5.59297">
        <ele>70.6</ele>
        <time>2021-01-13T08:55:41Z</time>
      </trkpt>
      <trkpt lat="43.18191" lon="5.59292">
        <ele>70.9</ele>
        <time>2021-01-13T08:55:45Z</time>
      </trkpt>
      <trkpt lat="43.18195" lon="5.59288">
        <ele>71.1</ele>
        <time>2021-01-13T08:55:49Z</time>
      </trkpt>
      <trkpt lat="43.182" lon="5.59282">
        <ele>71.4</ele>
        <time>2021-01-13T08:55:55Z</time>
      </trkpt>
      <trkpt lat="43.18204" lon="5.59278">
        <ele>71.6</ele>
        <time>2021-01-13T08:55:59Z</time>
      </trkpt>
      <trkpt lat="43.18208" lon="5.59274">
        <ele>71.8</ele>
        <time>2021-01-13T08:56:03Z</time>
      </trkpt>
      <trkpt lat="43.18212" lon="5.5927">
        <ele>71.9</ele>
        <time>2021-01-13T08:56:07Z</time>
      </trkpt>
      <trkpt lat="43.18216" lon="5.59266">
        <ele>72.1</ele>
        <time>2021-01-13T08:56:11Z</time>
      </trkpt>
      <trkpt lat="43.18219" lon="5.59262">
        <ele>72.3</ele>
        <time>2021-01-13T08:56:15Z</time>
      </trkpt>
      <trkpt lat="43.18222" lon="5.59257">
        <ele>72.6</ele>
        <time>2021-01-13T08:56:19Z</time>
      </trkpt>
      <trkpt lat="43.18224" lon="5.59249">
        <ele>73</ele>
        <time>2021-01-13T08:56:23Z</time>
      </trkpt>
      <trkpt lat="43.18225" lon="5.59244">
        <ele>73.7</ele>
        <time>2021-01-13T08:56:27Z</time>
      </trkpt>
      <trkpt lat="43.18226" lon="5.59237">
        <ele>74.4</ele>
        <time>2021-01-13T08:56:31Z</time>
      </trkpt>
      <trkpt lat="43.18227" lon="5.59228">
        <ele>75.4</ele>
        <time>2021-01-13T08:56:37Z</time>
      </trkpt>
      <trkpt lat="43.18229" lon="5.5922">
        <ele>76.3</ele>
        <time>2021-01-13T08:56:43Z</time>
      </trkpt>
      <trkpt lat="43.18231" lon="5.59212">
        <ele>77.1</ele>
        <time>2021-01-13T08:56:49Z</time>
      </trkpt>
      <trkpt lat="43.18232" lon="5.59206">
        <ele>77.8</ele>
        <time>2021-01-13T08:56:55Z</time>
      </trkpt>
      <trkpt lat="43.18232" lon="5.59199">
        <ele>78.7</ele>
        <time>2021-01-13T08:57:01Z</time>
      </trkpt>
      <trkpt lat="43.18233" lon="5.5919">
        <ele>79.6</ele>
        <time>2021-01-13T08:57:07Z</time>
      </trkpt>
      <trkpt lat="43.18234" lon="5.59183">
        <ele>80.4</ele>
        <time>2021-01-13T08:57:13Z</time>
      </trkpt>
      <trkpt lat="43.18234" lon="5.59175">
        <ele>81.4</ele>
        <time>2021-01-13T08:57:19Z</time>
      </trkpt>
      <trkpt lat="43.18235" lon="5.59168">
        <ele>82.2</ele>
        <time>2021-01-13T08:57:25Z</time>
      </trkpt>
      <trkpt lat="43.18236" lon="5.59161">
        <ele>82.8</ele>
        <time>2021-01-13T08:57:31Z</time>
      </trkpt>
      <trkpt lat="43.18235" lon="5.59153">
        <ele>83.4</ele>
        <time>2021-01-13T08:57:37Z</time>
      </trkpt>
      <trkpt lat="43.18232" lon="5.59147">
        <ele>84</ele>
        <time>2021-01-13T08:57:43Z</time>
      </trkpt>
      <trkpt lat="43.18229" lon="5.59142">
        <ele>84.4</ele>
        <time>2021-01-13T08:57:49Z</time>
      </trkpt>
      <trkpt lat="43.18223" lon="5.5914">
        <ele>84.8</ele>
        <time>2021-01-13T08:57:55Z</time>
      </trkpt>
      <trkpt lat="43.18217" lon="5.59138">
        <ele>85.2</ele>
        <time>2021-01-13T08:58:01Z</time>
      </trkpt>
      <trkpt lat="43.18211" lon="5.59135">
        <ele>85.6</ele>
        <time>2021-01-13T08:58:07Z</time>
      </trkpt>
      <trkpt lat="43.18204" lon="5.59132">
        <ele>86</ele>
        <time>2021-01-13T08:58:13Z</time>
      </trkpt>
      <trkpt lat="43.18198" lon="5.5913">
        <ele>86.4</ele>
        <time>2021-01-13T08:58:19Z</time>
      </trkpt>
      <trkpt lat="43.18193" lon="5.59129">
        <ele>86.7</ele>
        <time>2021-01-13T08:58:23Z</time>
      </trkpt>
      <trkpt lat="43.18187" lon="5.59128">
        <ele>87</ele>
        <time>2021-01-13T08:58:29Z</time>
      </trkpt>
      <trkpt lat="43.18183" lon="5.59124">
        <ele>87.5</ele>
        <time>2021-01-13T08:58:35Z</time>
      </trkpt>
      <trkpt lat="43.18178" lon="5.5912">
        <ele>88</ele>
        <time>2021-01-13T08:58:41Z</time>
      </trkpt>
      <trkpt lat="43.18171" lon="5.5912">
        <ele>88.3</ele>
        <time>2021-01-13T08:58:47Z</time>
      </trkpt>
      <trkpt lat="43.18166" lon="5.59122">
        <ele>88.3</ele>
        <time>2021-01-13T08:58:51Z</time>
      </trkpt>
      <trkpt lat="43.18162" lon="5.59124">
        <ele>88.3</ele>
        <time>2021-01-13T08:58:55Z</time>
      </trkpt>
      <trkpt lat="43.18157" lon="5.59127">
        <ele>88.3</ele>
        <time>2021-01-13T08:58:59Z</time>
      </trkpt>
      <trkpt lat="43.18151" lon="5.59129">
        <ele>88.5</ele>
        <time>2021-01-13T08:59:05Z</time>
      </trkpt>
      <trkpt lat="43.18144" lon="5.59131">
        <ele>88.6</ele>
        <time>2021-01-13T08:59:11Z</time>
      </trkpt>
      <trkpt lat="43.18138" lon="5.59132">
        <ele>88.8</ele>
        <time>2021-01-13T08:59:17Z</time>
      </trkpt>
      <trkpt lat="43.18133" lon="5.59133">
        <ele>88.9</ele>
        <time>2021-01-13T08:59:21Z</time>
      </trkpt>
      <trkpt lat="43.18128" lon="5.59135">
        <ele>88.9</ele>
        <time>2021-01-13T08:59:25Z</time>
      </trkpt>
      <trkpt lat="43.18122" lon="5.59138">
        <ele>88.9</ele>
        <time>2021-01-13T08:59:29Z</time>
      </trkpt>
      <trkpt lat="43.18117" lon="5.5914">
        <ele>88.8</ele>
        <time>2021-01-13T08:59:33Z</time>
      </trkpt>
      <trkpt lat="43.18113" lon="5.59142">
        <ele>88.9</ele>
        <time>2021-01-13T08:59:37Z</time>
      </trkpt>
      <trkpt lat="43.18108" lon="5.59143">
        <ele>89</ele>
        <time>2021-01-13T08:59:43Z</time>
      </trkpt>
      <trkpt lat="43.18102" lon="5.59142">
        <ele>89.3</ele>
        <time>2021-01-13T08:59:51Z</time>
      </trkpt>
      <trkpt lat="43.18096" lon="5.59143">
        <ele>89.6</ele>
        <time>2021-01-13T08:59:57Z</time>
      </trkpt>
      <trkpt lat="43.18091" lon="5.59144">
        <ele>89.7</ele>
        <time>2021-01-13T09:00:01Z</time>
      </trkpt>
      <trkpt lat="43.18085" lon="5.59145">
        <ele>89.8</ele>
        <time>2021-01-13T09:00:05Z</time>
      </trkpt>
      <trkpt lat="43.18081" lon="5.59146">
        <ele>89.8</ele>
        <time>2021-01-13T09:00:09Z</time>
      </trkpt>
      <trkpt lat="43.18074" lon="5.59147">
        <ele>89.7</ele>
        <time>2021-01-13T09:00:15Z</time>
      </trkpt>
      <trkpt lat="43.18067" lon="5.59148">
        <ele>89.6</ele>
        <time>2021-01-13T09:00:21Z</time>
      </trkpt>
      <trkpt lat="43.18063" lon="5.59148">
        <ele>89.6</ele>
        <time>2021-01-13T09:00:25Z</time>
      </trkpt>
      <trkpt lat="43.18057" lon="5.59148">
        <ele>89.6</ele>
        <time>2021-01-13T09:00:29Z</time>
      </trkpt>
      <trkpt lat="43.18052" lon="5.59148">
        <ele>89.7</ele>
        <time>2021-01-13T09:00:33Z</time>
      </trkpt>
      <trkpt lat="43.18047" lon="5.59148">
        <ele>89.7</ele>
        <time>2021-01-13T09:00:37Z</time>
      </trkpt>
      <trkpt lat="43.18042" lon="5.59149">
        <ele>89.6</ele>
        <time>2021-01-13T09:00:41Z</time>
      </trkpt>
      <trkpt lat="43.18035" lon="5.59148">
        <ele>89.7</ele>
        <time>2021-01-13T09:00:47Z</time>
      </trkpt>
      <trkpt lat="43.1803" lon="5.59149">
        <ele>89.7</ele>
        <time>2021-01-13T09:00:51Z</time>
      </trkpt>
      <trkpt lat="43.18025" lon="5.59148">
        <ele>89.8</ele>
        <time>2021-01-13T09:00:55Z</time>
      </trkpt>
      <trkpt lat="43.1802" lon="5.59148">
        <ele>89.9</ele>
        <time>2021-01-13T09:00:59Z</time>
      </trkpt>
      <trkpt lat="43.18014" lon="5.59148">
        <ele>89.9</ele>
        <time>2021-01-13T09:01:03Z</time>
      </trkpt>
      <trkpt lat="43.1801" lon="5.59148">
        <ele>89.9</ele>
        <time>2021-01-13T09:01:07Z</time>
      </trkpt>
      <trkpt lat="43.18003" lon="5.59148">
        <ele>90</ele>
        <time>2021-01-13T09:01:13Z</time>
      </trkpt>
      <trkpt lat="43.17997" lon="5.59148">
        <ele>90.1</ele>
        <time>2021-01-13T09:01:19Z</time>
      </trkpt>
      <trkpt lat="43.17991" lon="5.59146">
        <ele>90.5</ele>
        <time>2021-01-13T09:01:25Z</time>
      </trkpt>
      <trkpt lat="43.17986" lon="5.59143">
        <ele>91</ele>
        <time>2021-01-13T09:01:35Z</time>
      </trkpt>
      <trkpt lat="43.17984" lon="5.59136">
        <ele>91.8</ele>
        <time>2021-01-13T09:01:43Z</time>
      </trkpt>
      <trkpt lat="43.17981" lon="5.5913">
        <ele>92.6</ele>
        <time>2021-01-13T09:01:49Z</time>
      </trkpt>
      <trkpt lat="43.17979" lon="5.59122">
        <ele>93.6</ele>
        <time>2021-01-13T09:01:55Z</time>
      </trkpt>
      <trkpt lat="43.17975" lon="5.59115">
        <ele>94.6</ele>
        <time>2021-01-13T09:02:01Z</time>
      </trkpt>
      <trkpt lat="43.17972" lon="5.59108">
        <ele>95.5</ele>
        <time>2021-01-13T09:02:07Z</time>
      </trkpt>
      <trkpt lat="43.17968" lon="5.59102">
        <ele>96.3</ele>
        <time>2021-01-13T09:02:13Z</time>
      </trkpt>
      <trkpt lat="43.17969" lon="5.59095">
        <ele>97.1</ele>
        <time>2021-01-13T09:02:21Z</time>
      </trkpt>
      <trkpt lat="43.17968" lon="5.59088">
        <ele>98</ele>
        <time>2021-01-13T09:02:27Z</time>
      </trkpt>
      <trkpt lat="43.17966" lon="5.59082">
        <ele>98.8</ele>
        <time>2021-01-13T09:02:33Z</time>
      </trkpt>
      <trkpt lat="43.17964" lon="5.59076">
        <ele>99.6</ele>
        <time>2021-01-13T09:02:39Z</time>
      </trkpt>
      <trkpt lat="43.17963" lon="5.59069">
        <ele>100.4</ele>
        <time>2021-01-13T09:02:45Z</time>
      </trkpt>
      <trkpt lat="43.17963" lon="5.59062">
        <ele>101.2</ele>
        <time>2021-01-13T09:02:51Z</time>
      </trkpt>
      <trkpt lat="43.17961" lon="5.59055">
        <ele>102</ele>
        <time>2021-01-13T09:02:57Z</time>
      </trkpt>
      <trkpt lat="43.17956" lon="5.59052">
        <ele>102.8</ele>
        <time>2021-01-13T09:03:03Z</time>
      </trkpt>
      <trkpt lat="43.17951" lon="5.5905">
        <ele>103.3</ele>
        <time>2021-01-13T09:03:09Z</time>
      </trkpt>
      <trkpt lat="43.17948" lon="5.59046">
        <ele>104.1</ele>
        <time>2021-01-13T09:03:17Z</time>
      </trkpt>
      <trkpt lat="43.17942" lon="5.59048">
        <ele>104.3</ele>
        <time>2021-01-13T09:03:23Z</time>
      </trkpt>
      <trkpt lat="43.17943" lon="5.59039">
        <ele>105.3</ele>
        <time>2021-01-13T09:03:49Z</time>
      </trkpt>
      <trkpt lat="43.17943" lon="5.59031">
        <ele>106.3</ele>
        <time>2021-01-13T09:03:57Z</time>
      </trkpt>
      <trkpt lat="43.17944" lon="5.59024">
        <ele>107.1</ele>
        <time>2021-01-13T09:04:05Z</time>
      </trkpt>
      <trkpt lat="43.17945" lon="5.59015">
        <ele>108</ele>
        <time>2021-01-13T09:04:13Z</time>
      </trkpt>
      <trkpt lat="43.17945" lon="5.59008">
        <ele>109</ele>
        <time>2021-01-13T09:04:21Z</time>
      </trkpt>
      <trkpt lat="43.17943" lon="5.59001">
        <ele>110.1</ele>
        <time>2021-01-13T09:04:29Z</time>
      </trkpt>
      <trkpt lat="43.17943" lon="5.58994">
        <ele>110.6</ele>
        <time>2021-01-13T09:04:37Z</time>
      </trkpt>
      <trkpt lat="43.17943" lon="5.58987">
        <ele>111.2</ele>
        <time>2021-01-13T09:04:43Z</time>
      </trkpt>
      <trkpt lat="43.17944" lon="5.58979">
        <ele>111.8</ele>
        <time>2021-01-13T09:04:51Z</time>
      </trkpt>
      <trkpt lat="43.1794" lon="5.58975">
        <ele>112.5</ele>
        <time>2021-01-13T09:04:57Z</time>
      </trkpt>
      <trkpt lat="43.17934" lon="5.58973">
        <ele>113.5</ele>
        <time>2021-01-13T09:05:03Z</time>
      </trkpt>
      <trkpt lat="43.17932" lon="5.58967">
        <ele>114.3</ele>
        <time>2021-01-13T09:05:13Z</time>
      </trkpt>
      <trkpt lat="43.1793" lon="5.5896">
        <ele>115.1</ele>
        <time>2021-01-13T09:05:25Z</time>
      </trkpt>
      <trkpt lat="43.17926" lon="5.58958">
        <ele>115.9</ele>
        <time>2021-01-13T09:05:33Z</time>
      </trkpt>
      <trkpt lat="43.17921" lon="5.58959">
        <ele>116.4</ele>
        <time>2021-01-13T09:05:39Z</time>
      </trkpt>
      <trkpt lat="43.17915" lon="5.58956">
        <ele>117.2</ele>
        <time>2021-01-13T09:05:47Z</time>
      </trkpt>
      <trkpt lat="43.17911" lon="5.58951">
        <ele>118</ele>
        <time>2021-01-13T09:05:55Z</time>
      </trkpt>
      <trkpt lat="43.17904" lon="5.58952">
        <ele>118.2</ele>
        <time>2021-01-13T09:06:01Z</time>
      </trkpt>
      <trkpt lat="43.17898" lon="5.58954">
        <ele>118.2</ele>
        <time>2021-01-13T09:06:07Z</time>
      </trkpt>
      <trkpt lat="43.17892" lon="5.58954">
        <ele>118.4</ele>
        <time>2021-01-13T09:06:13Z</time>
      </trkpt>
      <trkpt lat="43.17887" lon="5.58955">
        <ele>118.5</ele>
        <time>2021-01-13T09:06:19Z</time>
      </trkpt>
      <trkpt lat="43.17882" lon="5.58957">
        <ele>118.5</ele>
        <time>2021-01-13T09:06:25Z</time>
      </trkpt>
      <trkpt lat="43.17876" lon="5.58959">
        <ele>118.3</ele>
        <time>2021-01-13T09:06:31Z</time>
      </trkpt>
      <trkpt lat="43.17871" lon="5.58961">
        <ele>118.2</ele>
        <time>2021-01-13T09:06:37Z</time>
      </trkpt>
      <trkpt lat="43.17866" lon="5.58963">
        <ele>118.1</ele>
        <time>2021-01-13T09:06:45Z</time>
      </trkpt>
      <trkpt lat="43.17864" lon="5.58969">
        <ele>117.3</ele>
        <time>2021-01-13T09:09:41Z</time>
      </trkpt>
      <trkpt lat="43.17859" lon="5.58969">
        <ele>117.4</ele>
        <time>2021-01-13T09:10:01Z</time>
      </trkpt>
      <trkpt lat="43.17854" lon="5.58969">
        <ele>117.4</ele>
        <time>2021-01-13T09:11:25Z</time>
      </trkpt>
      <trkpt lat="43.17849" lon="5.58968">
        <ele>117.7</ele>
        <time>2021-01-13T09:11:31Z</time>
      </trkpt>
      <trkpt lat="43.17843" lon="5.58966">
        <ele>118.2</ele>
        <time>2021-01-13T09:11:37Z</time>
      </trkpt>
      <trkpt lat="43.17839" lon="5.58965">
        <ele>118.6</ele>
        <time>2021-01-13T09:11:43Z</time>
      </trkpt>
      <trkpt lat="43.17833" lon="5.58962">
        <ele>119.3</ele>
        <time>2021-01-13T09:11:49Z</time>
      </trkpt>
      <trkpt lat="43.17828" lon="5.5896">
        <ele>120</ele>
        <time>2021-01-13T09:11:55Z</time>
      </trkpt>
      <trkpt lat="43.17823" lon="5.58956">
        <ele>121</ele>
        <time>2021-01-13T09:12:01Z</time>
      </trkpt>
      <trkpt lat="43.17819" lon="5.58951">
        <ele>122</ele>
        <time>2021-01-13T09:12:07Z</time>
      </trkpt>
      <trkpt lat="43.17815" lon="5.58946">
        <ele>123.1</ele>
        <time>2021-01-13T09:12:13Z</time>
      </trkpt>
      <trkpt lat="43.17811" lon="5.58941">
        <ele>124.2</ele>
        <time>2021-01-13T09:12:19Z</time>
      </trkpt>
      <trkpt lat="43.17808" lon="5.58936">
        <ele>125.2</ele>
        <time>2021-01-13T09:12:25Z</time>
      </trkpt>
      <trkpt lat="43.17805" lon="5.5893">
        <ele>126.4</ele>
        <time>2021-01-13T09:12:31Z</time>
      </trkpt>
      <trkpt lat="43.17802" lon="5.58925">
        <ele>127.3</ele>
        <time>2021-01-13T09:12:35Z</time>
      </trkpt>
      <trkpt lat="43.17799" lon="5.58919">
        <ele>128.5</ele>
        <time>2021-01-13T09:12:41Z</time>
      </trkpt>
      <trkpt lat="43.17795" lon="5.58912">
        <ele>129.9</ele>
        <time>2021-01-13T09:12:47Z</time>
      </trkpt>
      <trkpt lat="43.17791" lon="5.58906">
        <ele>131</ele>
        <time>2021-01-13T09:12:53Z</time>
      </trkpt>
      <trkpt lat="43.17786" lon="5.589">
        <ele>132.2</ele>
        <time>2021-01-13T09:12:59Z</time>
      </trkpt>
      <trkpt lat="43.17781" lon="5.58899">
        <ele>132.6</ele>
        <time>2021-01-13T09:13:05Z</time>
      </trkpt>
      <trkpt lat="43.17776" lon="5.58896">
        <ele>133.1</ele>
        <time>2021-01-13T09:13:11Z</time>
      </trkpt>
      <trkpt lat="43.17771" lon="5.589">
        <ele>132.6</ele>
        <time>2021-01-13T09:13:25Z</time>
      </trkpt>
      <trkpt lat="43.17766" lon="5.58905">
        <ele>131.7</ele>
        <time>2021-01-13T09:13:31Z</time>
      </trkpt>
      <trkpt lat="43.17765" lon="5.58911">
        <ele>130.7</ele>
        <time>2021-01-13T09:13:35Z</time>
      </trkpt>
      <trkpt lat="43.17762" lon="5.58917">
        <ele>129.7</ele>
        <time>2021-01-13T09:13:41Z</time>
      </trkpt>
      <trkpt lat="43.17759" lon="5.58922">
        <ele>129</ele>
        <time>2021-01-13T09:13:47Z</time>
      </trkpt>
      <trkpt lat="43.17757" lon="5.58929">
        <ele>128</ele>
        <time>2021-01-13T09:13:55Z</time>
      </trkpt>
      <trkpt lat="43.17755" lon="5.58936">
        <ele>127.1</ele>
        <time>2021-01-13T09:14:01Z</time>
      </trkpt>
      <trkpt lat="43.17751" lon="5.5894">
        <ele>126.6</ele>
        <time>2021-01-13T09:14:13Z</time>
      </trkpt>
      <trkpt lat="43.17747" lon="5.58944">
        <ele>126.7</ele>
        <time>2021-01-13T09:14:21Z</time>
      </trkpt>
      <trkpt lat="43.17743" lon="5.58948">
        <ele>126.9</ele>
        <time>2021-01-13T09:14:29Z</time>
      </trkpt>
      <trkpt lat="43.17738" lon="5.58952">
        <ele>127.4</ele>
        <time>2021-01-13T09:14:37Z</time>
      </trkpt>
      <trkpt lat="43.17733" lon="5.58955">
        <ele>127.8</ele>
        <time>2021-01-13T09:14:45Z</time>
      </trkpt>
      <trkpt lat="43.17729" lon="5.58958">
        <ele>128.4</ele>
        <time>2021-01-13T09:14:51Z</time>
      </trkpt>
      <trkpt lat="43.17723" lon="5.58958">
        <ele>129.6</ele>
        <time>2021-01-13T09:14:59Z</time>
      </trkpt>
      <trkpt lat="43.17719" lon="5.58954">
        <ele>131</ele>
        <time>2021-01-13T09:15:09Z</time>
      </trkpt>
      <trkpt lat="43.17715" lon="5.5895">
        <ele>132.3</ele>
        <time>2021-01-13T09:15:17Z</time>
      </trkpt>
      <trkpt lat="43.17709" lon="5.58948">
        <ele>133.9</ele>
        <time>2021-01-13T09:15:25Z</time>
      </trkpt>
      <trkpt lat="43.17705" lon="5.58945">
        <ele>135.3</ele>
        <time>2021-01-13T09:15:33Z</time>
      </trkpt>
      <trkpt lat="43.17702" lon="5.58939">
        <ele>136.7</ele>
        <time>2021-01-13T09:15:41Z</time>
      </trkpt>
      <trkpt lat="43.17698" lon="5.58935">
        <ele>138.3</ele>
        <time>2021-01-13T09:15:51Z</time>
      </trkpt>
      <trkpt lat="43.17694" lon="5.58929">
        <ele>140</ele>
        <time>2021-01-13T09:16:01Z</time>
      </trkpt>
      <trkpt lat="43.1769" lon="5.58925">
        <ele>141.6</ele>
        <time>2021-01-13T09:16:09Z</time>
      </trkpt>
      <trkpt lat="43.17685" lon="5.58924">
        <ele>142.9</ele>
        <time>2021-01-13T09:16:17Z</time>
      </trkpt>
      <trkpt lat="43.1768" lon="5.58922">
        <ele>144.3</ele>
        <time>2021-01-13T09:16:27Z</time>
      </trkpt>
      <trkpt lat="43.17674" lon="5.58921">
        <ele>145.6</ele>
        <time>2021-01-13T09:16:37Z</time>
      </trkpt>
      <trkpt lat="43.17669" lon="5.58921">
        <ele>146.8</ele>
        <time>2021-01-13T09:16:45Z</time>
      </trkpt>
      <trkpt lat="43.17663" lon="5.58921">
        <ele>148</ele>
        <time>2021-01-13T09:16:51Z</time>
      </trkpt>
      <trkpt lat="43.17659" lon="5.58923">
        <ele>148.8</ele>
        <time>2021-01-13T09:16:59Z</time>
      </trkpt>
      <trkpt lat="43.17654" lon="5.58925">
        <ele>149.5</ele>
        <time>2021-01-13T09:17:09Z</time>
      </trkpt>
      <trkpt lat="43.17648" lon="5.58926">
        <ele>150.7</ele>
        <time>2021-01-13T09:17:17Z</time>
      </trkpt>
      <trkpt lat="43.17645" lon="5.5893">
        <ele>150.7</ele>
        <time>2021-01-13T09:17:25Z</time>
      </trkpt>
      <trkpt lat="43.17642" lon="5.58935">
        <ele>150.6</ele>
        <time>2021-01-13T09:17:31Z</time>
      </trkpt>
      <trkpt lat="43.17638" lon="5.5894">
        <ele>150.6</ele>
        <time>2021-01-13T09:17:37Z</time>
      </trkpt>
      <trkpt lat="43.17635" lon="5.58944">
        <ele>150.7</ele>
        <time>2021-01-13T09:17:45Z</time>
      </trkpt>
      <trkpt lat="43.17634" lon="5.5895">
        <ele>150</ele>
        <time>2021-01-13T09:18:07Z</time>
      </trkpt>
      <trkpt lat="43.17631" lon="5.58955">
        <ele>150</ele>
        <time>2021-01-13T09:18:25Z</time>
      </trkpt>
      <trkpt lat="43.17626" lon="5.58959">
        <ele>150.5</ele>
        <time>2021-01-13T09:18:33Z</time>
      </trkpt>
      <trkpt lat="43.17621" lon="5.58964">
        <ele>150.8</ele>
        <time>2021-01-13T09:18:39Z</time>
      </trkpt>
      <trkpt lat="43.17618" lon="5.58968">
        <ele>150.7</ele>
        <time>2021-01-13T09:18:45Z</time>
      </trkpt>
      <trkpt lat="43.17615" lon="5.58973">
        <ele>150.7</ele>
        <time>2021-01-13T09:18:51Z</time>
      </trkpt>
      <trkpt lat="43.17611" lon="5.5898">
        <ele>150.7</ele>
        <time>2021-01-13T09:18:59Z</time>
      </trkpt>
      <trkpt lat="43.17607" lon="5.58986">
        <ele>150.6</ele>
        <time>2021-01-13T09:19:07Z</time>
      </trkpt>
      <trkpt lat="43.17603" lon="5.58992">
        <ele>150.5</ele>
        <time>2021-01-13T09:19:13Z</time>
      </trkpt>
      <trkpt lat="43.176" lon="5.58997">
        <ele>150.4</ele>
        <time>2021-01-13T09:19:19Z</time>
      </trkpt>
      <trkpt lat="43.17597" lon="5.59003">
        <ele>150.3</ele>
        <time>2021-01-13T09:19:25Z</time>
      </trkpt>
      <trkpt lat="43.17593" lon="5.59009">
        <ele>150.6</ele>
        <time>2021-01-13T09:19:31Z</time>
      </trkpt>
      <trkpt lat="43.17589" lon="5.59013">
        <ele>151</ele>
        <time>2021-01-13T09:19:37Z</time>
      </trkpt>
      <trkpt lat="43.17585" lon="5.59017">
        <ele>151.4</ele>
        <time>2021-01-13T09:19:43Z</time>
      </trkpt>
      <trkpt lat="43.17581" lon="5.59021">
        <ele>151.6</ele>
        <time>2021-01-13T09:19:49Z</time>
      </trkpt>
      <trkpt lat="43.17577" lon="5.59026">
        <ele>151.5</ele>
        <time>2021-01-13T09:19:55Z</time>
      </trkpt>
      <trkpt lat="43.17574" lon="5.5903">
        <ele>151.6</ele>
        <time>2021-01-13T09:20:01Z</time>
      </trkpt>
      <trkpt lat="43.1757" lon="5.59036">
        <ele>151.5</ele>
        <time>2021-01-13T09:20:07Z</time>
      </trkpt>
      <trkpt lat="43.17566" lon="5.59041">
        <ele>151.4</ele>
        <time>2021-01-13T09:20:13Z</time>
      </trkpt>
      <trkpt lat="43.17562" lon="5.59047">
        <ele>151.5</ele>
        <time>2021-01-13T09:20:19Z</time>
      </trkpt>
      <trkpt lat="43.17558" lon="5.59052">
        <ele>151.4</ele>
        <time>2021-01-13T09:20:25Z</time>
      </trkpt>
      <trkpt lat="43.17553" lon="5.59056">
        <ele>151.6</ele>
        <time>2021-01-13T09:20:31Z</time>
      </trkpt>
      <trkpt lat="43.17549" lon="5.59059">
        <ele>151.9</ele>
        <time>2021-01-13T09:20:37Z</time>
      </trkpt>
      <trkpt lat="43.17545" lon="5.59065">
        <ele>152</ele>
        <time>2021-01-13T09:20:45Z</time>
      </trkpt>
      <trkpt lat="43.17541" lon="5.5907">
        <ele>151.8</ele>
        <time>2021-01-13T09:20:51Z</time>
      </trkpt>
      <trkpt lat="43.17537" lon="5.59075">
        <ele>152</ele>
        <time>2021-01-13T09:20:57Z</time>
      </trkpt>
      <trkpt lat="43.17532" lon="5.59078">
        <ele>152.4</ele>
        <time>2021-01-13T09:21:03Z</time>
      </trkpt>
      <trkpt lat="43.17527" lon="5.5908">
        <ele>152.9</ele>
        <time>2021-01-13T09:21:09Z</time>
      </trkpt>
      <trkpt lat="43.17522" lon="5.59083">
        <ele>153.4</ele>
        <time>2021-01-13T09:21:15Z</time>
      </trkpt>
      <trkpt lat="43.17516" lon="5.59086">
        <ele>153.9</ele>
        <time>2021-01-13T09:21:21Z</time>
      </trkpt>
      <trkpt lat="43.17511" lon="5.59087">
        <ele>154.6</ele>
        <time>2021-01-13T09:21:27Z</time>
      </trkpt>
      <trkpt lat="43.17506" lon="5.5909">
        <ele>154.9</ele>
        <time>2021-01-13T09:21:33Z</time>
      </trkpt>
      <trkpt lat="43.17501" lon="5.59093">
        <ele>155</ele>
        <time>2021-01-13T09:21:39Z</time>
      </trkpt>
      <trkpt lat="43.17496" lon="5.59097">
        <ele>154.6</ele>
        <time>2021-01-13T09:21:45Z</time>
      </trkpt>
      <trkpt lat="43.17491" lon="5.59098">
        <ele>154.2</ele>
        <time>2021-01-13T09:21:51Z</time>
      </trkpt>
      <trkpt lat="43.17485" lon="5.59101">
        <ele>153.7</ele>
        <time>2021-01-13T09:21:57Z</time>
      </trkpt>
      <trkpt lat="43.1748" lon="5.59102">
        <ele>153.5</ele>
        <time>2021-01-13T09:22:03Z</time>
      </trkpt>
      <trkpt lat="43.17474" lon="5.59101">
        <ele>153.5</ele>
        <time>2021-01-13T09:22:09Z</time>
      </trkpt>
      <trkpt lat="43.17469" lon="5.59102">
        <ele>153.4</ele>
        <time>2021-01-13T09:22:15Z</time>
      </trkpt>
      <trkpt lat="43.17463" lon="5.59102">
        <ele>153.3</ele>
        <time>2021-01-13T09:22:21Z</time>
      </trkpt>
      <trkpt lat="43.17457" lon="5.59102">
        <ele>153.1</ele>
        <time>2021-01-13T09:22:27Z</time>
      </trkpt>
      <trkpt lat="43.17451" lon="5.59103">
        <ele>153</ele>
        <time>2021-01-13T09:22:33Z</time>
      </trkpt>
      <trkpt lat="43.17445" lon="5.59103">
        <ele>152.9</ele>
        <time>2021-01-13T09:22:39Z</time>
      </trkpt>
      <trkpt lat="43.1744" lon="5.59103">
        <ele>152.9</ele>
        <time>2021-01-13T09:22:45Z</time>
      </trkpt>
      <trkpt lat="43.17435" lon="5.59105">
        <ele>152.5</ele>
        <time>2021-01-13T09:22:53Z</time>
      </trkpt>
      <trkpt lat="43.17429" lon="5.59106">
        <ele>152.3</ele>
        <time>2021-01-13T09:22:59Z</time>
      </trkpt>
      <trkpt lat="43.17423" lon="5.59108">
        <ele>152.1</ele>
        <time>2021-01-13T09:23:05Z</time>
      </trkpt>
      <trkpt lat="43.17418" lon="5.5911">
        <ele>151.8</ele>
        <time>2021-01-13T09:23:11Z</time>
      </trkpt>
      <trkpt lat="43.17414" lon="5.59111">
        <ele>151</ele>
        <time>2021-01-13T09:23:17Z</time>
      </trkpt>
      <trkpt lat="43.1741" lon="5.59105">
        <ele>150.9</ele>
        <time>2021-01-13T09:23:25Z</time>
      </trkpt>
      <trkpt lat="43.17408" lon="5.59097">
        <ele>151.3</ele>
        <time>2021-01-13T09:23:31Z</time>
      </trkpt>
      <trkpt lat="43.17406" lon="5.5909">
        <ele>151.8</ele>
        <time>2021-01-13T09:23:37Z</time>
      </trkpt>
      <trkpt lat="43.17405" lon="5.59083">
        <ele>152.3</ele>
        <time>2021-01-13T09:23:43Z</time>
      </trkpt>
      <trkpt lat="43.17404" lon="5.59076">
        <ele>152.9</ele>
        <time>2021-01-13T09:23:49Z</time>
      </trkpt>
      <trkpt lat="43.17403" lon="5.5907">
        <ele>153.6</ele>
        <time>2021-01-13T09:23:55Z</time>
      </trkpt>
      <trkpt lat="43.17402" lon="5.59062">
        <ele>154.3</ele>
        <time>2021-01-13T09:24:01Z</time>
      </trkpt>
      <trkpt lat="43.17399" lon="5.59055">
        <ele>154.3</ele>
        <time>2021-01-13T09:24:07Z</time>
      </trkpt>
      <trkpt lat="43.17396" lon="5.59051">
        <ele>154.1</ele>
        <time>2021-01-13T09:24:17Z</time>
      </trkpt>
      <trkpt lat="43.17395" lon="5.59044">
        <ele>154.6</ele>
        <time>2021-01-13T09:24:27Z</time>
      </trkpt>
      <trkpt lat="43.17393" lon="5.59037">
        <ele>154.8</ele>
        <time>2021-01-13T09:24:35Z</time>
      </trkpt>
      <trkpt lat="43.17388" lon="5.59034">
        <ele>154.3</ele>
        <time>2021-01-13T09:25:45Z</time>
      </trkpt>
      <trkpt lat="43.17387" lon="5.59027">
        <ele>154.7</ele>
        <time>2021-01-13T09:26:17Z</time>
      </trkpt>
      <trkpt lat="43.17384" lon="5.59022">
        <ele>154.7</ele>
        <time>2021-01-13T09:26:23Z</time>
      </trkpt>
      <trkpt lat="43.17383" lon="5.59014">
        <ele>155.3</ele>
        <time>2021-01-13T09:26:31Z</time>
      </trkpt>
      <trkpt lat="43.17381" lon="5.59007">
        <ele>155.6</ele>
        <time>2021-01-13T09:26:37Z</time>
      </trkpt>
      <trkpt lat="43.1738" lon="5.59001">
        <ele>156.1</ele>
        <time>2021-01-13T09:26:43Z</time>
      </trkpt>
      <trkpt lat="43.17379" lon="5.58993">
        <ele>156.5</ele>
        <time>2021-01-13T09:26:49Z</time>
      </trkpt>
      <trkpt lat="43.17381" lon="5.58986">
        <ele>157.3</ele>
        <time>2021-01-13T09:26:55Z</time>
      </trkpt>
      <trkpt lat="43.17382" lon="5.58979">
        <ele>158</ele>
        <time>2021-01-13T09:27:03Z</time>
      </trkpt>
      <trkpt lat="43.17384" lon="5.58971">
        <ele>159.2</ele>
        <time>2021-01-13T09:27:09Z</time>
      </trkpt>
      <trkpt lat="43.17387" lon="5.58963">
        <ele>160.4</ele>
        <time>2021-01-13T09:27:15Z</time>
      </trkpt>
      <trkpt lat="43.17388" lon="5.58955">
        <ele>161.2</ele>
        <time>2021-01-13T09:27:21Z</time>
      </trkpt>
      <trkpt lat="43.17389" lon="5.58948">
        <ele>162</ele>
        <time>2021-01-13T09:27:27Z</time>
      </trkpt>
      <trkpt lat="43.17391" lon="5.58941">
        <ele>163.1</ele>
        <time>2021-01-13T09:27:33Z</time>
      </trkpt>
      <trkpt lat="43.17392" lon="5.58934">
        <ele>164.1</ele>
        <time>2021-01-13T09:27:39Z</time>
      </trkpt>
      <trkpt lat="43.17395" lon="5.58928">
        <ele>165.3</ele>
        <time>2021-01-13T09:27:45Z</time>
      </trkpt>
      <trkpt lat="43.17397" lon="5.5892">
        <ele>166.6</ele>
        <time>2021-01-13T09:27:51Z</time>
      </trkpt>
      <trkpt lat="43.17398" lon="5.58913">
        <ele>167.8</ele>
        <time>2021-01-13T09:27:57Z</time>
      </trkpt>
      <trkpt lat="43.17399" lon="5.58904">
        <ele>169</ele>
        <time>2021-01-13T09:28:03Z</time>
      </trkpt>
      <trkpt lat="43.174" lon="5.58896">
        <ele>169.9</ele>
        <time>2021-01-13T09:28:09Z</time>
      </trkpt>
      <trkpt lat="43.174" lon="5.58887">
        <ele>171.2</ele>
        <time>2021-01-13T09:28:15Z</time>
      </trkpt>
      <trkpt lat="43.17399" lon="5.58879">
        <ele>171.8</ele>
        <time>2021-01-13T09:28:21Z</time>
      </trkpt>
      <trkpt lat="43.17398" lon="5.58872">
        <ele>172</ele>
        <time>2021-01-13T09:28:27Z</time>
      </trkpt>
      <trkpt lat="43.17396" lon="5.58865">
        <ele>172.4</ele>
        <time>2021-01-13T09:28:33Z</time>
      </trkpt>
      <trkpt lat="43.17394" lon="5.58858">
        <ele>172.5</ele>
        <time>2021-01-13T09:28:39Z</time>
      </trkpt>
      <trkpt lat="43.17392" lon="5.58851">
        <ele>172.6</ele>
        <time>2021-01-13T09:28:45Z</time>
      </trkpt>
      <trkpt lat="43.1739" lon="5.58845">
        <ele>172.5</ele>
        <time>2021-01-13T09:28:49Z</time>
      </trkpt>
      <trkpt lat="43.17388" lon="5.58838">
        <ele>172.8</ele>
        <time>2021-01-13T09:28:55Z</time>
      </trkpt>
      <trkpt lat="43.17386" lon="5.58831">
        <ele>172.7</ele>
        <time>2021-01-13T09:29:01Z</time>
      </trkpt>
      <trkpt lat="43.17383" lon="5.58824">
        <ele>171.6</ele>
        <time>2021-01-13T09:29:07Z</time>
      </trkpt>
      <trkpt lat="43.17383" lon="5.58816">
        <ele>171.1</ele>
        <time>2021-01-13T09:29:13Z</time>
      </trkpt>
      <trkpt lat="43.17382" lon="5.58808">
        <ele>170.8</ele>
        <time>2021-01-13T09:29:19Z</time>
      </trkpt>
      <trkpt lat="43.17384" lon="5.588">
        <ele>170.9</ele>
        <time>2021-01-13T09:29:25Z</time>
      </trkpt>
      <trkpt lat="43.17387" lon="5.58794">
        <ele>171.5</ele>
        <time>2021-01-13T09:29:31Z</time>
      </trkpt>
      <trkpt lat="43.1739" lon="5.58788">
        <ele>172.3</ele>
        <time>2021-01-13T09:29:37Z</time>
      </trkpt>
      <trkpt lat="43.17393" lon="5.58783">
        <ele>173.2</ele>
        <time>2021-01-13T09:29:43Z</time>
      </trkpt>
      <trkpt lat="43.17397" lon="5.58779">
        <ele>174.3</ele>
        <time>2021-01-13T09:29:49Z</time>
      </trkpt>
      <trkpt lat="43.17402" lon="5.58775">
        <ele>175.4</ele>
        <time>2021-01-13T09:29:55Z</time>
      </trkpt>
      <trkpt lat="43.17406" lon="5.5877">
        <ele>176.6</ele>
        <time>2021-01-13T09:30:01Z</time>
      </trkpt>
      <trkpt lat="43.17411" lon="5.58764">
        <ele>177.8</ele>
        <time>2021-01-13T09:30:07Z</time>
      </trkpt>
      <trkpt lat="43.17414" lon="5.58757">
        <ele>178.6</ele>
        <time>2021-01-13T09:30:15Z</time>
      </trkpt>
      <trkpt lat="43.17417" lon="5.58751">
        <ele>179.2</ele>
        <time>2021-01-13T09:30:21Z</time>
      </trkpt>
      <trkpt lat="43.17421" lon="5.58746">
        <ele>179.9</ele>
        <time>2021-01-13T09:30:25Z</time>
      </trkpt>
      <trkpt lat="43.17426" lon="5.5874">
        <ele>181.2</ele>
        <time>2021-01-13T09:30:31Z</time>
      </trkpt>
      <trkpt lat="43.17428" lon="5.58735">
        <ele>181.7</ele>
        <time>2021-01-13T09:30:35Z</time>
      </trkpt>
      <trkpt lat="43.17432" lon="5.58728">
        <ele>182.6</ele>
        <time>2021-01-13T09:30:41Z</time>
      </trkpt>
      <trkpt lat="43.17435" lon="5.58723">
        <ele>183.6</ele>
        <time>2021-01-13T09:30:47Z</time>
      </trkpt>
      <trkpt lat="43.17439" lon="5.58716">
        <ele>184.6</ele>
        <time>2021-01-13T09:30:53Z</time>
      </trkpt>
      <trkpt lat="43.17442" lon="5.58709">
        <ele>185.4</ele>
        <time>2021-01-13T09:30:59Z</time>
      </trkpt>
      <trkpt lat="43.17445" lon="5.58703">
        <ele>186.2</ele>
        <time>2021-01-13T09:31:05Z</time>
      </trkpt>
      <trkpt lat="43.17447" lon="5.58696">
        <ele>186.8</ele>
        <time>2021-01-13T09:31:11Z</time>
      </trkpt>
      <trkpt lat="43.17449" lon="5.58689">
        <ele>187.4</ele>
        <time>2021-01-13T09:31:17Z</time>
      </trkpt>
      <trkpt lat="43.17451" lon="5.58683">
        <ele>188</ele>
        <time>2021-01-13T09:31:23Z</time>
      </trkpt>
      <trkpt lat="43.17452" lon="5.58676">
        <ele>188.4</ele>
        <time>2021-01-13T09:31:29Z</time>
      </trkpt>
      <trkpt lat="43.17454" lon="5.58668">
        <ele>188.7</ele>
        <time>2021-01-13T09:31:35Z</time>
      </trkpt>
      <trkpt lat="43.17455" lon="5.58661">
        <ele>189</ele>
        <time>2021-01-13T09:31:41Z</time>
      </trkpt>
      <trkpt lat="43.17456" lon="5.58654">
        <ele>189.1</ele>
        <time>2021-01-13T09:31:47Z</time>
      </trkpt>
      <trkpt lat="43.17457" lon="5.58647">
        <ele>189.3</ele>
        <time>2021-01-13T09:31:53Z</time>
      </trkpt>
      <trkpt lat="43.17457" lon="5.58639">
        <ele>189.2</ele>
        <time>2021-01-13T09:31:59Z</time>
      </trkpt>
      <trkpt lat="43.17458" lon="5.5863">
        <ele>189.3</ele>
        <time>2021-01-13T09:32:05Z</time>
      </trkpt>
      <trkpt lat="43.17458" lon="5.58623">
        <ele>189</ele>
        <time>2021-01-13T09:32:11Z</time>
      </trkpt>
      <trkpt lat="43.17458" lon="5.58615">
        <ele>188.9</ele>
        <time>2021-01-13T09:32:17Z</time>
      </trkpt>
      <trkpt lat="43.17459" lon="5.58607">
        <ele>188.9</ele>
        <time>2021-01-13T09:32:23Z</time>
      </trkpt>
      <trkpt lat="43.17461" lon="5.58602">
        <ele>189.6</ele>
        <time>2021-01-13T09:32:29Z</time>
      </trkpt>
      <trkpt lat="43.17464" lon="5.58597">
        <ele>190.4</ele>
        <time>2021-01-13T09:32:35Z</time>
      </trkpt>
      <trkpt lat="43.17469" lon="5.58592">
        <ele>191.6</ele>
        <time>2021-01-13T09:32:41Z</time>
      </trkpt>
      <trkpt lat="43.17472" lon="5.58587">
        <ele>192.5</ele>
        <time>2021-01-13T09:32:47Z</time>
      </trkpt>
      <trkpt lat="43.17477" lon="5.58581">
        <ele>193.4</ele>
        <time>2021-01-13T09:32:55Z</time>
      </trkpt>
      <trkpt lat="43.17481" lon="5.58575">
        <ele>193.8</ele>
        <time>2021-01-13T09:33:01Z</time>
      </trkpt>
      <trkpt lat="43.17484" lon="5.58569">
        <ele>193.9</ele>
        <time>2021-01-13T09:33:07Z</time>
      </trkpt>
      <trkpt lat="43.17487" lon="5.58564">
        <ele>193.9</ele>
        <time>2021-01-13T09:33:13Z</time>
      </trkpt>
      <trkpt lat="43.17491" lon="5.58557">
        <ele>194.2</ele>
        <time>2021-01-13T09:33:19Z</time>
      </trkpt>
      <trkpt lat="43.17494" lon="5.5855">
        <ele>194.1</ele>
        <time>2021-01-13T09:33:25Z</time>
      </trkpt>
      <trkpt lat="43.17498" lon="5.58543">
        <ele>194</ele>
        <time>2021-01-13T09:33:31Z</time>
      </trkpt>
      <trkpt lat="43.17502" lon="5.58537">
        <ele>194.3</ele>
        <time>2021-01-13T09:33:37Z</time>
      </trkpt>
      <trkpt lat="43.17505" lon="5.58532">
        <ele>194.5</ele>
        <time>2021-01-13T09:33:43Z</time>
      </trkpt>
      <trkpt lat="43.1751" lon="5.58527">
        <ele>195.2</ele>
        <time>2021-01-13T09:33:49Z</time>
      </trkpt>
      <trkpt lat="43.17514" lon="5.58523">
        <ele>196</ele>
        <time>2021-01-13T09:33:55Z</time>
      </trkpt>
      <trkpt lat="43.17518" lon="5.58519">
        <ele>196.5</ele>
        <time>2021-01-13T09:33:59Z</time>
      </trkpt>
      <trkpt lat="43.17522" lon="5.58512">
        <ele>197</ele>
        <time>2021-01-13T09:34:05Z</time>
      </trkpt>
      <trkpt lat="43.17526" lon="5.58507">
        <ele>197.5</ele>
        <time>2021-01-13T09:34:09Z</time>
      </trkpt>
      <trkpt lat="43.1753" lon="5.585">
        <ele>198.1</ele>
        <time>2021-01-13T09:34:15Z</time>
      </trkpt>
      <trkpt lat="43.17533" lon="5.58494">
        <ele>198.4</ele>
        <time>2021-01-13T09:34:21Z</time>
      </trkpt>
      <trkpt lat="43.17537" lon="5.58487">
        <ele>198.8</ele>
        <time>2021-01-13T09:34:27Z</time>
      </trkpt>
      <trkpt lat="43.1754" lon="5.5848">
        <ele>199.1</ele>
        <time>2021-01-13T09:34:33Z</time>
      </trkpt>
      <trkpt lat="43.17544" lon="5.58473">
        <ele>199.4</ele>
        <time>2021-01-13T09:34:39Z</time>
      </trkpt>
      <trkpt lat="43.17546" lon="5.58468">
        <ele>199.5</ele>
        <time>2021-01-13T09:34:43Z</time>
      </trkpt>
      <trkpt lat="43.17549" lon="5.58461">
        <ele>199.8</ele>
        <time>2021-01-13T09:34:49Z</time>
      </trkpt>
      <trkpt lat="43.17552" lon="5.58455">
        <ele>200.1</ele>
        <time>2021-01-13T09:34:55Z</time>
      </trkpt>
      <trkpt lat="43.17555" lon="5.58449">
        <ele>200.2</ele>
        <time>2021-01-13T09:35:01Z</time>
      </trkpt>
      <trkpt lat="43.17558" lon="5.58444">
        <ele>200.9</ele>
        <time>2021-01-13T09:35:07Z</time>
      </trkpt>
      <trkpt lat="43.17563" lon="5.58441">
        <ele>202.2</ele>
        <time>2021-01-13T09:35:11Z</time>
      </trkpt>
      <trkpt lat="43.17566" lon="5.58436">
        <ele>202.7</ele>
        <time>2021-01-13T09:35:17Z</time>
      </trkpt>
      <trkpt lat="43.17569" lon="5.58429">
        <ele>203.1</ele>
        <time>2021-01-13T09:35:23Z</time>
      </trkpt>
      <trkpt lat="43.17572" lon="5.58423">
        <ele>203.5</ele>
        <time>2021-01-13T09:35:29Z</time>
      </trkpt>
      <trkpt lat="43.17575" lon="5.58416">
        <ele>203.8</ele>
        <time>2021-01-13T09:35:35Z</time>
      </trkpt>
      <trkpt lat="43.17577" lon="5.58409">
        <ele>205.1</ele>
        <time>2021-01-13T09:35:41Z</time>
      </trkpt>
      <trkpt lat="43.17579" lon="5.58401">
        <ele>206.2</ele>
        <time>2021-01-13T09:35:47Z</time>
      </trkpt>
      <trkpt lat="43.17581" lon="5.58396">
        <ele>207.2</ele>
        <time>2021-01-13T09:35:53Z</time>
      </trkpt>
      <trkpt lat="43.17582" lon="5.58389">
        <ele>207.8</ele>
        <time>2021-01-13T09:35:59Z</time>
      </trkpt>
      <trkpt lat="43.17583" lon="5.58383">
        <ele>208.6</ele>
        <time>2021-01-13T09:36:05Z</time>
      </trkpt>
      <trkpt lat="43.17584" lon="5.58376">
        <ele>209.2</ele>
        <time>2021-01-13T09:36:11Z</time>
      </trkpt>
      <trkpt lat="43.17586" lon="5.58369">
        <ele>210.1</ele>
        <time>2021-01-13T09:36:17Z</time>
      </trkpt>
      <trkpt lat="43.17587" lon="5.58363">
        <ele>211</ele>
        <time>2021-01-13T09:36:23Z</time>
      </trkpt>
      <trkpt lat="43.17589" lon="5.58356">
        <ele>212</ele>
        <time>2021-01-13T09:36:29Z</time>
      </trkpt>
      <trkpt lat="43.1759" lon="5.58348">
        <ele>212.8</ele>
        <time>2021-01-13T09:36:35Z</time>
      </trkpt>
      <trkpt lat="43.17591" lon="5.58341">
        <ele>213.2</ele>
        <time>2021-01-13T09:36:41Z</time>
      </trkpt>
      <trkpt lat="43.17592" lon="5.58334">
        <ele>214</ele>
        <time>2021-01-13T09:36:47Z</time>
      </trkpt>
      <trkpt lat="43.17592" lon="5.58327">
        <ele>214.7</ele>
        <time>2021-01-13T09:36:53Z</time>
      </trkpt>
      <trkpt lat="43.1759" lon="5.58319">
        <ele>214.8</ele>
        <time>2021-01-13T09:36:59Z</time>
      </trkpt>
      <trkpt lat="43.17588" lon="5.58312">
        <ele>215.1</ele>
        <time>2021-01-13T09:37:05Z</time>
      </trkpt>
      <trkpt lat="43.17586" lon="5.58306">
        <ele>215</ele>
        <time>2021-01-13T09:37:11Z</time>
      </trkpt>
      <trkpt lat="43.17585" lon="5.58301">
        <ele>215</ele>
        <time>2021-01-13T09:37:17Z</time>
      </trkpt>
      <trkpt lat="43.17582" lon="5.58294">
        <ele>214.8</ele>
        <time>2021-01-13T09:37:25Z</time>
      </trkpt>
      <trkpt lat="43.17579" lon="5.58289">
        <ele>214.5</ele>
        <time>2021-01-13T09:37:33Z</time>
      </trkpt>
      <trkpt lat="43.17577" lon="5.58283">
        <ele>214.6</ele>
        <time>2021-01-13T09:37:41Z</time>
      </trkpt>
      <trkpt lat="43.17575" lon="5.58277">
        <ele>214.7</ele>
        <time>2021-01-13T09:37:49Z</time>
      </trkpt>
      <trkpt lat="43.17572" lon="5.5827">
        <ele>214.6</ele>
        <time>2021-01-13T09:37:57Z</time>
      </trkpt>
      <trkpt lat="43.17571" lon="5.58263">
        <ele>215</ele>
        <time>2021-01-13T09:38:05Z</time>
      </trkpt>
      <trkpt lat="43.1757" lon="5.58255">
        <ele>215.5</ele>
        <time>2021-01-13T09:38:13Z</time>
      </trkpt>
      <trkpt lat="43.1757" lon="5.58247">
        <ele>215.8</ele>
        <time>2021-01-13T09:38:21Z</time>
      </trkpt>
      <trkpt lat="43.17572" lon="5.5824">
        <ele>215.4</ele>
        <time>2021-01-13T09:38:27Z</time>
      </trkpt>
      <trkpt lat="43.17574" lon="5.58234">
        <ele>215.4</ele>
        <time>2021-01-13T09:38:35Z</time>
      </trkpt>
      <trkpt lat="43.17577" lon="5.58228">
        <ele>215.6</ele>
        <time>2021-01-13T09:38:43Z</time>
      </trkpt>
      <trkpt lat="43.17581" lon="5.58223">
        <ele>215.9</ele>
        <time>2021-01-13T09:38:49Z</time>
      </trkpt>
      <trkpt lat="43.17584" lon="5.58218">
        <ele>216.3</ele>
        <time>2021-01-13T09:38:55Z</time>
      </trkpt>
      <trkpt lat="43.17587" lon="5.58213">
        <ele>216.6</ele>
        <time>2021-01-13T09:39:01Z</time>
      </trkpt>
      <trkpt lat="43.1759" lon="5.58207">
        <ele>216.8</ele>
        <time>2021-01-13T09:39:09Z</time>
      </trkpt>
      <trkpt lat="43.17594" lon="5.58202">
        <ele>217.2</ele>
        <time>2021-01-13T09:39:15Z</time>
      </trkpt>
      <trkpt lat="43.17597" lon="5.58198">
        <ele>217.8</ele>
        <time>2021-01-13T09:39:21Z</time>
      </trkpt>
      <trkpt lat="43.17601" lon="5.58194">
        <ele>218.3</ele>
        <time>2021-01-13T09:39:27Z</time>
      </trkpt>
      <trkpt lat="43.17603" lon="5.58188">
        <ele>218.3</ele>
        <time>2021-01-13T09:39:35Z</time>
      </trkpt>
      <trkpt lat="43.17606" lon="5.58182">
        <ele>218.3</ele>
        <time>2021-01-13T09:39:45Z</time>
      </trkpt>
      <trkpt lat="43.17608" lon="5.58176">
        <ele>218.4</ele>
        <time>2021-01-13T09:39:51Z</time>
      </trkpt>
      <trkpt lat="43.1761" lon="5.58171">
        <ele>218.2</ele>
        <time>2021-01-13T09:39:57Z</time>
      </trkpt>
      <trkpt lat="43.17615" lon="5.58166">
        <ele>218.8</ele>
        <time>2021-01-13T09:40:05Z</time>
      </trkpt>
      <trkpt lat="43.17619" lon="5.58162">
        <ele>219.5</ele>
        <time>2021-01-13T09:40:11Z</time>
      </trkpt>
      <trkpt lat="43.17626" lon="5.58161">
        <ele>221.1</ele>
        <time>2021-01-13T09:40:19Z</time>
      </trkpt>
      <trkpt lat="43.17631" lon="5.5816">
        <ele>222.4</ele>
        <time>2021-01-13T09:40:25Z</time>
      </trkpt>
      <trkpt lat="43.17635" lon="5.58158">
        <ele>223.4</ele>
        <time>2021-01-13T09:40:31Z</time>
      </trkpt>
      <trkpt lat="43.1764" lon="5.58157">
        <ele>224.7</ele>
        <time>2021-01-13T09:40:39Z</time>
      </trkpt>
      <trkpt lat="43.17645" lon="5.58154">
        <ele>225.6</ele>
        <time>2021-01-13T09:40:47Z</time>
      </trkpt>
      <trkpt lat="43.1765" lon="5.58152">
        <ele>226.6</ele>
        <time>2021-01-13T09:40:55Z</time>
      </trkpt>
      <trkpt lat="43.17654" lon="5.58149">
        <ele>227.3</ele>
        <time>2021-01-13T09:41:03Z</time>
      </trkpt>
      <trkpt lat="43.17658" lon="5.58144">
        <ele>227.7</ele>
        <time>2021-01-13T09:41:09Z</time>
      </trkpt>
      <trkpt lat="43.17661" lon="5.58139">
        <ele>227.7</ele>
        <time>2021-01-13T09:41:17Z</time>
      </trkpt>
      <trkpt lat="43.17664" lon="5.58132">
        <ele>227.6</ele>
        <time>2021-01-13T09:41:25Z</time>
      </trkpt>
      <trkpt lat="43.17666" lon="5.58124">
        <ele>226.7</ele>
        <time>2021-01-13T09:41:31Z</time>
      </trkpt>
      <trkpt lat="43.17668" lon="5.58117">
        <ele>226.4</ele>
        <time>2021-01-13T09:41:37Z</time>
      </trkpt>
      <trkpt lat="43.17671" lon="5.58112">
        <ele>226.6</ele>
        <time>2021-01-13T09:41:43Z</time>
      </trkpt>
      <trkpt lat="43.17674" lon="5.58105">
        <ele>226.8</ele>
        <time>2021-01-13T09:41:51Z</time>
      </trkpt>
      <trkpt lat="43.17677" lon="5.581">
        <ele>227.2</ele>
        <time>2021-01-13T09:41:57Z</time>
      </trkpt>
      <trkpt lat="43.17679" lon="5.58094">
        <ele>227.2</ele>
        <time>2021-01-13T09:42:05Z</time>
      </trkpt>
      <trkpt lat="43.17681" lon="5.58088">
        <ele>227.1</ele>
        <time>2021-01-13T09:42:11Z</time>
      </trkpt>
      <trkpt lat="43.17682" lon="5.5808">
        <ele>226.7</ele>
        <time>2021-01-13T09:42:21Z</time>
      </trkpt>
      <trkpt lat="43.17686" lon="5.58076">
        <ele>228.3</ele>
        <time>2021-01-13T09:42:29Z</time>
      </trkpt>
      <trkpt lat="43.17687" lon="5.58069">
        <ele>228.5</ele>
        <time>2021-01-13T09:44:57Z</time>
      </trkpt>
      <trkpt lat="43.17691" lon="5.58064">
        <ele>229.9</ele>
        <time>2021-01-13T09:45:03Z</time>
      </trkpt>
      <trkpt lat="43.17696" lon="5.58058">
        <ele>231.9</ele>
        <time>2021-01-13T09:45:09Z</time>
      </trkpt>
      <trkpt lat="43.17697" lon="5.58052">
        <ele>232.1</ele>
        <time>2021-01-13T09:45:19Z</time>
      </trkpt>
      <trkpt lat="43.17698" lon="5.58044">
        <ele>232.3</ele>
        <time>2021-01-13T09:45:29Z</time>
      </trkpt>
      <trkpt lat="43.177" lon="5.58039">
        <ele>232.7</ele>
        <time>2021-01-13T09:45:35Z</time>
      </trkpt>
      <trkpt lat="43.17702" lon="5.58032">
        <ele>233.2</ele>
        <time>2021-01-13T09:45:47Z</time>
      </trkpt>
      <trkpt lat="43.17705" lon="5.58027">
        <ele>234.1</ele>
        <time>2021-01-13T09:45:57Z</time>
      </trkpt>
      <trkpt lat="43.17709" lon="5.58023">
        <ele>235.6</ele>
        <time>2021-01-13T09:46:09Z</time>
      </trkpt>
      <trkpt lat="43.17713" lon="5.58018">
        <ele>236.6</ele>
        <time>2021-01-13T09:46:15Z</time>
      </trkpt>
      <trkpt lat="43.17716" lon="5.58013">
        <ele>237.9</ele>
        <time>2021-01-13T09:46:23Z</time>
      </trkpt>
      <trkpt lat="43.1772" lon="5.58007">
        <ele>238.7</ele>
        <time>2021-01-13T09:46:33Z</time>
      </trkpt>
      <trkpt lat="43.17722" lon="5.58001">
        <ele>239.2</ele>
        <time>2021-01-13T09:46:41Z</time>
      </trkpt>
      <trkpt lat="43.17724" lon="5.57994">
        <ele>240.9</ele>
        <time>2021-01-13T09:46:49Z</time>
      </trkpt>
      <trkpt lat="43.17727" lon="5.57988">
        <ele>242.4</ele>
        <time>2021-01-13T09:46:57Z</time>
      </trkpt>
      <trkpt lat="43.17729" lon="5.57983">
        <ele>243.8</ele>
        <time>2021-01-13T09:47:03Z</time>
      </trkpt>
      <trkpt lat="43.1773" lon="5.57975">
        <ele>245</ele>
        <time>2021-01-13T09:47:11Z</time>
      </trkpt>
      <trkpt lat="43.17732" lon="5.5797">
        <ele>246.4</ele>
        <time>2021-01-13T09:47:17Z</time>
      </trkpt>
      <trkpt lat="43.17733" lon="5.57964">
        <ele>247.4</ele>
        <time>2021-01-13T09:47:23Z</time>
      </trkpt>
      <trkpt lat="43.17734" lon="5.57957">
        <ele>248.5</ele>
        <time>2021-01-13T09:47:29Z</time>
      </trkpt>
      <trkpt lat="43.17736" lon="5.5795">
        <ele>249.8</ele>
        <time>2021-01-13T09:47:35Z</time>
      </trkpt>
      <trkpt lat="43.17737" lon="5.57943">
        <ele>250.8</ele>
        <time>2021-01-13T09:47:41Z</time>
      </trkpt>
      <trkpt lat="43.17739" lon="5.57937">
        <ele>252</ele>
        <time>2021-01-13T09:47:47Z</time>
      </trkpt>
      <trkpt lat="43.1774" lon="5.57931">
        <ele>253</ele>
        <time>2021-01-13T09:47:55Z</time>
      </trkpt>
      <trkpt lat="43.17742" lon="5.57925">
        <ele>254.2</ele>
        <time>2021-01-13T09:48:03Z</time>
      </trkpt>
      <trkpt lat="43.17742" lon="5.57918">
        <ele>254.9</ele>
        <time>2021-01-13T09:48:11Z</time>
      </trkpt>
      <trkpt lat="43.17742" lon="5.57912">
        <ele>255.4</ele>
        <time>2021-01-13T09:48:35Z</time>
      </trkpt>
      <trkpt lat="43.17744" lon="5.57905">
        <ele>256.9</ele>
        <time>2021-01-13T09:48:53Z</time>
      </trkpt>
      <trkpt lat="43.17744" lon="5.57899">
        <ele>257.6</ele>
        <time>2021-01-13T09:49:01Z</time>
      </trkpt>
      <trkpt lat="43.17744" lon="5.57892">
        <ele>258.4</ele>
        <time>2021-01-13T09:49:09Z</time>
      </trkpt>
      <trkpt lat="43.17743" lon="5.57886">
        <ele>258.9</ele>
        <time>2021-01-13T09:49:19Z</time>
      </trkpt>
      <trkpt lat="43.17743" lon="5.57879">
        <ele>259.7</ele>
        <time>2021-01-13T09:49:29Z</time>
      </trkpt>
      <trkpt lat="43.17743" lon="5.57872">
        <ele>260.6</ele>
        <time>2021-01-13T09:49:41Z</time>
      </trkpt>
      <trkpt lat="43.17741" lon="5.57866">
        <ele>260.9</ele>
        <time>2021-01-13T09:49:49Z</time>
      </trkpt>
      <trkpt lat="43.17741" lon="5.5786">
        <ele>261.6</ele>
        <time>2021-01-13T09:50:03Z</time>
      </trkpt>
      <trkpt lat="43.17739" lon="5.57852">
        <ele>262</ele>
        <time>2021-01-13T09:50:13Z</time>
      </trkpt>
      <trkpt lat="43.17739" lon="5.57846">
        <ele>262.7</ele>
        <time>2021-01-13T09:50:19Z</time>
      </trkpt>
      <trkpt lat="43.17737" lon="5.5784">
        <ele>263.1</ele>
        <time>2021-01-13T09:50:27Z</time>
      </trkpt>
      <trkpt lat="43.17734" lon="5.57832">
        <ele>263.1</ele>
        <time>2021-01-13T09:50:35Z</time>
      </trkpt>
      <trkpt lat="43.17734" lon="5.57824">
        <ele>262.2</ele>
        <time>2021-01-13T09:50:45Z</time>
      </trkpt>
      <trkpt lat="43.17732" lon="5.57818">
        <ele>261.2</ele>
        <time>2021-01-13T09:50:53Z</time>
      </trkpt>
      <trkpt lat="43.17733" lon="5.57812">
        <ele>260.8</ele>
        <time>2021-01-13T09:51:01Z</time>
      </trkpt>
      <trkpt lat="43.17735" lon="5.57806">
        <ele>260.7</ele>
        <time>2021-01-13T09:51:09Z</time>
      </trkpt>
      <trkpt lat="43.17738" lon="5.578">
        <ele>260.9</ele>
        <time>2021-01-13T09:51:19Z</time>
      </trkpt>
      <trkpt lat="43.17742" lon="5.57796">
        <ele>261.6</ele>
        <time>2021-01-13T09:51:27Z</time>
      </trkpt>
      <trkpt lat="43.17746" lon="5.57793">
        <ele>262.6</ele>
        <time>2021-01-13T09:52:03Z</time>
      </trkpt>
      <trkpt lat="43.17753" lon="5.57793">
        <ele>264.5</ele>
        <time>2021-01-13T09:52:09Z</time>
      </trkpt>
      <trkpt lat="43.17758" lon="5.57788">
        <ele>266</ele>
        <time>2021-01-13T09:52:17Z</time>
      </trkpt>
      <trkpt lat="43.17762" lon="5.57783">
        <ele>267.1</ele>
        <time>2021-01-13T09:52:25Z</time>
      </trkpt>
      <trkpt lat="43.17766" lon="5.57778">
        <ele>268.5</ele>
        <time>2021-01-13T09:52:33Z</time>
      </trkpt>
      <trkpt lat="43.17771" lon="5.57774">
        <ele>269.8</ele>
        <time>2021-01-13T09:52:39Z</time>
      </trkpt>
      <trkpt lat="43.17774" lon="5.57771">
        <ele>271</ele>
        <time>2021-01-13T09:52:45Z</time>
      </trkpt>
      <trkpt lat="43.17779" lon="5.57767">
        <ele>272.4</ele>
        <time>2021-01-13T09:52:51Z</time>
      </trkpt>
      <trkpt lat="43.17782" lon="5.57761">
        <ele>273.4</ele>
        <time>2021-01-13T09:52:57Z</time>
      </trkpt>
      <trkpt lat="43.17785" lon="5.57755">
        <ele>274.1</ele>
        <time>2021-01-13T09:53:03Z</time>
      </trkpt>
      <trkpt lat="43.17788" lon="5.5775">
        <ele>275.1</ele>
        <time>2021-01-13T09:53:09Z</time>
      </trkpt>
      <trkpt lat="43.17791" lon="5.57745">
        <ele>275.9</ele>
        <time>2021-01-13T09:53:15Z</time>
      </trkpt>
      <trkpt lat="43.17794" lon="5.5774">
        <ele>276.8</ele>
        <time>2021-01-13T09:55:27Z</time>
      </trkpt>
      <trkpt lat="43.17798" lon="5.57732">
        <ele>277.5</ele>
        <time>2021-01-13T09:55:51Z</time>
      </trkpt>
      <trkpt lat="43.17801" lon="5.57725">
        <ele>278.2</ele>
        <time>2021-01-13T09:55:59Z</time>
      </trkpt>
      <trkpt lat="43.17804" lon="5.5772">
        <ele>279.1</ele>
        <time>2021-01-13T09:56:05Z</time>
      </trkpt>
      <trkpt lat="43.17807" lon="5.57714">
        <ele>280.1</ele>
        <time>2021-01-13T09:56:11Z</time>
      </trkpt>
      <trkpt lat="43.17811" lon="5.57709">
        <ele>281.1</ele>
        <time>2021-01-13T09:56:17Z</time>
      </trkpt>
      <trkpt lat="43.17812" lon="5.57702">
        <ele>281.3</ele>
        <time>2021-01-13T09:56:23Z</time>
      </trkpt>
      <trkpt lat="43.17814" lon="5.57696">
        <ele>281.8</ele>
        <time>2021-01-13T09:56:31Z</time>
      </trkpt>
      <trkpt lat="43.17816" lon="5.57689">
        <ele>282.1</ele>
        <time>2021-01-13T09:56:39Z</time>
      </trkpt>
      <trkpt lat="43.17818" lon="5.57683">
        <ele>282.4</ele>
        <time>2021-01-13T09:56:45Z</time>
      </trkpt>
      <trkpt lat="43.17818" lon="5.57676">
        <ele>282.2</ele>
        <time>2021-01-13T09:56:51Z</time>
      </trkpt>
      <trkpt lat="43.1782" lon="5.5767">
        <ele>282.3</ele>
        <time>2021-01-13T09:56:57Z</time>
      </trkpt>
      <trkpt lat="43.1782" lon="5.57663">
        <ele>282.3</ele>
        <time>2021-01-13T09:57:03Z</time>
      </trkpt>
      <trkpt lat="43.17822" lon="5.57656">
        <ele>283</ele>
        <time>2021-01-13T09:57:09Z</time>
      </trkpt>
      <trkpt lat="43.17824" lon="5.5765">
        <ele>284</ele>
        <time>2021-01-13T09:57:15Z</time>
      </trkpt>
      <trkpt lat="43.17826" lon="5.57645">
        <ele>284.9</ele>
        <time>2021-01-13T09:57:21Z</time>
      </trkpt>
      <trkpt lat="43.17828" lon="5.57637">
        <ele>285.6</ele>
        <time>2021-01-13T09:57:27Z</time>
      </trkpt>
      <trkpt lat="43.17829" lon="5.5763">
        <ele>286</ele>
        <time>2021-01-13T09:57:35Z</time>
      </trkpt>
      <trkpt lat="43.17829" lon="5.57623">
        <ele>285.9</ele>
        <time>2021-01-13T09:57:41Z</time>
      </trkpt>
      <trkpt lat="43.17829" lon="5.57614">
        <ele>285.7</ele>
        <time>2021-01-13T09:57:47Z</time>
      </trkpt>
      <trkpt lat="43.1783" lon="5.57607">
        <ele>286</ele>
        <time>2021-01-13T09:57:53Z</time>
      </trkpt>
      <trkpt lat="43.17832" lon="5.57602">
        <ele>286.7</ele>
        <time>2021-01-13T09:57:59Z</time>
      </trkpt>
      <trkpt lat="43.17832" lon="5.57595">
        <ele>286.8</ele>
        <time>2021-01-13T09:58:05Z</time>
      </trkpt>
      <trkpt lat="43.17832" lon="5.57588">
        <ele>286.5</ele>
        <time>2021-01-13T09:58:11Z</time>
      </trkpt>
      <trkpt lat="43.17832" lon="5.5758">
        <ele>286.7</ele>
        <time>2021-01-13T09:58:19Z</time>
      </trkpt>
      <trkpt lat="43.17831" lon="5.57572">
        <ele>287.4</ele>
        <time>2021-01-13T09:58:27Z</time>
      </trkpt>
      <trkpt lat="43.1783" lon="5.57566">
        <ele>287.9</ele>
        <time>2021-01-13T09:58:33Z</time>
      </trkpt>
      <trkpt lat="43.17831" lon="5.57558">
        <ele>288.9</ele>
        <time>2021-01-13T09:58:41Z</time>
      </trkpt>
      <trkpt lat="43.17831" lon="5.57552">
        <ele>289.6</ele>
        <time>2021-01-13T09:58:47Z</time>
      </trkpt>
      <trkpt lat="43.1783" lon="5.57545">
        <ele>290.2</ele>
        <time>2021-01-13T09:58:53Z</time>
      </trkpt>
      <trkpt lat="43.1783" lon="5.57539">
        <ele>291</ele>
        <time>2021-01-13T09:59:01Z</time>
      </trkpt>
      <trkpt lat="43.17831" lon="5.57532">
        <ele>291.9</ele>
        <time>2021-01-13T09:59:09Z</time>
      </trkpt>
      <trkpt lat="43.17831" lon="5.57526">
        <ele>292.6</ele>
        <time>2021-01-13T09:59:15Z</time>
      </trkpt>
      <trkpt lat="43.1783" lon="5.57518">
        <ele>293.2</ele>
        <time>2021-01-13T09:59:25Z</time>
      </trkpt>
      <trkpt lat="43.17829" lon="5.57511">
        <ele>293.8</ele>
        <time>2021-01-13T09:59:31Z</time>
      </trkpt>
      <trkpt lat="43.17827" lon="5.57504">
        <ele>294.4</ele>
        <time>2021-01-13T09:59:37Z</time>
      </trkpt>
      <trkpt lat="43.17826" lon="5.57498">
        <ele>295.1</ele>
        <time>2021-01-13T09:59:43Z</time>
      </trkpt>
      <trkpt lat="43.17825" lon="5.57491">
        <ele>296.4</ele>
        <time>2021-01-13T09:59:49Z</time>
      </trkpt>
      <trkpt lat="43.17823" lon="5.57484">
        <ele>297.3</ele>
        <time>2021-01-13T09:59:55Z</time>
      </trkpt>
      <trkpt lat="43.1782" lon="5.57479">
        <ele>298</ele>
        <time>2021-01-13T10:00:01Z</time>
      </trkpt>
      <trkpt lat="43.17817" lon="5.57473">
        <ele>298.6</ele>
        <time>2021-01-13T10:00:07Z</time>
      </trkpt>
      <trkpt lat="43.17813" lon="5.57468">
        <ele>299.1</ele>
        <time>2021-01-13T10:00:15Z</time>
      </trkpt>
      <trkpt lat="43.17809" lon="5.57463">
        <ele>299.6</ele>
        <time>2021-01-13T10:00:23Z</time>
      </trkpt>
      <trkpt lat="43.17806" lon="5.57457">
        <ele>300.3</ele>
        <time>2021-01-13T10:00:31Z</time>
      </trkpt>
      <trkpt lat="43.17802" lon="5.57451">
        <ele>301.1</ele>
        <time>2021-01-13T10:00:39Z</time>
      </trkpt>
      <trkpt lat="43.17799" lon="5.57447">
        <ele>301.5</ele>
        <time>2021-01-13T10:00:45Z</time>
      </trkpt>
      <trkpt lat="43.17794" lon="5.57442">
        <ele>302.1</ele>
        <time>2021-01-13T10:00:53Z</time>
      </trkpt>
      <trkpt lat="43.17791" lon="5.57437">
        <ele>302.7</ele>
        <time>2021-01-13T10:00:59Z</time>
      </trkpt>
      <trkpt lat="43.17789" lon="5.5743">
        <ele>303.9</ele>
        <time>2021-01-13T10:01:07Z</time>
      </trkpt>
      <trkpt lat="43.17785" lon="5.57425">
        <ele>304.6</ele>
        <time>2021-01-13T10:01:17Z</time>
      </trkpt>
      <trkpt lat="43.1778" lon="5.57421">
        <ele>304.9</ele>
        <time>2021-01-13T10:01:25Z</time>
      </trkpt>
      <trkpt lat="43.17777" lon="5.57418">
        <ele>305.3</ele>
        <time>2021-01-13T10:01:31Z</time>
      </trkpt>
      <trkpt lat="43.17773" lon="5.57414">
        <ele>305.5</ele>
        <time>2021-01-13T10:01:37Z</time>
      </trkpt>
      <trkpt lat="43.1777" lon="5.5741">
        <ele>306</ele>
        <time>2021-01-13T10:01:45Z</time>
      </trkpt>
      <trkpt lat="43.17764" lon="5.57406">
        <ele>306.1</ele>
        <time>2021-01-13T10:01:53Z</time>
      </trkpt>
      <trkpt lat="43.17761" lon="5.57402">
        <ele>306.4</ele>
        <time>2021-01-13T10:02:01Z</time>
      </trkpt>
      <trkpt lat="43.17757" lon="5.57398">
        <ele>306.8</ele>
        <time>2021-01-13T10:02:11Z</time>
      </trkpt>
      <trkpt lat="43.17753" lon="5.57396">
        <ele>306.8</ele>
        <time>2021-01-13T10:02:17Z</time>
      </trkpt>
      <trkpt lat="43.17748" lon="5.57392">
        <ele>307.2</ele>
        <time>2021-01-13T10:02:25Z</time>
      </trkpt>
      <trkpt lat="43.17743" lon="5.5739">
        <ele>307.8</ele>
        <time>2021-01-13T10:02:33Z</time>
      </trkpt>
      <trkpt lat="43.17739" lon="5.57386">
        <ele>308.3</ele>
        <time>2021-01-13T10:02:39Z</time>
      </trkpt>
      <trkpt lat="43.17734" lon="5.57382">
        <ele>309.1</ele>
        <time>2021-01-13T10:02:47Z</time>
      </trkpt>
      <trkpt lat="43.1773" lon="5.57379">
        <ele>309.6</ele>
        <time>2021-01-13T10:02:55Z</time>
      </trkpt>
      <trkpt lat="43.17725" lon="5.57376">
        <ele>310</ele>
        <time>2021-01-13T10:03:05Z</time>
      </trkpt>
      <trkpt lat="43.1772" lon="5.57373">
        <ele>310.3</ele>
        <time>2021-01-13T10:03:13Z</time>
      </trkpt>
      <trkpt lat="43.17715" lon="5.57369">
        <ele>310.7</ele>
        <time>2021-01-13T10:03:21Z</time>
      </trkpt>
      <trkpt lat="43.17711" lon="5.57366">
        <ele>311.1</ele>
        <time>2021-01-13T10:03:27Z</time>
      </trkpt>
      <trkpt lat="43.17706" lon="5.57364">
        <ele>311.1</ele>
        <time>2021-01-13T10:03:33Z</time>
      </trkpt>
      <trkpt lat="43.17701" lon="5.57362">
        <ele>311.1</ele>
        <time>2021-01-13T10:03:39Z</time>
      </trkpt>
      <trkpt lat="43.17696" lon="5.5736">
        <ele>311.1</ele>
        <time>2021-01-13T10:03:47Z</time>
      </trkpt>
      <trkpt lat="43.17693" lon="5.57355">
        <ele>311.7</ele>
        <time>2021-01-13T10:03:55Z</time>
      </trkpt>
      <trkpt lat="43.17694" lon="5.57348">
        <ele>312.6</ele>
        <time>2021-01-13T10:04:03Z</time>
      </trkpt>
      <trkpt lat="43.17691" lon="5.57344">
        <ele>312.9</ele>
        <time>2021-01-13T10:04:13Z</time>
      </trkpt>
      <trkpt lat="43.17688" lon="5.57337">
        <ele>313.5</ele>
        <time>2021-01-13T10:04:27Z</time>
      </trkpt>
      <trkpt lat="43.17689" lon="5.57331">
        <ele>313.8</ele>
        <time>2021-01-13T10:07:27Z</time>
      </trkpt>
      <trkpt lat="43.17694" lon="5.57328">
        <ele>314</ele>
        <time>2021-01-13T10:07:33Z</time>
      </trkpt>
      <trkpt lat="43.17699" lon="5.57324">
        <ele>314.1</ele>
        <time>2021-01-13T10:07:41Z</time>
      </trkpt>
      <trkpt lat="43.17703" lon="5.5732">
        <ele>314</ele>
        <time>2021-01-13T10:07:49Z</time>
      </trkpt>
      <trkpt lat="43.17704" lon="5.57313">
        <ele>313.6</ele>
        <time>2021-01-13T10:07:55Z</time>
      </trkpt>
      <trkpt lat="43.17704" lon="5.57307">
        <ele>312.9</ele>
        <time>2021-01-13T10:08:01Z</time>
      </trkpt>
      <trkpt lat="43.17706" lon="5.57301">
        <ele>312.6</ele>
        <time>2021-01-13T10:08:07Z</time>
      </trkpt>
      <trkpt lat="43.17709" lon="5.57293">
        <ele>312.3</ele>
        <time>2021-01-13T10:08:15Z</time>
      </trkpt>
      <trkpt lat="43.17712" lon="5.57287">
        <ele>312.2</ele>
        <time>2021-01-13T10:08:21Z</time>
      </trkpt>
      <trkpt lat="43.17713" lon="5.57281">
        <ele>311.9</ele>
        <time>2021-01-13T10:08:27Z</time>
      </trkpt>
      <trkpt lat="43.17715" lon="5.57274">
        <ele>311.6</ele>
        <time>2021-01-13T10:08:35Z</time>
      </trkpt>
      <trkpt lat="43.17716" lon="5.57266">
        <ele>311.2</ele>
        <time>2021-01-13T10:08:45Z</time>
      </trkpt>
      <trkpt lat="43.17717" lon="5.5726">
        <ele>310.9</ele>
        <time>2021-01-13T10:08:51Z</time>
      </trkpt>
      <trkpt lat="43.17718" lon="5.57252">
        <ele>310.4</ele>
        <time>2021-01-13T10:08:59Z</time>
      </trkpt>
      <trkpt lat="43.17719" lon="5.57245">
        <ele>309.5</ele>
        <time>2021-01-13T10:09:07Z</time>
      </trkpt>
      <trkpt lat="43.17721" lon="5.57239">
        <ele>308.3</ele>
        <time>2021-01-13T10:09:15Z</time>
      </trkpt>
      <trkpt lat="43.1772" lon="5.57232">
        <ele>306.7</ele>
        <time>2021-01-13T10:09:21Z</time>
      </trkpt>
      <trkpt lat="43.17722" lon="5.57224">
        <ele>305.1</ele>
        <time>2021-01-13T10:09:27Z</time>
      </trkpt>
      <trkpt lat="43.17723" lon="5.57217">
        <ele>303.8</ele>
        <time>2021-01-13T10:09:33Z</time>
      </trkpt>
      <trkpt lat="43.17723" lon="5.57211">
        <ele>302.5</ele>
        <time>2021-01-13T10:09:39Z</time>
      </trkpt>
      <trkpt lat="43.17724" lon="5.57203">
        <ele>301</ele>
        <time>2021-01-13T10:09:45Z</time>
      </trkpt>
      <trkpt lat="43.17724" lon="5.57197">
        <ele>299.8</ele>
        <time>2021-01-13T10:10:07Z</time>
      </trkpt>
      <trkpt lat="43.17725" lon="5.57191">
        <ele>298.7</ele>
        <time>2021-01-13T10:10:23Z</time>
      </trkpt>
      <trkpt lat="43.17729" lon="5.57188">
        <ele>299.2</ele>
        <time>2021-01-13T10:10:45Z</time>
      </trkpt>
      <trkpt lat="43.17734" lon="5.57183">
        <ele>300.2</ele>
        <time>2021-01-13T10:10:55Z</time>
      </trkpt>
      <trkpt lat="43.17739" lon="5.57181">
        <ele>301.7</ele>
        <time>2021-01-13T10:11:03Z</time>
      </trkpt>
      <trkpt lat="43.17744" lon="5.57179">
        <ele>303.1</ele>
        <time>2021-01-13T10:11:13Z</time>
      </trkpt>
      <trkpt lat="43.1775" lon="5.57177">
        <ele>304.8</ele>
        <time>2021-01-13T10:11:19Z</time>
      </trkpt>
      <trkpt lat="43.17755" lon="5.57176">
        <ele>304.5</ele>
        <time>2021-01-13T10:11:25Z</time>
      </trkpt>
      <trkpt lat="43.17761" lon="5.57176">
        <ele>304.3</ele>
        <time>2021-01-13T10:11:31Z</time>
      </trkpt>
      <trkpt lat="43.17767" lon="5.57176">
        <ele>304.1</ele>
        <time>2021-01-13T10:11:37Z</time>
      </trkpt>
      <trkpt lat="43.17772" lon="5.57175">
        <ele>303.8</ele>
        <time>2021-01-13T10:11:43Z</time>
      </trkpt>
      <trkpt lat="43.17777" lon="5.57173">
        <ele>303.4</ele>
        <time>2021-01-13T10:11:51Z</time>
      </trkpt>
      <trkpt lat="43.17781" lon="5.57173">
        <ele>303.1</ele>
        <time>2021-01-13T10:11:57Z</time>
      </trkpt>
      <trkpt lat="43.17787" lon="5.57172">
        <ele>302.7</ele>
        <time>2021-01-13T10:12:03Z</time>
      </trkpt>
      <trkpt lat="43.17792" lon="5.57171">
        <ele>302.4</ele>
        <time>2021-01-13T10:12:09Z</time>
      </trkpt>
      <trkpt lat="43.17797" lon="5.5717">
        <ele>302.1</ele>
        <time>2021-01-13T10:12:15Z</time>
      </trkpt>
      <trkpt lat="43.17803" lon="5.5717">
        <ele>301.7</ele>
        <time>2021-01-13T10:12:21Z</time>
      </trkpt>
      <trkpt lat="43.17807" lon="5.57167">
        <ele>301</ele>
        <time>2021-01-13T10:12:27Z</time>
      </trkpt>
      <trkpt lat="43.17813" lon="5.57166">
        <ele>300.5</ele>
        <time>2021-01-13T10:12:33Z</time>
      </trkpt>
      <trkpt lat="43.17817" lon="5.57165">
        <ele>300.1</ele>
        <time>2021-01-13T10:12:39Z</time>
      </trkpt>
      <trkpt lat="43.17822" lon="5.57165">
        <ele>299.8</ele>
        <time>2021-01-13T10:12:45Z</time>
      </trkpt>
      <trkpt lat="43.17828" lon="5.57165">
        <ele>299.7</ele>
        <time>2021-01-13T10:12:51Z</time>
      </trkpt>
      <trkpt lat="43.17833" lon="5.57166">
        <ele>299.7</ele>
        <time>2021-01-13T10:12:57Z</time>
      </trkpt>
      <trkpt lat="43.17839" lon="5.57167">
        <ele>300.4</ele>
        <time>2021-01-13T10:13:03Z</time>
      </trkpt>
      <trkpt lat="43.17844" lon="5.57166">
        <ele>300.5</ele>
        <time>2021-01-13T10:13:09Z</time>
      </trkpt>
      <trkpt lat="43.17849" lon="5.57164">
        <ele>300.2</ele>
        <time>2021-01-13T10:13:15Z</time>
      </trkpt>
      <trkpt lat="43.17854" lon="5.57162">
        <ele>300.2</ele>
        <time>2021-01-13T10:13:19Z</time>
      </trkpt>
      <trkpt lat="43.1786" lon="5.57159">
        <ele>300</ele>
        <time>2021-01-13T10:13:25Z</time>
      </trkpt>
      <trkpt lat="43.17865" lon="5.57157">
        <ele>299.8</ele>
        <time>2021-01-13T10:13:31Z</time>
      </trkpt>
      <trkpt lat="43.17871" lon="5.57154">
        <ele>299.7</ele>
        <time>2021-01-13T10:13:37Z</time>
      </trkpt>
      <trkpt lat="43.17876" lon="5.57152">
        <ele>299.9</ele>
        <time>2021-01-13T10:13:43Z</time>
      </trkpt>
      <trkpt lat="43.17882" lon="5.5715">
        <ele>300.1</ele>
        <time>2021-01-13T10:13:49Z</time>
      </trkpt>
      <trkpt lat="43.17887" lon="5.57148">
        <ele>300.3</ele>
        <time>2021-01-13T10:13:55Z</time>
      </trkpt>
      <trkpt lat="43.17891" lon="5.57144">
        <ele>300.2</ele>
        <time>2021-01-13T10:14:01Z</time>
      </trkpt>
      <trkpt lat="43.17896" lon="5.57141">
        <ele>300.5</ele>
        <time>2021-01-13T10:14:09Z</time>
      </trkpt>
      <trkpt lat="43.17901" lon="5.57138">
        <ele>300.9</ele>
        <time>2021-01-13T10:14:15Z</time>
      </trkpt>
      <trkpt lat="43.17907" lon="5.57137">
        <ele>301.5</ele>
        <time>2021-01-13T10:14:21Z</time>
      </trkpt>
      <trkpt lat="43.17913" lon="5.57135">
        <ele>302.2</ele>
        <time>2021-01-13T10:14:27Z</time>
      </trkpt>
      <trkpt lat="43.17917" lon="5.57131">
        <ele>302.6</ele>
        <time>2021-01-13T10:14:33Z</time>
      </trkpt>
      <trkpt lat="43.17919" lon="5.57123">
        <ele>302.3</ele>
        <time>2021-01-13T10:14:39Z</time>
      </trkpt>
      <trkpt lat="43.17918" lon="5.57115">
        <ele>301.5</ele>
        <time>2021-01-13T10:14:45Z</time>
      </trkpt>
      <trkpt lat="43.17915" lon="5.5711">
        <ele>300.6</ele>
        <time>2021-01-13T10:14:51Z</time>
      </trkpt>
      <trkpt lat="43.17913" lon="5.57104">
        <ele>299.7</ele>
        <time>2021-01-13T10:14:57Z</time>
      </trkpt>
      <trkpt lat="43.17912" lon="5.57098">
        <ele>298.9</ele>
        <time>2021-01-13T10:15:07Z</time>
      </trkpt>
      <trkpt lat="43.17908" lon="5.57094">
        <ele>297.6</ele>
        <time>2021-01-13T10:15:25Z</time>
      </trkpt>
      <trkpt lat="43.1791" lon="5.57088">
        <ele>297.5</ele>
        <time>2021-01-13T10:26:45Z</time>
      </trkpt>
      <trkpt lat="43.17908" lon="5.57081">
        <ele>296.6</ele>
        <time>2021-01-13T10:26:53Z</time>
      </trkpt>
      <trkpt lat="43.17907" lon="5.57074">
        <ele>296.7</ele>
        <time>2021-01-13T10:27:03Z</time>
      </trkpt>
      <trkpt lat="43.17907" lon="5.57068">
        <ele>296.8</ele>
        <time>2021-01-13T10:27:09Z</time>
      </trkpt>
      <trkpt lat="43.17907" lon="5.57061">
        <ele>297.2</ele>
        <time>2021-01-13T10:27:17Z</time>
      </trkpt>
      <trkpt lat="43.17907" lon="5.57055">
        <ele>297.4</ele>
        <time>2021-01-13T10:27:25Z</time>
      </trkpt>
      <trkpt lat="43.17906" lon="5.57048">
        <ele>297.6</ele>
        <time>2021-01-13T10:27:33Z</time>
      </trkpt>
      <trkpt lat="43.17905" lon="5.57041">
        <ele>297.4</ele>
        <time>2021-01-13T10:27:43Z</time>
      </trkpt>
      <trkpt lat="43.17905" lon="5.57033">
        <ele>297.7</ele>
        <time>2021-01-13T10:27:51Z</time>
      </trkpt>
      <trkpt lat="43.17906" lon="5.57026">
        <ele>298.4</ele>
        <time>2021-01-13T10:27:59Z</time>
      </trkpt>
      <trkpt lat="43.17907" lon="5.5702">
        <ele>298.9</ele>
        <time>2021-01-13T10:28:07Z</time>
      </trkpt>
      <trkpt lat="43.17907" lon="5.57013">
        <ele>299.3</ele>
        <time>2021-01-13T10:28:15Z</time>
      </trkpt>
      <trkpt lat="43.17909" lon="5.57006">
        <ele>300.3</ele>
        <time>2021-01-13T10:28:25Z</time>
      </trkpt>
      <trkpt lat="43.17911" lon="5.56999">
        <ele>301.5</ele>
        <time>2021-01-13T10:28:33Z</time>
      </trkpt>
      <trkpt lat="43.17911" lon="5.56992">
        <ele>300.8</ele>
        <time>2021-01-13T10:28:43Z</time>
      </trkpt>
      <trkpt lat="43.17914" lon="5.56986">
        <ele>301.4</ele>
        <time>2021-01-13T10:28:51Z</time>
      </trkpt>
      <trkpt lat="43.17919" lon="5.56981">
        <ele>302.5</ele>
        <time>2021-01-13T10:28:59Z</time>
      </trkpt>
      <trkpt lat="43.17922" lon="5.56976">
        <ele>302.7</ele>
        <time>2021-01-13T10:29:07Z</time>
      </trkpt>
      <trkpt lat="43.17928" lon="5.56977">
        <ele>304.2</ele>
        <time>2021-01-13T10:29:39Z</time>
      </trkpt>
      <trkpt lat="43.17933" lon="5.56978">
        <ele>305.3</ele>
        <time>2021-01-13T10:29:49Z</time>
      </trkpt>
      <trkpt lat="43.17937" lon="5.56976">
        <ele>306.2</ele>
        <time>2021-01-13T10:29:57Z</time>
      </trkpt>
      <trkpt lat="43.17943" lon="5.56975">
        <ele>307.4</ele>
        <time>2021-01-13T10:30:07Z</time>
      </trkpt>
      <trkpt lat="43.17948" lon="5.56976">
        <ele>308.6</ele>
        <time>2021-01-13T10:30:13Z</time>
      </trkpt>
      <trkpt lat="43.17954" lon="5.56974">
        <ele>309.7</ele>
        <time>2021-01-13T10:30:25Z</time>
      </trkpt>
      <trkpt lat="43.17959" lon="5.56972">
        <ele>310.7</ele>
        <time>2021-01-13T10:30:31Z</time>
      </trkpt>
      <trkpt lat="43.17965" lon="5.5697">
        <ele>311.9</ele>
        <time>2021-01-13T10:30:39Z</time>
      </trkpt>
      <trkpt lat="43.1797" lon="5.56968">
        <ele>313</ele>
        <time>2021-01-13T10:30:47Z</time>
      </trkpt>
      <trkpt lat="43.17975" lon="5.56965">
        <ele>313.8</ele>
        <time>2021-01-13T10:30:55Z</time>
      </trkpt>
      <trkpt lat="43.17981" lon="5.56964">
        <ele>315.1</ele>
        <time>2021-01-13T10:31:03Z</time>
      </trkpt>
      <trkpt lat="43.17986" lon="5.56967">
        <ele>316.5</ele>
        <time>2021-01-13T10:31:09Z</time>
      </trkpt>
      <trkpt lat="43.17989" lon="5.56972">
        <ele>317.8</ele>
        <time>2021-01-13T10:31:19Z</time>
      </trkpt>
      <trkpt lat="43.17994" lon="5.56971">
        <ele>318.9</ele>
        <time>2021-01-13T10:31:35Z</time>
      </trkpt>
      <trkpt lat="43.17998" lon="5.56966">
        <ele>319.4</ele>
        <time>2021-01-13T10:31:41Z</time>
      </trkpt>
      <trkpt lat="43.18002" lon="5.56961">
        <ele>319.7</ele>
        <time>2021-01-13T10:31:47Z</time>
      </trkpt>
      <trkpt lat="43.18005" lon="5.56956">
        <ele>320.2</ele>
        <time>2021-01-13T10:31:53Z</time>
      </trkpt>
      <trkpt lat="43.1801" lon="5.56951">
        <ele>320.9</ele>
        <time>2021-01-13T10:32:01Z</time>
      </trkpt>
      <trkpt lat="43.18013" lon="5.56946">
        <ele>321.4</ele>
        <time>2021-01-13T10:32:07Z</time>
      </trkpt>
      <trkpt lat="43.18016" lon="5.56941">
        <ele>321.9</ele>
        <time>2021-01-13T10:32:13Z</time>
      </trkpt>
      <trkpt lat="43.18019" lon="5.56935">
        <ele>322.4</ele>
        <time>2021-01-13T10:32:19Z</time>
      </trkpt>
      <trkpt lat="43.18023" lon="5.56929">
        <ele>323</ele>
        <time>2021-01-13T10:32:25Z</time>
      </trkpt>
      <trkpt lat="43.18026" lon="5.56924">
        <ele>323.7</ele>
        <time>2021-01-13T10:32:31Z</time>
      </trkpt>
      <trkpt lat="43.1803" lon="5.56919">
        <ele>324.4</ele>
        <time>2021-01-13T10:32:37Z</time>
      </trkpt>
      <trkpt lat="43.18032" lon="5.56915">
        <ele>324.8</ele>
        <time>2021-01-13T10:32:43Z</time>
      </trkpt>
      <trkpt lat="43.18036" lon="5.56909">
        <ele>325.1</ele>
        <time>2021-01-13T10:32:51Z</time>
      </trkpt>
      <trkpt lat="43.1804" lon="5.56904">
        <ele>325.5</ele>
        <time>2021-01-13T10:32:59Z</time>
      </trkpt>
      <trkpt lat="43.18044" lon="5.56899">
        <ele>325.9</ele>
        <time>2021-01-13T10:33:07Z</time>
      </trkpt>
      <trkpt lat="43.18048" lon="5.56894">
        <ele>326.5</ele>
        <time>2021-01-13T10:33:15Z</time>
      </trkpt>
      <trkpt lat="43.18051" lon="5.56888">
        <ele>326.7</ele>
        <time>2021-01-13T10:33:21Z</time>
      </trkpt>
      <trkpt lat="43.18055" lon="5.56884">
        <ele>327.4</ele>
        <time>2021-01-13T10:33:27Z</time>
      </trkpt>
      <trkpt lat="43.1806" lon="5.56878">
        <ele>328.2</ele>
        <time>2021-01-13T10:33:35Z</time>
      </trkpt>
      <trkpt lat="43.18063" lon="5.56873">
        <ele>328.6</ele>
        <time>2021-01-13T10:33:45Z</time>
      </trkpt>
      <trkpt lat="43.18068" lon="5.56867">
        <ele>329.4</ele>
        <time>2021-01-13T10:33:53Z</time>
      </trkpt>
      <trkpt lat="43.18072" lon="5.56862">
        <ele>330.4</ele>
        <time>2021-01-13T10:34:01Z</time>
      </trkpt>
      <trkpt lat="43.18077" lon="5.56857">
        <ele>331.4</ele>
        <time>2021-01-13T10:34:09Z</time>
      </trkpt>
      <trkpt lat="43.1808" lon="5.56851">
        <ele>331.8</ele>
        <time>2021-01-13T10:34:17Z</time>
      </trkpt>
      <trkpt lat="43.18083" lon="5.56845">
        <ele>332.2</ele>
        <time>2021-01-13T10:34:23Z</time>
      </trkpt>
      <trkpt lat="43.18087" lon="5.56838">
        <ele>332.3</ele>
        <time>2021-01-13T10:34:31Z</time>
      </trkpt>
      <trkpt lat="43.1809" lon="5.56832">
        <ele>332.4</ele>
        <time>2021-01-13T10:34:39Z</time>
      </trkpt>
      <trkpt lat="43.18093" lon="5.56827">
        <ele>333.4</ele>
        <time>2021-01-13T10:34:47Z</time>
      </trkpt>
      <trkpt lat="43.18097" lon="5.56822">
        <ele>334.4</ele>
        <time>2021-01-13T10:34:55Z</time>
      </trkpt>
      <trkpt lat="43.18099" lon="5.56815">
        <ele>335.1</ele>
        <time>2021-01-13T10:35:03Z</time>
      </trkpt>
      <trkpt lat="43.18102" lon="5.56808">
        <ele>336.1</ele>
        <time>2021-01-13T10:35:11Z</time>
      </trkpt>
      <trkpt lat="43.18104" lon="5.56802">
        <ele>336.9</ele>
        <time>2021-01-13T10:35:19Z</time>
      </trkpt>
      <trkpt lat="43.18106" lon="5.56796">
        <ele>337.7</ele>
        <time>2021-01-13T10:35:27Z</time>
      </trkpt>
      <trkpt lat="43.18108" lon="5.56789">
        <ele>338.8</ele>
        <time>2021-01-13T10:35:35Z</time>
      </trkpt>
      <trkpt lat="43.1811" lon="5.56782">
        <ele>339.7</ele>
        <time>2021-01-13T10:35:43Z</time>
      </trkpt>
      <trkpt lat="43.18112" lon="5.56776">
        <ele>340.4</ele>
        <time>2021-01-13T10:35:49Z</time>
      </trkpt>
      <trkpt lat="43.18112" lon="5.56769">
        <ele>340.8</ele>
        <time>2021-01-13T10:35:55Z</time>
      </trkpt>
      <trkpt lat="43.18113" lon="5.56763">
        <ele>341.6</ele>
        <time>2021-01-13T10:36:01Z</time>
      </trkpt>
      <trkpt lat="43.18115" lon="5.56757">
        <ele>342.5</ele>
        <time>2021-01-13T10:36:09Z</time>
      </trkpt>
      <trkpt lat="43.18117" lon="5.5675">
        <ele>343.5</ele>
        <time>2021-01-13T10:36:17Z</time>
      </trkpt>
      <trkpt lat="43.18118" lon="5.56743">
        <ele>344.4</ele>
        <time>2021-01-13T10:36:25Z</time>
      </trkpt>
      <trkpt lat="43.18118" lon="5.56735">
        <ele>345.2</ele>
        <time>2021-01-13T10:36:33Z</time>
      </trkpt>
      <trkpt lat="43.18118" lon="5.56729">
        <ele>345.9</ele>
        <time>2021-01-13T10:36:39Z</time>
      </trkpt>
      <trkpt lat="43.18119" lon="5.56722">
        <ele>346.9</ele>
        <time>2021-01-13T10:36:47Z</time>
      </trkpt>
      <trkpt lat="43.18121" lon="5.56715">
        <ele>348.2</ele>
        <time>2021-01-13T10:36:55Z</time>
      </trkpt>
      <trkpt lat="43.18124" lon="5.56708">
        <ele>349.6</ele>
        <time>2021-01-13T10:37:05Z</time>
      </trkpt>
      <trkpt lat="43.18126" lon="5.56703">
        <ele>350.9</ele>
        <time>2021-01-13T10:37:11Z</time>
      </trkpt>
      <trkpt lat="43.18127" lon="5.56696">
        <ele>351.9</ele>
        <time>2021-01-13T10:37:19Z</time>
      </trkpt>
      <trkpt lat="43.18128" lon="5.56688">
        <ele>352.7</ele>
        <time>2021-01-13T10:37:27Z</time>
      </trkpt>
      <trkpt lat="43.18128" lon="5.56681">
        <ele>353.6</ele>
        <time>2021-01-13T10:37:35Z</time>
      </trkpt>
      <trkpt lat="43.18128" lon="5.56673">
        <ele>354.3</ele>
        <time>2021-01-13T10:37:43Z</time>
      </trkpt>
      <trkpt lat="43.18131" lon="5.56666">
        <ele>355.5</ele>
        <time>2021-01-13T10:37:53Z</time>
      </trkpt>
      <trkpt lat="43.18133" lon="5.56659">
        <ele>356.3</ele>
        <time>2021-01-13T10:38:01Z</time>
      </trkpt>
      <trkpt lat="43.18135" lon="5.56653">
        <ele>357.1</ele>
        <time>2021-01-13T10:38:07Z</time>
      </trkpt>
      <trkpt lat="43.18136" lon="5.56646">
        <ele>357.6</ele>
        <time>2021-01-13T10:38:13Z</time>
      </trkpt>
      <trkpt lat="43.18137" lon="5.56639">
        <ele>358</ele>
        <time>2021-01-13T10:38:23Z</time>
      </trkpt>
      <trkpt lat="43.18137" lon="5.56631">
        <ele>358.2</ele>
        <time>2021-01-13T10:38:31Z</time>
      </trkpt>
      <trkpt lat="43.18138" lon="5.56625">
        <ele>358.7</ele>
        <time>2021-01-13T10:38:39Z</time>
      </trkpt>
      <trkpt lat="43.1814" lon="5.56618">
        <ele>359.3</ele>
        <time>2021-01-13T10:38:47Z</time>
      </trkpt>
      <trkpt lat="43.18144" lon="5.56612">
        <ele>359.9</ele>
        <time>2021-01-13T10:38:55Z</time>
      </trkpt>
      <trkpt lat="43.18147" lon="5.56608">
        <ele>360.4</ele>
        <time>2021-01-13T10:39:01Z</time>
      </trkpt>
      <trkpt lat="43.18152" lon="5.56606">
        <ele>361</ele>
        <time>2021-01-13T10:39:09Z</time>
      </trkpt>
      <trkpt lat="43.18157" lon="5.56605">
        <ele>361.5</ele>
        <time>2021-01-13T10:39:17Z</time>
      </trkpt>
      <trkpt lat="43.18162" lon="5.56605">
        <ele>362.2</ele>
        <time>2021-01-13T10:39:25Z</time>
      </trkpt>
      <trkpt lat="43.18166" lon="5.56607">
        <ele>362.8</ele>
        <time>2021-01-13T10:39:31Z</time>
      </trkpt>
      <trkpt lat="43.1817" lon="5.56611">
        <ele>363.6</ele>
        <time>2021-01-13T10:39:39Z</time>
      </trkpt>
      <trkpt lat="43.18175" lon="5.56611">
        <ele>364.4</ele>
        <time>2021-01-13T10:39:47Z</time>
      </trkpt>
      <trkpt lat="43.18179" lon="5.56616">
        <ele>365.2</ele>
        <time>2021-01-13T10:40:05Z</time>
      </trkpt>
      <trkpt lat="43.18179" lon="5.56623">
        <ele>365.4</ele>
        <time>2021-01-13T10:40:13Z</time>
      </trkpt>
      <trkpt lat="43.18179" lon="5.5663">
        <ele>365.7</ele>
        <time>2021-01-13T10:40:25Z</time>
      </trkpt>
      <trkpt lat="43.18184" lon="5.5663">
        <ele>366.5</ele>
        <time>2021-01-13T10:40:41Z</time>
      </trkpt>
      <trkpt lat="43.18188" lon="5.56627">
        <ele>367</ele>
        <time>2021-01-13T10:40:53Z</time>
      </trkpt>
      <trkpt lat="43.18193" lon="5.56626">
        <ele>367.8</ele>
        <time>2021-01-13T10:41:03Z</time>
      </trkpt>
      <trkpt lat="43.18198" lon="5.56627">
        <ele>368.7</ele>
        <time>2021-01-13T10:41:11Z</time>
      </trkpt>
      <trkpt lat="43.18203" lon="5.56626">
        <ele>369.4</ele>
        <time>2021-01-13T10:41:17Z</time>
      </trkpt>
      <trkpt lat="43.18208" lon="5.56626">
        <ele>370.3</ele>
        <time>2021-01-13T10:41:25Z</time>
      </trkpt>
      <trkpt lat="43.18213" lon="5.56626">
        <ele>371</ele>
        <time>2021-01-13T10:41:33Z</time>
      </trkpt>
      <trkpt lat="43.18218" lon="5.56624">
        <ele>371.8</ele>
        <time>2021-01-13T10:41:43Z</time>
      </trkpt>
      <trkpt lat="43.18223" lon="5.56622">
        <ele>372.5</ele>
        <time>2021-01-13T10:41:51Z</time>
      </trkpt>
      <trkpt lat="43.18227" lon="5.56619">
        <ele>373.1</ele>
        <time>2021-01-13T10:42:01Z</time>
      </trkpt>
      <trkpt lat="43.18232" lon="5.5662">
        <ele>373.9</ele>
        <time>2021-01-13T10:42:09Z</time>
      </trkpt>
      <trkpt lat="43.18237" lon="5.5662">
        <ele>374.6</ele>
        <time>2021-01-13T10:42:17Z</time>
      </trkpt>
      <trkpt lat="43.18242" lon="5.56617">
        <ele>375.3</ele>
        <time>2021-01-13T10:42:27Z</time>
      </trkpt>
      <trkpt lat="43.18245" lon="5.56612">
        <ele>375.6</ele>
        <time>2021-01-13T10:42:33Z</time>
      </trkpt>
      <trkpt lat="43.18249" lon="5.56609">
        <ele>376.1</ele>
        <time>2021-01-13T10:42:41Z</time>
      </trkpt>
      <trkpt lat="43.18254" lon="5.56604">
        <ele>375.9</ele>
        <time>2021-01-13T10:42:49Z</time>
      </trkpt>
      <trkpt lat="43.18258" lon="5.56599">
        <ele>375.5</ele>
        <time>2021-01-13T10:42:57Z</time>
      </trkpt>
      <trkpt lat="43.18262" lon="5.56595">
        <ele>375.3</ele>
        <time>2021-01-13T10:43:03Z</time>
      </trkpt>
      <trkpt lat="43.18265" lon="5.5659">
        <ele>375</ele>
        <time>2021-01-13T10:43:11Z</time>
      </trkpt>
      <trkpt lat="43.18269" lon="5.56587">
        <ele>374.9</ele>
        <time>2021-01-13T10:43:41Z</time>
      </trkpt>
      <trkpt lat="43.18272" lon="5.56579">
        <ele>373.9</ele>
        <time>2021-01-13T10:46:13Z</time>
      </trkpt>
      <trkpt lat="43.18275" lon="5.56573">
        <ele>372.8</ele>
        <time>2021-01-13T10:46:19Z</time>
      </trkpt>
      <trkpt lat="43.18278" lon="5.56567">
        <ele>371.8</ele>
        <time>2021-01-13T10:46:25Z</time>
      </trkpt>
      <trkpt lat="43.1828" lon="5.5656">
        <ele>370.7</ele>
        <time>2021-01-13T10:46:31Z</time>
      </trkpt>
      <trkpt lat="43.18282" lon="5.56553">
        <ele>369.8</ele>
        <time>2021-01-13T10:46:37Z</time>
      </trkpt>
      <trkpt lat="43.18285" lon="5.56545">
        <ele>368.8</ele>
        <time>2021-01-13T10:46:43Z</time>
      </trkpt>
      <trkpt lat="43.18287" lon="5.5654">
        <ele>368.1</ele>
        <time>2021-01-13T10:46:49Z</time>
      </trkpt>
      <trkpt lat="43.1829" lon="5.56534">
        <ele>367.5</ele>
        <time>2021-01-13T10:46:57Z</time>
      </trkpt>
      <trkpt lat="43.18296" lon="5.56531">
        <ele>367.7</ele>
        <time>2021-01-13T10:47:05Z</time>
      </trkpt>
      <trkpt lat="43.18301" lon="5.56529">
        <ele>368.1</ele>
        <time>2021-01-13T10:47:11Z</time>
      </trkpt>
      <trkpt lat="43.18305" lon="5.56529">
        <ele>368.6</ele>
        <time>2021-01-13T10:47:17Z</time>
      </trkpt>
      <trkpt lat="43.18311" lon="5.5653">
        <ele>369.4</ele>
        <time>2021-01-13T10:47:25Z</time>
      </trkpt>
      <trkpt lat="43.18316" lon="5.56531">
        <ele>370.1</ele>
        <time>2021-01-13T10:47:31Z</time>
      </trkpt>
      <trkpt lat="43.18321" lon="5.5653">
        <ele>370.6</ele>
        <time>2021-01-13T10:47:39Z</time>
      </trkpt>
      <trkpt lat="43.18327" lon="5.56529">
        <ele>371.2</ele>
        <time>2021-01-13T10:47:47Z</time>
      </trkpt>
      <trkpt lat="43.18332" lon="5.56526">
        <ele>371.7</ele>
        <time>2021-01-13T10:47:53Z</time>
      </trkpt>
      <trkpt lat="43.18336" lon="5.56522">
        <ele>370.8</ele>
        <time>2021-01-13T10:47:59Z</time>
      </trkpt>
      <trkpt lat="43.18341" lon="5.56517">
        <ele>369.3</ele>
        <time>2021-01-13T10:48:05Z</time>
      </trkpt>
      <trkpt lat="43.18342" lon="5.56509">
        <ele>368.7</ele>
        <time>2021-01-13T10:48:11Z</time>
      </trkpt>
      <trkpt lat="43.18343" lon="5.56501">
        <ele>368.5</ele>
        <time>2021-01-13T10:48:17Z</time>
      </trkpt>
      <trkpt lat="43.18345" lon="5.56495">
        <ele>363.7</ele>
        <time>2021-01-13T10:48:23Z</time>
      </trkpt>
      <trkpt lat="43.18347" lon="5.56488">
        <ele>356.5</ele>
        <time>2021-01-13T10:48:31Z</time>
      </trkpt>
      <trkpt lat="43.18349" lon="5.56481">
        <ele>349.7</ele>
        <time>2021-01-13T10:48:41Z</time>
      </trkpt>
      <trkpt lat="43.18353" lon="5.56477">
        <ele>346.5</ele>
        <time>2021-01-13T10:48:49Z</time>
      </trkpt>
      <trkpt lat="43.18357" lon="5.56473">
        <ele>342.7</ele>
        <time>2021-01-13T10:48:57Z</time>
      </trkpt>
      <trkpt lat="43.18361" lon="5.56468">
        <ele>339.1</ele>
        <time>2021-01-13T10:49:05Z</time>
      </trkpt>
      <trkpt lat="43.18365" lon="5.56466">
        <ele>337.8</ele>
        <time>2021-01-13T10:49:13Z</time>
      </trkpt>
      <trkpt lat="43.18369" lon="5.56469">
        <ele>340.4</ele>
        <time>2021-01-13T10:49:21Z</time>
      </trkpt>
      <trkpt lat="43.18372" lon="5.56475">
        <ele>344.3</ele>
        <time>2021-01-13T10:49:29Z</time>
      </trkpt>
      <trkpt lat="43.18375" lon="5.5648">
        <ele>347.8</ele>
        <time>2021-01-13T10:49:37Z</time>
      </trkpt>
      <trkpt lat="43.1838" lon="5.56483">
        <ele>348.8</ele>
        <time>2021-01-13T10:49:45Z</time>
      </trkpt>
      <trkpt lat="43.18383" lon="5.56477">
        <ele>345.6</ele>
        <time>2021-01-13T10:49:53Z</time>
      </trkpt>
      <trkpt lat="43.18385" lon="5.56472">
        <ele>342.8</ele>
        <time>2021-01-13T10:50:03Z</time>
      </trkpt>
      <trkpt lat="43.18389" lon="5.56466">
        <ele>340.4</ele>
        <time>2021-01-13T10:50:17Z</time>
      </trkpt>
      <trkpt lat="43.1839" lon="5.5646">
        <ele>337.5</ele>
        <time>2021-01-13T10:50:29Z</time>
      </trkpt>
      <trkpt lat="43.1839" lon="5.56454">
        <ele>334.6</ele>
        <time>2021-01-13T10:50:45Z</time>
      </trkpt>
      <trkpt lat="43.18388" lon="5.56447">
        <ele>331.2</ele>
        <time>2021-01-13T10:50:57Z</time>
      </trkpt>
      <trkpt lat="43.18393" lon="5.56444">
        <ele>330.8</ele>
        <time>2021-01-13T10:51:15Z</time>
      </trkpt>
      <trkpt lat="43.18394" lon="5.56438">
        <ele>328.7</ele>
        <time>2021-01-13T10:51:25Z</time>
      </trkpt>
      <trkpt lat="43.18396" lon="5.56432">
        <ele>327.5</ele>
        <time>2021-01-13T10:51:37Z</time>
      </trkpt>
      <trkpt lat="43.184" lon="5.56429">
        <ele>328</ele>
        <time>2021-01-13T10:51:41Z</time>
      </trkpt>
      <trkpt lat="43.18403" lon="5.56421">
        <ele>326.8</ele>
        <time>2021-01-13T10:51:47Z</time>
      </trkpt>
      <trkpt lat="43.18406" lon="5.56413">
        <ele>324.7</ele>
        <time>2021-01-13T10:51:53Z</time>
      </trkpt>
      <trkpt lat="43.18409" lon="5.56407">
        <ele>322.3</ele>
        <time>2021-01-13T10:51:57Z</time>
      </trkpt>
      <trkpt lat="43.1841" lon="5.56398">
        <ele>317</ele>
        <time>2021-01-13T10:52:05Z</time>
      </trkpt>
      <trkpt lat="43.18411" lon="5.56392">
        <ele>313</ele>
        <time>2021-01-13T10:52:11Z</time>
      </trkpt>
      <trkpt lat="43.1841" lon="5.56386">
        <ele>307.7</ele>
        <time>2021-01-13T10:52:29Z</time>
      </trkpt>
      <trkpt lat="43.18412" lon="5.56381">
        <ele>305.3</ele>
        <time>2021-01-13T10:52:45Z</time>
      </trkpt>
      <trkpt lat="43.18414" lon="5.56376">
        <ele>303.2</ele>
        <time>2021-01-13T10:52:57Z</time>
      </trkpt>
      <trkpt lat="43.18416" lon="5.56369">
        <ele>299.7</ele>
        <time>2021-01-13T10:53:05Z</time>
      </trkpt>
      <trkpt lat="43.18417" lon="5.56363">
        <ele>296.2</ele>
        <time>2021-01-13T10:53:13Z</time>
      </trkpt>
      <trkpt lat="43.18418" lon="5.56356">
        <ele>291</ele>
        <time>2021-01-13T10:53:23Z</time>
      </trkpt>
      <trkpt lat="43.1842" lon="5.56351">
        <ele>287.8</ele>
        <time>2021-01-13T10:53:31Z</time>
      </trkpt>
      <trkpt lat="43.18425" lon="5.56351">
        <ele>289</ele>
        <time>2021-01-13T10:54:19Z</time>
      </trkpt>
      <trkpt lat="43.1843" lon="5.56352">
        <ele>290.4</ele>
        <time>2021-01-13T10:54:27Z</time>
      </trkpt>
      <trkpt lat="43.18435" lon="5.56353">
        <ele>291.6</ele>
        <time>2021-01-13T10:54:35Z</time>
      </trkpt>
      <trkpt lat="43.18435" lon="5.56346">
        <ele>288.4</ele>
        <time>2021-01-13T10:54:43Z</time>
      </trkpt>
      <trkpt lat="43.18435" lon="5.5634">
        <ele>284.5</ele>
        <time>2021-01-13T10:54:57Z</time>
      </trkpt>
      <trkpt lat="43.18438" lon="5.56335">
        <ele>283.1</ele>
        <time>2021-01-13T10:55:15Z</time>
      </trkpt>
      <trkpt lat="43.1844" lon="5.56329">
        <ele>281</ele>
        <time>2021-01-13T10:55:23Z</time>
      </trkpt>
      <trkpt lat="43.18445" lon="5.56329">
        <ele>282.7</ele>
        <time>2021-01-13T10:55:45Z</time>
      </trkpt>
      <trkpt lat="43.1845" lon="5.56326">
        <ele>283</ele>
        <time>2021-01-13T10:56:01Z</time>
      </trkpt>
      <trkpt lat="43.18452" lon="5.5632">
        <ele>281.2</ele>
        <time>2021-01-13T10:56:11Z</time>
      </trkpt>
      <trkpt lat="43.18456" lon="5.5632">
        <ele>282.8</ele>
        <time>2021-01-13T10:56:23Z</time>
      </trkpt>
      <trkpt lat="43.1846" lon="5.56316">
        <ele>282.6</ele>
        <time>2021-01-13T10:56:37Z</time>
      </trkpt>
      <trkpt lat="43.18465" lon="5.56313">
        <ele>283.9</ele>
        <time>2021-01-13T10:56:49Z</time>
      </trkpt>
      <trkpt lat="43.18468" lon="5.56307">
        <ele>282.8</ele>
        <time>2021-01-13T10:56:57Z</time>
      </trkpt>
      <trkpt lat="43.18472" lon="5.56304">
        <ele>283.5</ele>
        <time>2021-01-13T10:57:09Z</time>
      </trkpt>
      <trkpt lat="43.18477" lon="5.56302">
        <ele>285.1</ele>
        <time>2021-01-13T10:57:17Z</time>
      </trkpt>
      <trkpt lat="43.18482" lon="5.56299">
        <ele>286.9</ele>
        <time>2021-01-13T10:57:23Z</time>
      </trkpt>
      <trkpt lat="43.18489" lon="5.56297">
        <ele>289.3</ele>
        <time>2021-01-13T10:57:29Z</time>
      </trkpt>
      <trkpt lat="43.18493" lon="5.56294">
        <ele>290.6</ele>
        <time>2021-01-13T10:57:35Z</time>
      </trkpt>
      <trkpt lat="43.18497" lon="5.56288">
        <ele>291.2</ele>
        <time>2021-01-13T10:57:41Z</time>
      </trkpt>
      <trkpt lat="43.18502" lon="5.56289">
        <ele>293</ele>
        <time>2021-01-13T10:58:57Z</time>
      </trkpt>
      <trkpt lat="43.18506" lon="5.56284">
        <ele>292.7</ele>
        <time>2021-01-13T11:08:23Z</time>
      </trkpt>
      <trkpt lat="43.1851" lon="5.56279">
        <ele>292.5</ele>
        <time>2021-01-13T11:08:31Z</time>
      </trkpt>
      <trkpt lat="43.18515" lon="5.56276">
        <ele>293</ele>
        <time>2021-01-13T11:08:39Z</time>
      </trkpt>
      <trkpt lat="43.18521" lon="5.56276">
        <ele>294.1</ele>
        <time>2021-01-13T11:08:47Z</time>
      </trkpt>
      <trkpt lat="43.18525" lon="5.56275">
        <ele>294.8</ele>
        <time>2021-01-13T11:08:53Z</time>
      </trkpt>
      <trkpt lat="43.18531" lon="5.56273">
        <ele>295.8</ele>
        <time>2021-01-13T11:09:01Z</time>
      </trkpt>
      <trkpt lat="43.18535" lon="5.56272">
        <ele>296.7</ele>
        <time>2021-01-13T11:09:07Z</time>
      </trkpt>
      <trkpt lat="43.18541" lon="5.56273">
        <ele>297.9</ele>
        <time>2021-01-13T11:09:15Z</time>
      </trkpt>
      <trkpt lat="43.18545" lon="5.56271">
        <ele>298.8</ele>
        <time>2021-01-13T11:09:21Z</time>
      </trkpt>
      <trkpt lat="43.1855" lon="5.56267">
        <ele>299.9</ele>
        <time>2021-01-13T11:09:27Z</time>
      </trkpt>
      <trkpt lat="43.18554" lon="5.5626">
        <ele>300.7</ele>
        <time>2021-01-13T11:09:33Z</time>
      </trkpt>
      <trkpt lat="43.18556" lon="5.56254">
        <ele>301.4</ele>
        <time>2021-01-13T11:09:39Z</time>
      </trkpt>
      <trkpt lat="43.18559" lon="5.56248">
        <ele>301.7</ele>
        <time>2021-01-13T11:09:45Z</time>
      </trkpt>
      <trkpt lat="43.18561" lon="5.56242">
        <ele>300.7</ele>
        <time>2021-01-13T11:09:51Z</time>
      </trkpt>
      <trkpt lat="43.18563" lon="5.56235">
        <ele>299.7</ele>
        <time>2021-01-13T11:09:57Z</time>
      </trkpt>
      <trkpt lat="43.18564" lon="5.56227">
        <ele>298</ele>
        <time>2021-01-13T11:10:05Z</time>
      </trkpt>
      <trkpt lat="43.18566" lon="5.56221">
        <ele>297.1</ele>
        <time>2021-01-13T11:10:11Z</time>
      </trkpt>
      <trkpt lat="43.18568" lon="5.56215">
        <ele>296.3</ele>
        <time>2021-01-13T11:10:17Z</time>
      </trkpt>
      <trkpt lat="43.1857" lon="5.56208">
        <ele>295.6</ele>
        <time>2021-01-13T11:10:23Z</time>
      </trkpt>
      <trkpt lat="43.18573" lon="5.56203">
        <ele>295.3</ele>
        <time>2021-01-13T11:10:33Z</time>
      </trkpt>
      <trkpt lat="43.18577" lon="5.56201">
        <ele>296.9</ele>
        <time>2021-01-13T11:10:51Z</time>
      </trkpt>
      <trkpt lat="43.1858" lon="5.56197">
        <ele>297.6</ele>
        <time>2021-01-13T11:11:07Z</time>
      </trkpt>
      <trkpt lat="43.18583" lon="5.5619">
        <ele>297.5</ele>
        <time>2021-01-13T11:11:15Z</time>
      </trkpt>
      <trkpt lat="43.18586" lon="5.56186">
        <ele>297</ele>
        <time>2021-01-13T11:11:23Z</time>
      </trkpt>
      <trkpt lat="43.1859" lon="5.5618">
        <ele>296.2</ele>
        <time>2021-01-13T11:11:29Z</time>
      </trkpt>
      <trkpt lat="43.18592" lon="5.56173">
        <ele>295.3</ele>
        <time>2021-01-13T11:11:35Z</time>
      </trkpt>
      <trkpt lat="43.18594" lon="5.56165">
        <ele>293.7</ele>
        <time>2021-01-13T11:11:41Z</time>
      </trkpt>
      <trkpt lat="43.18595" lon="5.56156">
        <ele>290.3</ele>
        <time>2021-01-13T11:11:47Z</time>
      </trkpt>
      <trkpt lat="43.18598" lon="5.5615">
        <ele>288.4</ele>
        <time>2021-01-13T11:11:53Z</time>
      </trkpt>
      <trkpt lat="43.18601" lon="5.56145">
        <ele>287.4</ele>
        <time>2021-01-13T11:11:59Z</time>
      </trkpt>
      <trkpt lat="43.18604" lon="5.5614">
        <ele>286.3</ele>
        <time>2021-01-13T11:12:05Z</time>
      </trkpt>
      <trkpt lat="43.18609" lon="5.56137">
        <ele>286.5</ele>
        <time>2021-01-13T11:12:13Z</time>
      </trkpt>
      <trkpt lat="43.18613" lon="5.56135">
        <ele>287.5</ele>
        <time>2021-01-13T11:12:21Z</time>
      </trkpt>
      <trkpt lat="43.18619" lon="5.56134">
        <ele>289</ele>
        <time>2021-01-13T11:12:33Z</time>
      </trkpt>
      <trkpt lat="43.18624" lon="5.56137">
        <ele>291.3</ele>
        <time>2021-01-13T11:12:45Z</time>
      </trkpt>
      <trkpt lat="43.18629" lon="5.56137">
        <ele>293.1</ele>
        <time>2021-01-13T11:12:53Z</time>
      </trkpt>
      <trkpt lat="43.18634" lon="5.56137">
        <ele>294.3</ele>
        <time>2021-01-13T11:12:59Z</time>
      </trkpt>
      <trkpt lat="43.18638" lon="5.56136">
        <ele>295.6</ele>
        <time>2021-01-13T11:13:05Z</time>
      </trkpt>
      <trkpt lat="43.18643" lon="5.56132">
        <ele>296.6</ele>
        <time>2021-01-13T11:13:13Z</time>
      </trkpt>
      <trkpt lat="43.18645" lon="5.56126">
        <ele>296.6</ele>
        <time>2021-01-13T11:13:21Z</time>
      </trkpt>
      <trkpt lat="43.1865" lon="5.56126">
        <ele>298.4</ele>
        <time>2021-01-13T11:13:29Z</time>
      </trkpt>
      <trkpt lat="43.18655" lon="5.56129">
        <ele>300.4</ele>
        <time>2021-01-13T11:13:37Z</time>
      </trkpt>
      <trkpt lat="43.1866" lon="5.56128">
        <ele>302.1</ele>
        <time>2021-01-13T11:13:45Z</time>
      </trkpt>
      <trkpt lat="43.18664" lon="5.56125">
        <ele>303.4</ele>
        <time>2021-01-13T11:13:53Z</time>
      </trkpt>
      <trkpt lat="43.18669" lon="5.56126">
        <ele>304.9</ele>
        <time>2021-01-13T11:14:05Z</time>
      </trkpt>
      <trkpt lat="43.18673" lon="5.56126">
        <ele>305.7</ele>
        <time>2021-01-13T11:14:13Z</time>
      </trkpt>
      <trkpt lat="43.18678" lon="5.56122">
        <ele>306.5</ele>
        <time>2021-01-13T11:14:25Z</time>
      </trkpt>
      <trkpt lat="43.18683" lon="5.56121">
        <ele>307.4</ele>
        <time>2021-01-13T11:14:37Z</time>
      </trkpt>
      <trkpt lat="43.18687" lon="5.56117">
        <ele>308.4</ele>
        <time>2021-01-13T11:14:51Z</time>
      </trkpt>
      <trkpt lat="43.18691" lon="5.56116">
        <ele>309.4</ele>
        <time>2021-01-13T11:15:09Z</time>
      </trkpt>
      <trkpt lat="43.18697" lon="5.56116">
        <ele>310.5</ele>
        <time>2021-01-13T11:15:17Z</time>
      </trkpt>
      <trkpt lat="43.18702" lon="5.56113">
        <ele>311.9</ele>
        <time>2021-01-13T11:15:27Z</time>
      </trkpt>
      <trkpt lat="43.18707" lon="5.56109">
        <ele>313.4</ele>
        <time>2021-01-13T11:15:41Z</time>
      </trkpt>
      <trkpt lat="43.18709" lon="5.56103">
        <ele>314.8</ele>
        <time>2021-01-13T11:15:47Z</time>
      </trkpt>
      <trkpt lat="43.18712" lon="5.56098">
        <ele>316.2</ele>
        <time>2021-01-13T11:15:55Z</time>
      </trkpt>
      <trkpt lat="43.18716" lon="5.56093">
        <ele>317.8</ele>
        <time>2021-01-13T11:16:03Z</time>
      </trkpt>
      <trkpt lat="43.18719" lon="5.56087">
        <ele>319.7</ele>
        <time>2021-01-13T11:16:11Z</time>
      </trkpt>
      <trkpt lat="43.18722" lon="5.56081">
        <ele>321</ele>
        <time>2021-01-13T11:16:53Z</time>
      </trkpt>
      <trkpt lat="43.18724" lon="5.56075">
        <ele>320.4</ele>
        <time>2021-01-13T11:16:59Z</time>
      </trkpt>
      <trkpt lat="43.18727" lon="5.56069">
        <ele>320.2</ele>
        <time>2021-01-13T11:17:05Z</time>
      </trkpt>
      <trkpt lat="43.18731" lon="5.56064">
        <ele>321</ele>
        <time>2021-01-13T11:17:13Z</time>
      </trkpt>
      <trkpt lat="43.18736" lon="5.56059">
        <ele>322.2</ele>
        <time>2021-01-13T11:17:21Z</time>
      </trkpt>
      <trkpt lat="43.18741" lon="5.56057">
        <ele>323.5</ele>
        <time>2021-01-13T11:17:31Z</time>
      </trkpt>
      <trkpt lat="43.18745" lon="5.56053">
        <ele>324.6</ele>
        <time>2021-01-13T11:17:39Z</time>
      </trkpt>
      <trkpt lat="43.18751" lon="5.56053">
        <ele>326.7</ele>
        <time>2021-01-13T11:17:49Z</time>
      </trkpt>
      <trkpt lat="43.18754" lon="5.56048">
        <ele>326.4</ele>
        <time>2021-01-13T11:17:57Z</time>
      </trkpt>
      <trkpt lat="43.18759" lon="5.56045">
        <ele>326.4</ele>
        <time>2021-01-13T11:18:05Z</time>
      </trkpt>
      <trkpt lat="43.18762" lon="5.5604">
        <ele>326</ele>
        <time>2021-01-13T11:18:15Z</time>
      </trkpt>
      <trkpt lat="43.18761" lon="5.56034">
        <ele>325.3</ele>
        <time>2021-01-13T11:18:27Z</time>
      </trkpt>
      <trkpt lat="43.18758" lon="5.56028">
        <ele>324.5</ele>
        <time>2021-01-13T11:18:39Z</time>
      </trkpt>
      <trkpt lat="43.18756" lon="5.56022">
        <ele>323.8</ele>
        <time>2021-01-13T11:19:27Z</time>
      </trkpt>
      <trkpt lat="43.18758" lon="5.56017">
        <ele>323.5</ele>
        <time>2021-01-13T11:19:37Z</time>
      </trkpt>
      <trkpt lat="43.18763" lon="5.56019">
        <ele>324</ele>
        <time>2021-01-13T11:19:47Z</time>
      </trkpt>
      <trkpt lat="43.18768" lon="5.56021">
        <ele>324.5</ele>
        <time>2021-01-13T11:19:53Z</time>
      </trkpt>
      <trkpt lat="43.18773" lon="5.5602">
        <ele>324.8</ele>
        <time>2021-01-13T11:19:59Z</time>
      </trkpt>
      <trkpt lat="43.18777" lon="5.56017">
        <ele>324.8</ele>
        <time>2021-01-13T11:20:05Z</time>
      </trkpt>
      <trkpt lat="43.18781" lon="5.56012">
        <ele>324.6</ele>
        <time>2021-01-13T11:20:13Z</time>
      </trkpt>
      <trkpt lat="43.18783" lon="5.56007">
        <ele>324.4</ele>
        <time>2021-01-13T11:20:21Z</time>
      </trkpt>
      <trkpt lat="43.18786" lon="5.56">
        <ele>324</ele>
        <time>2021-01-13T11:20:29Z</time>
      </trkpt>
      <trkpt lat="43.18791" lon="5.55997">
        <ele>323.6</ele>
        <time>2021-01-13T11:26:03Z</time>
      </trkpt>
      <trkpt lat="43.18795" lon="5.55993">
        <ele>323.1</ele>
        <time>2021-01-13T11:26:09Z</time>
      </trkpt>
      <trkpt lat="43.18797" lon="5.55987">
        <ele>321.8</ele>
        <time>2021-01-13T11:26:15Z</time>
      </trkpt>
      <trkpt lat="43.18799" lon="5.5598">
        <ele>320.5</ele>
        <time>2021-01-13T11:26:23Z</time>
      </trkpt>
      <trkpt lat="43.18802" lon="5.55975">
        <ele>319.7</ele>
        <time>2021-01-13T11:26:29Z</time>
      </trkpt>
      <trkpt lat="43.18803" lon="5.55968">
        <ele>318.5</ele>
        <time>2021-01-13T11:26:37Z</time>
      </trkpt>
      <trkpt lat="43.18805" lon="5.55961">
        <ele>317.3</ele>
        <time>2021-01-13T11:26:45Z</time>
      </trkpt>
      <trkpt lat="43.18806" lon="5.55954">
        <ele>316.1</ele>
        <time>2021-01-13T11:26:55Z</time>
      </trkpt>
      <trkpt lat="43.18808" lon="5.55947">
        <ele>315</ele>
        <time>2021-01-13T11:27:05Z</time>
      </trkpt>
      <trkpt lat="43.1881" lon="5.55941">
        <ele>314</ele>
        <time>2021-01-13T11:27:13Z</time>
      </trkpt>
      <trkpt lat="43.18813" lon="5.55935">
        <ele>313.3</ele>
        <time>2021-01-13T11:27:23Z</time>
      </trkpt>
      <trkpt lat="43.18814" lon="5.55927">
        <ele>312.2</ele>
        <time>2021-01-13T11:27:33Z</time>
      </trkpt>
      <trkpt lat="43.18815" lon="5.55921">
        <ele>311.3</ele>
        <time>2021-01-13T11:27:43Z</time>
      </trkpt>
      <trkpt lat="43.18817" lon="5.55915">
        <ele>310.3</ele>
        <time>2021-01-13T11:27:49Z</time>
      </trkpt>
      <trkpt lat="43.18818" lon="5.55909">
        <ele>307.5</ele>
        <time>2021-01-13T11:27:55Z</time>
      </trkpt>
      <trkpt lat="43.18819" lon="5.55902">
        <ele>304.8</ele>
        <time>2021-01-13T11:28:03Z</time>
      </trkpt>
      <trkpt lat="43.18819" lon="5.55895">
        <ele>301.3</ele>
        <time>2021-01-13T11:28:09Z</time>
      </trkpt>
      <trkpt lat="43.18818" lon="5.55888">
        <ele>298.4</ele>
        <time>2021-01-13T11:28:17Z</time>
      </trkpt>
      <trkpt lat="43.18821" lon="5.55883">
        <ele>297.4</ele>
        <time>2021-01-13T11:28:33Z</time>
      </trkpt>
      <trkpt lat="43.18824" lon="5.55877">
        <ele>296.3</ele>
        <time>2021-01-13T11:28:41Z</time>
      </trkpt>
      <trkpt lat="43.18825" lon="5.5587">
        <ele>294.4</ele>
        <time>2021-01-13T11:28:49Z</time>
      </trkpt>
      <trkpt lat="43.18827" lon="5.55863">
        <ele>292.5</ele>
        <time>2021-01-13T11:28:57Z</time>
      </trkpt>
      <trkpt lat="43.18828" lon="5.55856">
        <ele>290.6</ele>
        <time>2021-01-13T11:29:03Z</time>
      </trkpt>
      <trkpt lat="43.18832" lon="5.5585">
        <ele>291.5</ele>
        <time>2021-01-13T11:29:21Z</time>
      </trkpt>
      <trkpt lat="43.18834" lon="5.55844">
        <ele>290.7</ele>
        <time>2021-01-13T11:29:29Z</time>
      </trkpt>
      <trkpt lat="43.18835" lon="5.55837">
        <ele>288.8</ele>
        <time>2021-01-13T11:29:37Z</time>
      </trkpt>
      <trkpt lat="43.18836" lon="5.55831">
        <ele>282.6</ele>
        <time>2021-01-13T11:29:43Z</time>
      </trkpt>
      <trkpt lat="43.18839" lon="5.55825">
        <ele>270.1</ele>
        <time>2021-01-13T11:29:51Z</time>
      </trkpt>
      <trkpt lat="43.18843" lon="5.55821">
        <ele>263.8</ele>
        <time>2021-01-13T11:29:55Z</time>
      </trkpt>
      <trkpt lat="43.18847" lon="5.55816">
        <ele>255.9</ele>
        <time>2021-01-13T11:30:01Z</time>
      </trkpt>
      <trkpt lat="43.18851" lon="5.55811">
        <ele>248.5</ele>
        <time>2021-01-13T11:30:09Z</time>
      </trkpt>
      <trkpt lat="43.18857" lon="5.55807">
        <ele>243.7</ele>
        <time>2021-01-13T11:30:17Z</time>
      </trkpt>
      <trkpt lat="43.18859" lon="5.55802">
        <ele>235</ele>
        <time>2021-01-13T11:30:23Z</time>
      </trkpt>
      <trkpt lat="43.18862" lon="5.55806">
        <ele>245.6</ele>
        <time>2021-01-13T11:31:09Z</time>
      </trkpt>
      <trkpt lat="43.18866" lon="5.55802">
        <ele>240.5</ele>
        <time>2021-01-13T11:32:37Z</time>
      </trkpt>
      <trkpt lat="43.18866" lon="5.55796">
        <ele>229.8</ele>
        <time>2021-01-13T12:34:55Z</time>
      </trkpt>
      <trkpt lat="43.18871" lon="5.55796">
        <ele>234.3</ele>
        <time>2021-01-13T12:56:46Z</time>
      </trkpt>
      <trkpt lat="43.18875" lon="5.55792">
        <ele>230.9</ele>
        <time>2021-01-13T12:56:54Z</time>
      </trkpt>
      <trkpt lat="43.1888" lon="5.55792">
        <ele>235.4</ele>
        <time>2021-01-13T12:57:02Z</time>
      </trkpt>
      <trkpt lat="43.18886" lon="5.55792">
        <ele>241.1</ele>
        <time>2021-01-13T12:57:10Z</time>
      </trkpt>
      <trkpt lat="43.18891" lon="5.55792">
        <ele>245</ele>
        <time>2021-01-13T12:57:18Z</time>
      </trkpt>
      <trkpt lat="43.18897" lon="5.55792">
        <ele>251.2</ele>
        <time>2021-01-13T12:57:26Z</time>
      </trkpt>
      <trkpt lat="43.18903" lon="5.55793">
        <ele>257.2</ele>
        <time>2021-01-13T12:57:34Z</time>
      </trkpt>
      <trkpt lat="43.18907" lon="5.55794">
        <ele>261.8</ele>
        <time>2021-01-13T12:57:40Z</time>
      </trkpt>
      <trkpt lat="43.18913" lon="5.55795">
        <ele>267.6</ele>
        <time>2021-01-13T12:57:48Z</time>
      </trkpt>
      <trkpt lat="43.18919" lon="5.55793">
        <ele>270.5</ele>
        <time>2021-01-13T12:57:56Z</time>
      </trkpt>
      <trkpt lat="43.18924" lon="5.55792">
        <ele>272.4</ele>
        <time>2021-01-13T12:58:04Z</time>
      </trkpt>
      <trkpt lat="43.18928" lon="5.55791">
        <ele>274.7</ele>
        <time>2021-01-13T12:58:16Z</time>
      </trkpt>
      <trkpt lat="43.18933" lon="5.5579">
        <ele>276.8</ele>
        <time>2021-01-13T12:58:22Z</time>
      </trkpt>
      <trkpt lat="43.18937" lon="5.55789">
        <ele>278.5</ele>
        <time>2021-01-13T12:58:30Z</time>
      </trkpt>
      <trkpt lat="43.18942" lon="5.55788">
        <ele>281.5</ele>
        <time>2021-01-13T12:58:40Z</time>
      </trkpt>
      <trkpt lat="43.18948" lon="5.55788">
        <ele>285</ele>
        <time>2021-01-13T12:58:48Z</time>
      </trkpt>
      <trkpt lat="43.18953" lon="5.55787">
        <ele>287.9</ele>
        <time>2021-01-13T12:58:56Z</time>
      </trkpt>
      <trkpt lat="43.18957" lon="5.55787">
        <ele>290.7</ele>
        <time>2021-01-13T12:59:02Z</time>
      </trkpt>
      <trkpt lat="43.18962" lon="5.55786">
        <ele>293.7</ele>
        <time>2021-01-13T12:59:10Z</time>
      </trkpt>
      <trkpt lat="43.18967" lon="5.55785">
        <ele>296.9</ele>
        <time>2021-01-13T12:59:20Z</time>
      </trkpt>
      <trkpt lat="43.18972" lon="5.55785">
        <ele>300.2</ele>
        <time>2021-01-13T12:59:28Z</time>
      </trkpt>
      <trkpt lat="43.18977" lon="5.55785">
        <ele>303.4</ele>
        <time>2021-01-13T12:59:36Z</time>
      </trkpt>
      <trkpt lat="43.18982" lon="5.55783">
        <ele>306.8</ele>
        <time>2021-01-13T12:59:48Z</time>
      </trkpt>
      <trkpt lat="43.18987" lon="5.55782">
        <ele>310.3</ele>
        <time>2021-01-13T12:59:56Z</time>
      </trkpt>
      <trkpt lat="43.18992" lon="5.55779">
        <ele>313.7</ele>
        <time>2021-01-13T13:00:08Z</time>
      </trkpt>
      <trkpt lat="43.18996" lon="5.55776">
        <ele>316.7</ele>
        <time>2021-01-13T13:00:16Z</time>
      </trkpt>
      <trkpt lat="43.19001" lon="5.55771">
        <ele>319.7</ele>
        <time>2021-01-13T13:00:30Z</time>
      </trkpt>
      <trkpt lat="43.19005" lon="5.55767">
        <ele>319.8</ele>
        <time>2021-01-13T13:00:36Z</time>
      </trkpt>
      <trkpt lat="43.19003" lon="5.55762">
        <ele>319.9</ele>
        <time>2021-01-13T13:00:48Z</time>
      </trkpt>
      <trkpt lat="43.19004" lon="5.55755">
        <ele>319.9</ele>
        <time>2021-01-13T13:01:04Z</time>
      </trkpt>
      <trkpt lat="43.19008" lon="5.55752">
        <ele>320</ele>
        <time>2021-01-13T13:01:34Z</time>
      </trkpt>
      <trkpt lat="43.19013" lon="5.55752">
        <ele>320</ele>
        <time>2021-01-13T13:01:50Z</time>
      </trkpt>
      <trkpt lat="43.19017" lon="5.5575">
        <ele>320</ele>
        <time>2021-01-13T13:02:00Z</time>
      </trkpt>
      <trkpt lat="43.19019" lon="5.55744">
        <ele>315.7</ele>
        <time>2021-01-13T13:02:26Z</time>
      </trkpt>
      <trkpt lat="43.19017" lon="5.55738">
        <ele>311.2</ele>
        <time>2021-01-13T13:02:32Z</time>
      </trkpt>
      <trkpt lat="43.19017" lon="5.55731">
        <ele>306.2</ele>
        <time>2021-01-13T13:02:40Z</time>
      </trkpt>
      <trkpt lat="43.19018" lon="5.55725">
        <ele>301.9</ele>
        <time>2021-01-13T13:02:46Z</time>
      </trkpt>
      <trkpt lat="43.19018" lon="5.55718">
        <ele>297</ele>
        <time>2021-01-13T13:02:54Z</time>
      </trkpt>
      <trkpt lat="43.19016" lon="5.55712">
        <ele>291.9</ele>
        <time>2021-01-13T13:03:02Z</time>
      </trkpt>
      <trkpt lat="43.19017" lon="5.55704">
        <ele>286.7</ele>
        <time>2021-01-13T13:03:12Z</time>
      </trkpt>
      <trkpt lat="43.19017" lon="5.55698">
        <ele>282.3</ele>
        <time>2021-01-13T13:03:22Z</time>
      </trkpt>
      <trkpt lat="43.19019" lon="5.55692">
        <ele>278.7</ele>
        <time>2021-01-13T13:03:30Z</time>
      </trkpt>
      <trkpt lat="43.19019" lon="5.55686">
        <ele>274.3</ele>
        <time>2021-01-13T13:03:40Z</time>
      </trkpt>
      <trkpt lat="43.1902" lon="5.55679">
        <ele>269.9</ele>
        <time>2021-01-13T13:03:52Z</time>
      </trkpt>
      <trkpt lat="43.19022" lon="5.55672">
        <ele>265.8</ele>
        <time>2021-01-13T13:04:02Z</time>
      </trkpt>
      <trkpt lat="43.19024" lon="5.55666">
        <ele>262.8</ele>
        <time>2021-01-13T13:04:14Z</time>
      </trkpt>
      <trkpt lat="43.19029" lon="5.55666">
        <ele>265.3</ele>
        <time>2021-01-13T13:04:24Z</time>
      </trkpt>
      <trkpt lat="43.19032" lon="5.55661">
        <ele>262.2</ele>
        <time>2021-01-13T13:04:40Z</time>
      </trkpt>
      <trkpt lat="43.19036" lon="5.55656">
        <ele>259.5</ele>
        <time>2021-01-13T13:04:50Z</time>
      </trkpt>
      <trkpt lat="43.19038" lon="5.55651">
        <ele>256</ele>
        <time>2021-01-13T13:05:00Z</time>
      </trkpt>
      <trkpt lat="43.1904" lon="5.55645">
        <ele>251.6</ele>
        <time>2021-01-13T13:05:12Z</time>
      </trkpt>
      <trkpt lat="43.19042" lon="5.55638">
        <ele>246.4</ele>
        <time>2021-01-13T13:05:24Z</time>
      </trkpt>
      <trkpt lat="43.19045" lon="5.55633">
        <ele>244.4</ele>
        <time>2021-01-13T13:05:38Z</time>
      </trkpt>
      <trkpt lat="43.19047" lon="5.55628">
        <ele>242.9</ele>
        <time>2021-01-13T13:05:44Z</time>
      </trkpt>
      <trkpt lat="43.19049" lon="5.55622">
        <ele>239.5</ele>
        <time>2021-01-13T13:05:50Z</time>
      </trkpt>
      <trkpt lat="43.1905" lon="5.55615">
        <ele>234.1</ele>
        <time>2021-01-13T13:05:56Z</time>
      </trkpt>
      <trkpt lat="43.19049" lon="5.55607">
        <ele>227.1</ele>
        <time>2021-01-13T13:06:04Z</time>
      </trkpt>
      <trkpt lat="43.19049" lon="5.55599">
        <ele>220.6</ele>
        <time>2021-01-13T13:06:10Z</time>
      </trkpt>
      <trkpt lat="43.19049" lon="5.55593">
        <ele>215.1</ele>
        <time>2021-01-13T13:06:16Z</time>
      </trkpt>
      <trkpt lat="43.19048" lon="5.55587">
        <ele>207.3</ele>
        <time>2021-01-13T13:07:16Z</time>
      </trkpt>
      <trkpt lat="43.19051" lon="5.55582">
        <ele>207.1</ele>
        <time>2021-01-13T13:08:52Z</time>
      </trkpt>
      <trkpt lat="43.19053" lon="5.55576">
        <ele>202.9</ele>
        <time>2021-01-13T13:08:58Z</time>
      </trkpt>
      <trkpt lat="43.19058" lon="5.55571">
        <ele>203</ele>
        <time>2021-01-13T13:09:06Z</time>
      </trkpt>
      <trkpt lat="43.19062" lon="5.55566">
        <ele>200.6</ele>
        <time>2021-01-13T13:09:14Z</time>
      </trkpt>
      <trkpt lat="43.19065" lon="5.5556">
        <ele>196.1</ele>
        <time>2021-01-13T13:09:22Z</time>
      </trkpt>
      <trkpt lat="43.19069" lon="5.55554">
        <ele>192.4</ele>
        <time>2021-01-13T13:09:28Z</time>
      </trkpt>
      <trkpt lat="43.19074" lon="5.55551">
        <ele>193.4</ele>
        <time>2021-01-13T13:09:34Z</time>
      </trkpt>
      <trkpt lat="43.19078" lon="5.55549">
        <ele>196.7</ele>
        <time>2021-01-13T13:09:40Z</time>
      </trkpt>
      <trkpt lat="43.19083" lon="5.55546">
        <ele>198.8</ele>
        <time>2021-01-13T13:09:46Z</time>
      </trkpt>
      <trkpt lat="43.19088" lon="5.55545">
        <ele>202.1</ele>
        <time>2021-01-13T13:09:52Z</time>
      </trkpt>
      <trkpt lat="43.19092" lon="5.55543">
        <ele>205</ele>
        <time>2021-01-13T13:09:58Z</time>
      </trkpt>
      <trkpt lat="43.19097" lon="5.55541">
        <ele>209.8</ele>
        <time>2021-01-13T13:10:04Z</time>
      </trkpt>
      <trkpt lat="43.19101" lon="5.55537">
        <ele>209.3</ele>
        <time>2021-01-13T13:10:10Z</time>
      </trkpt>
      <trkpt lat="43.19104" lon="5.55532">
        <ele>207.6</ele>
        <time>2021-01-13T13:10:16Z</time>
      </trkpt>
      <trkpt lat="43.19108" lon="5.55527">
        <ele>206.7</ele>
        <time>2021-01-13T13:10:22Z</time>
      </trkpt>
      <trkpt lat="43.19113" lon="5.55523">
        <ele>211.1</ele>
        <time>2021-01-13T13:10:30Z</time>
      </trkpt>
      <trkpt lat="43.19118" lon="5.55523">
        <ele>219.1</ele>
        <time>2021-01-13T13:10:42Z</time>
      </trkpt>
      <trkpt lat="43.19122" lon="5.55527">
        <ele>230.8</ele>
        <time>2021-01-13T13:10:52Z</time>
      </trkpt>
      <trkpt lat="43.19124" lon="5.55533">
        <ele>239.8</ele>
        <time>2021-01-13T13:11:02Z</time>
      </trkpt>
      <trkpt lat="43.19129" lon="5.55532">
        <ele>245.6</ele>
        <time>2021-01-13T13:11:42Z</time>
      </trkpt>
      <trkpt lat="43.19134" lon="5.55533">
        <ele>254</ele>
        <time>2021-01-13T13:11:50Z</time>
      </trkpt>
      <trkpt lat="43.19138" lon="5.55528">
        <ele>257.5</ele>
        <time>2021-01-13T13:12:02Z</time>
      </trkpt>
      <trkpt lat="43.1914" lon="5.55522">
        <ele>257.7</ele>
        <time>2021-01-13T13:12:08Z</time>
      </trkpt>
      <trkpt lat="43.19144" lon="5.55518">
        <ele>262.6</ele>
        <time>2021-01-13T13:12:18Z</time>
      </trkpt>
      <trkpt lat="43.19147" lon="5.55512">
        <ele>265.1</ele>
        <time>2021-01-13T13:12:30Z</time>
      </trkpt>
      <trkpt lat="43.19152" lon="5.55509">
        <ele>274.5</ele>
        <time>2021-01-13T13:12:40Z</time>
      </trkpt>
      <trkpt lat="43.19156" lon="5.55505">
        <ele>281.4</ele>
        <time>2021-01-13T13:12:50Z</time>
      </trkpt>
      <trkpt lat="43.19161" lon="5.55503">
        <ele>292.6</ele>
        <time>2021-01-13T13:13:04Z</time>
      </trkpt>
      <trkpt lat="43.19166" lon="5.55502">
        <ele>303.5</ele>
        <time>2021-01-13T13:13:14Z</time>
      </trkpt>
      <trkpt lat="43.19171" lon="5.55502">
        <ele>306.3</ele>
        <time>2021-01-13T13:13:22Z</time>
      </trkpt>
      <trkpt lat="43.19174" lon="5.55498">
        <ele>302.7</ele>
        <time>2021-01-13T13:13:38Z</time>
      </trkpt>
      <trkpt lat="43.1918" lon="5.55498">
        <ele>305.3</ele>
        <time>2021-01-13T13:13:50Z</time>
      </trkpt>
      <trkpt lat="43.19184" lon="5.55498">
        <ele>306.9</ele>
        <time>2021-01-13T13:13:58Z</time>
      </trkpt>
      <trkpt lat="43.19188" lon="5.55493">
        <ele>299.1</ele>
        <time>2021-01-13T13:14:10Z</time>
      </trkpt>
      <trkpt lat="43.19191" lon="5.55486">
        <ele>289.4</ele>
        <time>2021-01-13T13:14:22Z</time>
      </trkpt>
      <trkpt lat="43.19196" lon="5.55483">
        <ele>286</ele>
        <time>2021-01-13T13:14:32Z</time>
      </trkpt>
      <trkpt lat="43.192" lon="5.55484">
        <ele>290.3</ele>
        <time>2021-01-13T13:14:44Z</time>
      </trkpt>
      <trkpt lat="43.19205" lon="5.55483">
        <ele>292.4</ele>
        <time>2021-01-13T13:14:54Z</time>
      </trkpt>
      <trkpt lat="43.1921" lon="5.5548">
        <ele>292</ele>
        <time>2021-01-13T13:15:02Z</time>
      </trkpt>
      <trkpt lat="43.19215" lon="5.55479">
        <ele>293.8</ele>
        <time>2021-01-13T13:15:14Z</time>
      </trkpt>
      <trkpt lat="43.19219" lon="5.55478">
        <ele>295.3</ele>
        <time>2021-01-13T13:15:26Z</time>
      </trkpt>
      <trkpt lat="43.19225" lon="5.55476">
        <ele>296.7</ele>
        <time>2021-01-13T13:15:38Z</time>
      </trkpt>
      <trkpt lat="43.1923" lon="5.55472">
        <ele>297</ele>
        <time>2021-01-13T13:15:48Z</time>
      </trkpt>
      <trkpt lat="43.19234" lon="5.55468">
        <ele>296.6</ele>
        <time>2021-01-13T13:15:56Z</time>
      </trkpt>
      <trkpt lat="43.19239" lon="5.55464">
        <ele>297.7</ele>
        <time>2021-01-13T13:16:06Z</time>
      </trkpt>
      <trkpt lat="43.19243" lon="5.5546">
        <ele>298.6</ele>
        <time>2021-01-13T13:16:16Z</time>
      </trkpt>
      <trkpt lat="43.19247" lon="5.55454">
        <ele>297.8</ele>
        <time>2021-01-13T13:16:24Z</time>
      </trkpt>
      <trkpt lat="43.19247" lon="5.55448">
        <ele>293.3</ele>
        <time>2021-01-13T13:16:34Z</time>
      </trkpt>
      <trkpt lat="43.19251" lon="5.55448">
        <ele>298.4</ele>
        <time>2021-01-13T13:17:04Z</time>
      </trkpt>
      <trkpt lat="43.19256" lon="5.55445">
        <ele>298.7</ele>
        <time>2021-01-13T13:17:12Z</time>
      </trkpt>
      <trkpt lat="43.1926" lon="5.5544">
        <ele>298.1</ele>
        <time>2021-01-13T13:17:18Z</time>
      </trkpt>
      <trkpt lat="43.19265" lon="5.55437">
        <ele>298.5</ele>
        <time>2021-01-13T13:17:24Z</time>
      </trkpt>
      <trkpt lat="43.19268" lon="5.55433">
        <ele>298.7</ele>
        <time>2021-01-13T13:17:30Z</time>
      </trkpt>
      <trkpt lat="43.19272" lon="5.55428">
        <ele>298.5</ele>
        <time>2021-01-13T13:17:36Z</time>
      </trkpt>
      <trkpt lat="43.19277" lon="5.55423">
        <ele>299.8</ele>
        <time>2021-01-13T13:17:44Z</time>
      </trkpt>
      <trkpt lat="43.19281" lon="5.55421">
        <ele>301.9</ele>
        <time>2021-01-13T13:17:50Z</time>
      </trkpt>
      <trkpt lat="43.19285" lon="5.55417">
        <ele>303.6</ele>
        <time>2021-01-13T13:17:56Z</time>
      </trkpt>
      <trkpt lat="43.19289" lon="5.55412">
        <ele>299</ele>
        <time>2021-01-13T13:18:02Z</time>
      </trkpt>
      <trkpt lat="43.19293" lon="5.55407">
        <ele>295.1</ele>
        <time>2021-01-13T13:18:08Z</time>
      </trkpt>
      <trkpt lat="43.19296" lon="5.55402">
        <ele>290.1</ele>
        <time>2021-01-13T13:18:14Z</time>
      </trkpt>
      <trkpt lat="43.19299" lon="5.55395">
        <ele>283.9</ele>
        <time>2021-01-13T13:18:20Z</time>
      </trkpt>
      <trkpt lat="43.19304" lon="5.5539">
        <ele>282.3</ele>
        <time>2021-01-13T13:18:26Z</time>
      </trkpt>
      <trkpt lat="43.19308" lon="5.55386">
        <ele>281.8</ele>
        <time>2021-01-13T13:18:32Z</time>
      </trkpt>
      <trkpt lat="43.19311" lon="5.55381">
        <ele>281.1</ele>
        <time>2021-01-13T13:18:38Z</time>
      </trkpt>
      <trkpt lat="43.19316" lon="5.55376">
        <ele>281.7</ele>
        <time>2021-01-13T13:18:46Z</time>
      </trkpt>
      <trkpt lat="43.19321" lon="5.55371">
        <ele>283.6</ele>
        <time>2021-01-13T13:18:52Z</time>
      </trkpt>
      <trkpt lat="43.19326" lon="5.55368">
        <ele>289</ele>
        <time>2021-01-13T13:19:00Z</time>
      </trkpt>
      <trkpt lat="43.1933" lon="5.55366">
        <ele>295.4</ele>
        <time>2021-01-13T13:19:06Z</time>
      </trkpt>
      <trkpt lat="43.19334" lon="5.55363">
        <ele>297.6</ele>
        <time>2021-01-13T13:19:12Z</time>
      </trkpt>
      <trkpt lat="43.19337" lon="5.55358">
        <ele>295.1</ele>
        <time>2021-01-13T13:19:26Z</time>
      </trkpt>
      <trkpt lat="43.19341" lon="5.55363">
        <ele>300.5</ele>
        <time>2021-01-13T13:28:06Z</time>
      </trkpt>
      <trkpt lat="43.19345" lon="5.55363">
        <ele>303.1</ele>
        <time>2021-01-13T13:28:14Z</time>
      </trkpt>
      <trkpt lat="43.1935" lon="5.55363">
        <ele>305.4</ele>
        <time>2021-01-13T13:28:20Z</time>
      </trkpt>
      <trkpt lat="43.19355" lon="5.55365">
        <ele>308.8</ele>
        <time>2021-01-13T13:28:28Z</time>
      </trkpt>
      <trkpt lat="43.1936" lon="5.55363">
        <ele>310.2</ele>
        <time>2021-01-13T13:28:34Z</time>
      </trkpt>
      <trkpt lat="43.19365" lon="5.55362">
        <ele>311.7</ele>
        <time>2021-01-13T13:28:42Z</time>
      </trkpt>
      <trkpt lat="43.1937" lon="5.55364">
        <ele>314.8</ele>
        <time>2021-01-13T13:28:48Z</time>
      </trkpt>
      <trkpt lat="43.19375" lon="5.55362">
        <ele>316.3</ele>
        <time>2021-01-13T13:28:56Z</time>
      </trkpt>
      <trkpt lat="43.1938" lon="5.55362">
        <ele>318.3</ele>
        <time>2021-01-13T13:29:08Z</time>
      </trkpt>
      <trkpt lat="43.19385" lon="5.55364">
        <ele>322</ele>
        <time>2021-01-13T13:29:14Z</time>
      </trkpt>
      <trkpt lat="43.1939" lon="5.55366">
        <ele>324.8</ele>
        <time>2021-01-13T13:29:18Z</time>
      </trkpt>
      <trkpt lat="43.19395" lon="5.55369">
        <ele>328.8</ele>
        <time>2021-01-13T13:29:24Z</time>
      </trkpt>
      <trkpt lat="43.19397" lon="5.55375">
        <ele>332.3</ele>
        <time>2021-01-13T13:29:30Z</time>
      </trkpt>
      <trkpt lat="43.19403" lon="5.55377">
        <ele>335.1</ele>
        <time>2021-01-13T13:29:40Z</time>
      </trkpt>
      <trkpt lat="43.19408" lon="5.55379">
        <ele>338.2</ele>
        <time>2021-01-13T13:29:46Z</time>
      </trkpt>
      <trkpt lat="43.19412" lon="5.55381">
        <ele>340.5</ele>
        <time>2021-01-13T13:29:56Z</time>
      </trkpt>
      <trkpt lat="43.19418" lon="5.55381">
        <ele>342.2</ele>
        <time>2021-01-13T13:30:16Z</time>
      </trkpt>
      <trkpt lat="43.19422" lon="5.55383">
        <ele>343</ele>
        <time>2021-01-13T13:30:24Z</time>
      </trkpt>
      <trkpt lat="43.19427" lon="5.55385">
        <ele>344.3</ele>
        <time>2021-01-13T13:30:30Z</time>
      </trkpt>
      <trkpt lat="43.19432" lon="5.55386">
        <ele>344.7</ele>
        <time>2021-01-13T13:30:36Z</time>
      </trkpt>
      <trkpt lat="43.19438" lon="5.55387">
        <ele>345.4</ele>
        <time>2021-01-13T13:30:42Z</time>
      </trkpt>
      <trkpt lat="43.19444" lon="5.55387">
        <ele>346</ele>
        <time>2021-01-13T13:30:52Z</time>
      </trkpt>
      <trkpt lat="43.1945" lon="5.55388">
        <ele>346.7</ele>
        <time>2021-01-13T13:31:00Z</time>
      </trkpt>
      <trkpt lat="43.19455" lon="5.55389">
        <ele>347.2</ele>
        <time>2021-01-13T13:31:08Z</time>
      </trkpt>
      <trkpt lat="43.1946" lon="5.55389">
        <ele>347.6</ele>
        <time>2021-01-13T13:31:16Z</time>
      </trkpt>
      <trkpt lat="43.19464" lon="5.55385">
        <ele>347.1</ele>
        <time>2021-01-13T13:32:56Z</time>
      </trkpt>
      <trkpt lat="43.19469" lon="5.55385">
        <ele>347.4</ele>
        <time>2021-01-13T13:33:04Z</time>
      </trkpt>
      <trkpt lat="43.19474" lon="5.55387">
        <ele>348.1</ele>
        <time>2021-01-13T13:33:12Z</time>
      </trkpt>
      <trkpt lat="43.19479" lon="5.55386">
        <ele>348.2</ele>
        <time>2021-01-13T13:33:22Z</time>
      </trkpt>
      <trkpt lat="43.19484" lon="5.55386">
        <ele>348.7</ele>
        <time>2021-01-13T13:33:30Z</time>
      </trkpt>
      <trkpt lat="43.19488" lon="5.55386">
        <ele>348.9</ele>
        <time>2021-01-13T13:33:36Z</time>
      </trkpt>
      <trkpt lat="43.19493" lon="5.55383">
        <ele>348.8</ele>
        <time>2021-01-13T13:33:44Z</time>
      </trkpt>
      <trkpt lat="43.19499" lon="5.55384">
        <ele>349.3</ele>
        <time>2021-01-13T13:33:52Z</time>
      </trkpt>
      <trkpt lat="43.19504" lon="5.55384">
        <ele>349.1</ele>
        <time>2021-01-13T13:33:58Z</time>
      </trkpt>
      <trkpt lat="43.19509" lon="5.55382">
        <ele>348.2</ele>
        <time>2021-01-13T13:34:06Z</time>
      </trkpt>
      <trkpt lat="43.19514" lon="5.55382">
        <ele>347.6</ele>
        <time>2021-01-13T13:34:12Z</time>
      </trkpt>
      <trkpt lat="43.1952" lon="5.55383">
        <ele>347.3</ele>
        <time>2021-01-13T13:34:36Z</time>
      </trkpt>
      <trkpt lat="43.19526" lon="5.55383">
        <ele>346.6</ele>
        <time>2021-01-13T13:34:42Z</time>
      </trkpt>
      <trkpt lat="43.1953" lon="5.55381">
        <ele>345.7</ele>
        <time>2021-01-13T13:34:46Z</time>
      </trkpt>
      <trkpt lat="43.19536" lon="5.5538">
        <ele>345</ele>
        <time>2021-01-13T13:34:54Z</time>
      </trkpt>
      <trkpt lat="43.19542" lon="5.55379">
        <ele>344.3</ele>
        <time>2021-01-13T13:35:00Z</time>
      </trkpt>
      <trkpt lat="43.19547" lon="5.55378">
        <ele>343.5</ele>
        <time>2021-01-13T13:35:06Z</time>
      </trkpt>
      <trkpt lat="43.19553" lon="5.55377">
        <ele>342.9</ele>
        <time>2021-01-13T13:35:12Z</time>
      </trkpt>
      <trkpt lat="43.19558" lon="5.55375">
        <ele>342</ele>
        <time>2021-01-13T13:35:18Z</time>
      </trkpt>
      <trkpt lat="43.19564" lon="5.55372">
        <ele>341.1</ele>
        <time>2021-01-13T13:35:26Z</time>
      </trkpt>
      <trkpt lat="43.19569" lon="5.55373">
        <ele>340.7</ele>
        <time>2021-01-13T13:35:32Z</time>
      </trkpt>
      <trkpt lat="43.19574" lon="5.55371">
        <ele>339.9</ele>
        <time>2021-01-13T13:35:40Z</time>
      </trkpt>
      <trkpt lat="43.19578" lon="5.55366">
        <ele>339.1</ele>
        <time>2021-01-13T13:35:46Z</time>
      </trkpt>
      <trkpt lat="43.19582" lon="5.55363">
        <ele>338.3</ele>
        <time>2021-01-13T13:35:52Z</time>
      </trkpt>
      <trkpt lat="43.19586" lon="5.5536">
        <ele>337.2</ele>
        <time>2021-01-13T13:36:00Z</time>
      </trkpt>
      <trkpt lat="43.19591" lon="5.55357">
        <ele>335.6</ele>
        <time>2021-01-13T13:36:06Z</time>
      </trkpt>
      <trkpt lat="43.19596" lon="5.55353">
        <ele>333.9</ele>
        <time>2021-01-13T13:36:14Z</time>
      </trkpt>
      <trkpt lat="43.19602" lon="5.55352">
        <ele>332.2</ele>
        <time>2021-01-13T13:36:22Z</time>
      </trkpt>
      <trkpt lat="43.19606" lon="5.55348">
        <ele>330.5</ele>
        <time>2021-01-13T13:36:30Z</time>
      </trkpt>
      <trkpt lat="43.1961" lon="5.55344">
        <ele>329</ele>
        <time>2021-01-13T13:36:36Z</time>
      </trkpt>
      <trkpt lat="43.19615" lon="5.55339">
        <ele>327.1</ele>
        <time>2021-01-13T13:36:44Z</time>
      </trkpt>
      <trkpt lat="43.19619" lon="5.55336">
        <ele>325.6</ele>
        <time>2021-01-13T13:36:54Z</time>
      </trkpt>
      <trkpt lat="43.19623" lon="5.55332">
        <ele>323.8</ele>
        <time>2021-01-13T13:37:06Z</time>
      </trkpt>
      <trkpt lat="43.19627" lon="5.55329">
        <ele>322.4</ele>
        <time>2021-01-13T13:37:12Z</time>
      </trkpt>
      <trkpt lat="43.19632" lon="5.55325">
        <ele>320.8</ele>
        <time>2021-01-13T13:37:20Z</time>
      </trkpt>
      <trkpt lat="43.19636" lon="5.55323">
        <ele>319.4</ele>
        <time>2021-01-13T13:37:28Z</time>
      </trkpt>
      <trkpt lat="43.1964" lon="5.55321">
        <ele>318.1</ele>
        <time>2021-01-13T13:37:36Z</time>
      </trkpt>
      <trkpt lat="43.19645" lon="5.5532">
        <ele>316.7</ele>
        <time>2021-01-13T13:37:46Z</time>
      </trkpt>
      <trkpt lat="43.1965" lon="5.55318">
        <ele>315.3</ele>
        <time>2021-01-13T13:37:54Z</time>
      </trkpt>
      <trkpt lat="43.19655" lon="5.55316">
        <ele>313.7</ele>
        <time>2021-01-13T13:38:02Z</time>
      </trkpt>
      <trkpt lat="43.19658" lon="5.5531">
        <ele>312.6</ele>
        <time>2021-01-13T13:38:08Z</time>
      </trkpt>
      <trkpt lat="43.19661" lon="5.55305">
        <ele>311.4</ele>
        <time>2021-01-13T13:38:12Z</time>
      </trkpt>
      <trkpt lat="43.19665" lon="5.553">
        <ele>310</ele>
        <time>2021-01-13T13:38:22Z</time>
      </trkpt>
      <trkpt lat="43.1967" lon="5.55297">
        <ele>309.4</ele>
        <time>2021-01-13T13:38:30Z</time>
      </trkpt>
      <trkpt lat="43.19676" lon="5.55293">
        <ele>309.3</ele>
        <time>2021-01-13T13:38:38Z</time>
      </trkpt>
      <trkpt lat="43.19681" lon="5.55289">
        <ele>309.2</ele>
        <time>2021-01-13T13:38:44Z</time>
      </trkpt>
      <trkpt lat="43.19687" lon="5.55287">
        <ele>309.3</ele>
        <time>2021-01-13T13:38:50Z</time>
      </trkpt>
      <trkpt lat="43.19691" lon="5.55289">
        <ele>309.5</ele>
        <time>2021-01-13T13:42:52Z</time>
      </trkpt>
      <trkpt lat="43.19695" lon="5.55293">
        <ele>309.7</ele>
        <time>2021-01-13T13:42:58Z</time>
      </trkpt>
      <trkpt lat="43.19699" lon="5.55298">
        <ele>309.8</ele>
        <time>2021-01-13T13:43:04Z</time>
      </trkpt>
      <trkpt lat="43.19703" lon="5.55302">
        <ele>309.9</ele>
        <time>2021-01-13T13:43:10Z</time>
      </trkpt>
      <trkpt lat="43.19707" lon="5.55304">
        <ele>309.9</ele>
        <time>2021-01-13T13:43:16Z</time>
      </trkpt>
      <trkpt lat="43.19707" lon="5.55311">
        <ele>309.8</ele>
        <time>2021-01-13T13:43:24Z</time>
      </trkpt>
      <trkpt lat="43.19707" lon="5.55318">
        <ele>309.7</ele>
        <time>2021-01-13T13:43:36Z</time>
      </trkpt>
      <trkpt lat="43.19707" lon="5.55325">
        <ele>309.7</ele>
        <time>2021-01-13T13:43:54Z</time>
      </trkpt>
      <trkpt lat="43.19708" lon="5.55331">
        <ele>309.6</ele>
        <time>2021-01-13T13:44:00Z</time>
      </trkpt>
      <trkpt lat="43.19709" lon="5.55337">
        <ele>309.6</ele>
        <time>2021-01-13T13:44:06Z</time>
      </trkpt>
      <trkpt lat="43.1971" lon="5.55344">
        <ele>309.8</ele>
        <time>2021-01-13T13:44:12Z</time>
      </trkpt>
      <trkpt lat="43.19712" lon="5.55352">
        <ele>310</ele>
        <time>2021-01-13T13:44:20Z</time>
      </trkpt>
      <trkpt lat="43.19715" lon="5.55359">
        <ele>309.9</ele>
        <time>2021-01-13T13:44:24Z</time>
      </trkpt>
      <trkpt lat="43.19716" lon="5.55365">
        <ele>309.9</ele>
        <time>2021-01-13T13:44:28Z</time>
      </trkpt>
      <trkpt lat="43.19719" lon="5.55372">
        <ele>309.7</ele>
        <time>2021-01-13T13:44:34Z</time>
      </trkpt>
      <trkpt lat="43.1972" lon="5.55379">
        <ele>309.6</ele>
        <time>2021-01-13T13:44:40Z</time>
      </trkpt>
      <trkpt lat="43.19723" lon="5.55385">
        <ele>309.2</ele>
        <time>2021-01-13T13:44:44Z</time>
      </trkpt>
      <trkpt lat="43.19724" lon="5.5539">
        <ele>308.9</ele>
        <time>2021-01-13T13:44:48Z</time>
      </trkpt>
      <trkpt lat="43.19728" lon="5.55397">
        <ele>308.1</ele>
        <time>2021-01-13T13:44:54Z</time>
      </trkpt>
      <trkpt lat="43.1973" lon="5.55403">
        <ele>307.6</ele>
        <time>2021-01-13T13:44:58Z</time>
      </trkpt>
      <trkpt lat="43.19733" lon="5.5541">
        <ele>306.9</ele>
        <time>2021-01-13T13:45:04Z</time>
      </trkpt>
      <trkpt lat="43.19734" lon="5.55417">
        <ele>306.3</ele>
        <time>2021-01-13T13:45:10Z</time>
      </trkpt>
      <trkpt lat="43.19737" lon="5.55423">
        <ele>305.7</ele>
        <time>2021-01-13T13:45:16Z</time>
      </trkpt>
      <trkpt lat="43.1974" lon="5.55429">
        <ele>305</ele>
        <time>2021-01-13T13:45:20Z</time>
      </trkpt>
      <trkpt lat="43.19742" lon="5.55436">
        <ele>304.4</ele>
        <time>2021-01-13T13:45:26Z</time>
      </trkpt>
      <trkpt lat="43.19742" lon="5.55444">
        <ele>304.6</ele>
        <time>2021-01-13T13:45:32Z</time>
      </trkpt>
      <trkpt lat="43.19743" lon="5.55453">
        <ele>304.2</ele>
        <time>2021-01-13T13:45:38Z</time>
      </trkpt>
      <trkpt lat="43.19744" lon="5.55461">
        <ele>303.9</ele>
        <time>2021-01-13T13:45:44Z</time>
      </trkpt>
      <trkpt lat="43.19746" lon="5.55467">
        <ele>303.4</ele>
        <time>2021-01-13T13:45:48Z</time>
      </trkpt>
      <trkpt lat="43.19747" lon="5.55473">
        <ele>302.9</ele>
        <time>2021-01-13T13:45:52Z</time>
      </trkpt>
      <trkpt lat="43.19748" lon="5.55479">
        <ele>302.5</ele>
        <time>2021-01-13T13:45:56Z</time>
      </trkpt>
      <trkpt lat="43.19747" lon="5.55487">
        <ele>303.2</ele>
        <time>2021-01-13T13:46:02Z</time>
      </trkpt>
      <trkpt lat="43.19745" lon="5.55494">
        <ele>303.8</ele>
        <time>2021-01-13T13:46:08Z</time>
      </trkpt>
      <trkpt lat="43.19747" lon="5.55499">
        <ele>303.1</ele>
        <time>2021-01-13T13:46:12Z</time>
      </trkpt>
      <trkpt lat="43.19749" lon="5.55506">
        <ele>302.5</ele>
        <time>2021-01-13T13:46:16Z</time>
      </trkpt>
      <trkpt lat="43.19751" lon="5.55516">
        <ele>302.1</ele>
        <time>2021-01-13T13:46:22Z</time>
      </trkpt>
      <trkpt lat="43.1975" lon="5.55524">
        <ele>302.4</ele>
        <time>2021-01-13T13:46:28Z</time>
      </trkpt>
      <trkpt lat="43.19748" lon="5.55533">
        <ele>303.1</ele>
        <time>2021-01-13T13:46:34Z</time>
      </trkpt>
      <trkpt lat="43.19748" lon="5.55542">
        <ele>303.1</ele>
        <time>2021-01-13T13:46:40Z</time>
      </trkpt>
      <trkpt lat="43.19749" lon="5.55549">
        <ele>302.8</ele>
        <time>2021-01-13T13:46:44Z</time>
      </trkpt>
      <trkpt lat="43.19748" lon="5.55556">
        <ele>303.4</ele>
        <time>2021-01-13T13:46:50Z</time>
      </trkpt>
      <trkpt lat="43.19747" lon="5.55564">
        <ele>303.6</ele>
        <time>2021-01-13T13:46:56Z</time>
      </trkpt>
      <trkpt lat="43.19748" lon="5.55572">
        <ele>303.3</ele>
        <time>2021-01-13T13:47:02Z</time>
      </trkpt>
      <trkpt lat="43.19749" lon="5.55582">
        <ele>303.2</ele>
        <time>2021-01-13T13:47:08Z</time>
      </trkpt>
      <trkpt lat="43.1975" lon="5.55591">
        <ele>303.8</ele>
        <time>2021-01-13T13:47:14Z</time>
      </trkpt>
      <trkpt lat="43.19751" lon="5.55598">
        <ele>304.4</ele>
        <time>2021-01-13T13:47:18Z</time>
      </trkpt>
      <trkpt lat="43.19753" lon="5.55603">
        <ele>304.7</ele>
        <time>2021-01-13T13:47:22Z</time>
      </trkpt>
      <trkpt lat="43.19756" lon="5.55611">
        <ele>304.9</ele>
        <time>2021-01-13T13:47:28Z</time>
      </trkpt>
      <trkpt lat="43.19759" lon="5.55619">
        <ele>305</ele>
        <time>2021-01-13T13:47:34Z</time>
      </trkpt>
      <trkpt lat="43.19761" lon="5.55627">
        <ele>305.2</ele>
        <time>2021-01-13T13:47:40Z</time>
      </trkpt>
      <trkpt lat="43.19765" lon="5.55635">
        <ele>305</ele>
        <time>2021-01-13T13:47:46Z</time>
      </trkpt>
      <trkpt lat="43.19768" lon="5.55641">
        <ele>304.8</ele>
        <time>2021-01-13T13:47:52Z</time>
      </trkpt>
      <trkpt lat="43.19771" lon="5.55646">
        <ele>304.4</ele>
        <time>2021-01-13T13:47:56Z</time>
      </trkpt>
      <trkpt lat="43.19775" lon="5.55653">
        <ele>303.9</ele>
        <time>2021-01-13T13:48:02Z</time>
      </trkpt>
      <trkpt lat="43.19779" lon="5.55657">
        <ele>302.9</ele>
        <time>2021-01-13T13:48:06Z</time>
      </trkpt>
      <trkpt lat="43.19782" lon="5.55661">
        <ele>302.1</ele>
        <time>2021-01-13T13:48:10Z</time>
      </trkpt>
      <trkpt lat="43.19786" lon="5.55668">
        <ele>301.4</ele>
        <time>2021-01-13T13:48:16Z</time>
      </trkpt>
      <trkpt lat="43.19792" lon="5.55674">
        <ele>300.3</ele>
        <time>2021-01-13T13:48:22Z</time>
      </trkpt>
      <trkpt lat="43.19797" lon="5.55679">
        <ele>299.5</ele>
        <time>2021-01-13T13:48:28Z</time>
      </trkpt>
      <trkpt lat="43.198" lon="5.55685">
        <ele>299.1</ele>
        <time>2021-01-13T13:48:34Z</time>
      </trkpt>
      <trkpt lat="43.19804" lon="5.55692">
        <ele>298.7</ele>
        <time>2021-01-13T13:48:40Z</time>
      </trkpt>
      <trkpt lat="43.19807" lon="5.55699">
        <ele>298.6</ele>
        <time>2021-01-13T13:48:46Z</time>
      </trkpt>
      <trkpt lat="43.19811" lon="5.55707">
        <ele>298.5</ele>
        <time>2021-01-13T13:48:52Z</time>
      </trkpt>
      <trkpt lat="43.19813" lon="5.55712">
        <ele>298.5</ele>
        <time>2021-01-13T13:48:56Z</time>
      </trkpt>
      <trkpt lat="43.19814" lon="5.55718">
        <ele>298.8</ele>
        <time>2021-01-13T13:49:00Z</time>
      </trkpt>
      <trkpt lat="43.19815" lon="5.55727">
        <ele>299.6</ele>
        <time>2021-01-13T13:49:06Z</time>
      </trkpt>
      <trkpt lat="43.19816" lon="5.55736">
        <ele>300.7</ele>
        <time>2021-01-13T13:49:12Z</time>
      </trkpt>
      <trkpt lat="43.19815" lon="5.55744">
        <ele>301.8</ele>
        <time>2021-01-13T13:49:18Z</time>
      </trkpt>
      <trkpt lat="43.19815" lon="5.55752">
        <ele>302.8</ele>
        <time>2021-01-13T13:49:24Z</time>
      </trkpt>
      <trkpt lat="43.19815" lon="5.5576">
        <ele>303.1</ele>
        <time>2021-01-13T13:49:30Z</time>
      </trkpt>
      <trkpt lat="43.19816" lon="5.55767">
        <ele>303</ele>
        <time>2021-01-13T13:49:34Z</time>
      </trkpt>
      <trkpt lat="43.19818" lon="5.55773">
        <ele>302.9</ele>
        <time>2021-01-13T13:49:38Z</time>
      </trkpt>
      <trkpt lat="43.19819" lon="5.5578">
        <ele>302.9</ele>
        <time>2021-01-13T13:49:42Z</time>
      </trkpt>
      <trkpt lat="43.1982" lon="5.55786">
        <ele>302.9</ele>
        <time>2021-01-13T13:49:46Z</time>
      </trkpt>
      <trkpt lat="43.1982" lon="5.55795">
        <ele>303.3</ele>
        <time>2021-01-13T13:49:52Z</time>
      </trkpt>
      <trkpt lat="43.1982" lon="5.55803">
        <ele>303.4</ele>
        <time>2021-01-13T13:49:58Z</time>
      </trkpt>
      <trkpt lat="43.19822" lon="5.55811">
        <ele>303.4</ele>
        <time>2021-01-13T13:50:04Z</time>
      </trkpt>
      <trkpt lat="43.19824" lon="5.55816">
        <ele>303</ele>
        <time>2021-01-13T13:50:08Z</time>
      </trkpt>
      <trkpt lat="43.19825" lon="5.55822">
        <ele>302.8</ele>
        <time>2021-01-13T13:50:12Z</time>
      </trkpt>
      <trkpt lat="43.19828" lon="5.55828">
        <ele>302.3</ele>
        <time>2021-01-13T13:50:16Z</time>
      </trkpt>
      <trkpt lat="43.19829" lon="5.55836">
        <ele>302.2</ele>
        <time>2021-01-13T13:50:22Z</time>
      </trkpt>
      <trkpt lat="43.19831" lon="5.55845">
        <ele>301.7</ele>
        <time>2021-01-13T13:50:28Z</time>
      </trkpt>
      <trkpt lat="43.19833" lon="5.55853">
        <ele>301.2</ele>
        <time>2021-01-13T13:50:34Z</time>
      </trkpt>
      <trkpt lat="43.19834" lon="5.55861">
        <ele>300.6</ele>
        <time>2021-01-13T13:50:40Z</time>
      </trkpt>
      <trkpt lat="43.19835" lon="5.5587">
        <ele>300.2</ele>
        <time>2021-01-13T13:50:46Z</time>
      </trkpt>
      <trkpt lat="43.19836" lon="5.55879">
        <ele>299.9</ele>
        <time>2021-01-13T13:50:52Z</time>
      </trkpt>
      <trkpt lat="43.19834" lon="5.55887">
        <ele>300.8</ele>
        <time>2021-01-13T13:50:58Z</time>
      </trkpt>
      <trkpt lat="43.19834" lon="5.55893">
        <ele>300.6</ele>
        <time>2021-01-13T13:51:02Z</time>
      </trkpt>
      <trkpt lat="43.19834" lon="5.55902">
        <ele>300.6</ele>
        <time>2021-01-13T13:51:08Z</time>
      </trkpt>
      <trkpt lat="43.19834" lon="5.5591">
        <ele>300.9</ele>
        <time>2021-01-13T13:51:14Z</time>
      </trkpt>
      <trkpt lat="43.19836" lon="5.55917">
        <ele>299.8</ele>
        <time>2021-01-13T13:51:18Z</time>
      </trkpt>
      <trkpt lat="43.19836" lon="5.55923">
        <ele>299.1</ele>
        <time>2021-01-13T13:51:22Z</time>
      </trkpt>
      <trkpt lat="43.19836" lon="5.55929">
        <ele>298.9</ele>
        <time>2021-01-13T13:51:26Z</time>
      </trkpt>
      <trkpt lat="43.19834" lon="5.55938">
        <ele>299.2</ele>
        <time>2021-01-13T13:51:32Z</time>
      </trkpt>
      <trkpt lat="43.19833" lon="5.55945">
        <ele>299.2</ele>
        <time>2021-01-13T13:51:38Z</time>
      </trkpt>
      <trkpt lat="43.19833" lon="5.55954">
        <ele>298.8</ele>
        <time>2021-01-13T13:51:44Z</time>
      </trkpt>
      <trkpt lat="43.19835" lon="5.5596">
        <ele>297.7</ele>
        <time>2021-01-13T13:51:48Z</time>
      </trkpt>
      <trkpt lat="43.19836" lon="5.55969">
        <ele>296.8</ele>
        <time>2021-01-13T13:51:54Z</time>
      </trkpt>
      <trkpt lat="43.19837" lon="5.55978">
        <ele>295.8</ele>
        <time>2021-01-13T13:52:00Z</time>
      </trkpt>
      <trkpt lat="43.19832" lon="5.55984">
        <ele>297.2</ele>
        <time>2021-01-13T13:45:16Z</time>
      </trkpt>
      <trkpt lat="43.1983" lon="5.5599">
        <ele>297.3</ele>
        <time>2021-01-13T13:52:12Z</time>
      </trkpt>
      <trkpt lat="43.19831" lon="5.56">
        <ele>296.5</ele>
        <time>2021-01-13T13:52:18Z</time>
      </trkpt>
      <trkpt lat="43.19831" lon="5.56009">
        <ele>296.1</ele>
        <time>2021-01-13T13:52:24Z</time>
      </trkpt>
      <trkpt lat="43.19832" lon="5.56015">
        <ele>295.8</ele>
        <time>2021-01-13T13:52:28Z</time>
      </trkpt>
      <trkpt lat="43.19831" lon="5.56024">
        <ele>295.6</ele>
        <time>2021-01-13T13:52:34Z</time>
      </trkpt>
      <trkpt lat="43.19831" lon="5.56033">
        <ele>295.4</ele>
        <time>2021-01-13T13:52:40Z</time>
      </trkpt>
      <trkpt lat="43.19832" lon="5.56039">
        <ele>294.9</ele>
        <time>2021-01-13T13:52:44Z</time>
      </trkpt>
      <trkpt lat="43.19832" lon="5.56045">
        <ele>294.6</ele>
        <time>2021-01-13T13:52:48Z</time>
      </trkpt>
      <trkpt lat="43.19832" lon="5.56052">
        <ele>294.4</ele>
        <time>2021-01-13T13:52:52Z</time>
      </trkpt>
      <trkpt lat="43.19833" lon="5.56058">
        <ele>293.9</ele>
        <time>2021-01-13T13:52:56Z</time>
      </trkpt>
      <trkpt lat="43.19834" lon="5.56067">
        <ele>293.4</ele>
        <time>2021-01-13T13:53:02Z</time>
      </trkpt>
      <trkpt lat="43.19835" lon="5.56073">
        <ele>292.6</ele>
        <time>2021-01-13T13:53:06Z</time>
      </trkpt>
      <trkpt lat="43.19837" lon="5.5608">
        <ele>291.7</ele>
        <time>2021-01-13T13:53:10Z</time>
      </trkpt>
      <trkpt lat="43.19837" lon="5.56086">
        <ele>291.6</ele>
        <time>2021-01-13T13:53:14Z</time>
      </trkpt>
      <trkpt lat="43.19836" lon="5.56095">
        <ele>291.7</ele>
        <time>2021-01-13T13:53:20Z</time>
      </trkpt>
      <trkpt lat="43.19836" lon="5.56104">
        <ele>291.9</ele>
        <time>2021-01-13T13:53:26Z</time>
      </trkpt>
      <trkpt lat="43.19836" lon="5.56113">
        <ele>291.8</ele>
        <time>2021-01-13T13:53:32Z</time>
      </trkpt>
      <trkpt lat="43.19837" lon="5.56119">
        <ele>291.5</ele>
        <time>2021-01-13T13:53:36Z</time>
      </trkpt>
      <trkpt lat="43.19838" lon="5.56127">
        <ele>291.3</ele>
        <time>2021-01-13T13:53:42Z</time>
      </trkpt>
      <trkpt lat="43.19838" lon="5.56133">
        <ele>291</ele>
        <time>2021-01-13T13:53:46Z</time>
      </trkpt>
      <trkpt lat="43.19839" lon="5.56141">
        <ele>290.9</ele>
        <time>2021-01-13T13:53:52Z</time>
      </trkpt>
      <trkpt lat="43.19839" lon="5.56148">
        <ele>290.7</ele>
        <time>2021-01-13T13:53:56Z</time>
      </trkpt>
      <trkpt lat="43.1984" lon="5.56154">
        <ele>290.4</ele>
        <time>2021-01-13T13:54:00Z</time>
      </trkpt>
      <trkpt lat="43.19841" lon="5.5616">
        <ele>290.2</ele>
        <time>2021-01-13T13:54:04Z</time>
      </trkpt>
      <trkpt lat="43.19841" lon="5.56169">
        <ele>290.1</ele>
        <time>2021-01-13T13:54:10Z</time>
      </trkpt>
      <trkpt lat="43.19841" lon="5.56178">
        <ele>289.1</ele>
        <time>2021-01-13T13:54:16Z</time>
      </trkpt>
      <trkpt lat="43.19841" lon="5.56186">
        <ele>288.5</ele>
        <time>2021-01-13T13:54:22Z</time>
      </trkpt>
      <trkpt lat="43.19839" lon="5.56194">
        <ele>288.5</ele>
        <time>2021-01-13T13:54:28Z</time>
      </trkpt>
      <trkpt lat="43.19837" lon="5.56202">
        <ele>288.5</ele>
        <time>2021-01-13T13:54:34Z</time>
      </trkpt>
      <trkpt lat="43.19834" lon="5.56207">
        <ele>288.9</ele>
        <time>2021-01-13T13:54:38Z</time>
      </trkpt>
      <trkpt lat="43.19829" lon="5.56214">
        <ele>288.7</ele>
        <time>2021-01-13T13:54:44Z</time>
      </trkpt>
      <trkpt lat="43.19825" lon="5.56218">
        <ele>288.4</ele>
        <time>2021-01-13T13:54:48Z</time>
      </trkpt>
      <trkpt lat="43.19821" lon="5.56224">
        <ele>288</ele>
        <time>2021-01-13T13:54:54Z</time>
      </trkpt>
      <trkpt lat="43.19818" lon="5.5623">
        <ele>287.6</ele>
        <time>2021-01-13T13:54:58Z</time>
      </trkpt>
      <trkpt lat="43.19814" lon="5.56236">
        <ele>287.1</ele>
        <time>2021-01-13T13:55:04Z</time>
      </trkpt>
      <trkpt lat="43.19809" lon="5.56242">
        <ele>286.7</ele>
        <time>2021-01-13T13:55:10Z</time>
      </trkpt>
      <trkpt lat="43.19805" lon="5.56249">
        <ele>286.2</ele>
        <time>2021-01-13T13:55:16Z</time>
      </trkpt>
      <trkpt lat="43.19801" lon="5.56254">
        <ele>285.5</ele>
        <time>2021-01-13T13:55:22Z</time>
      </trkpt>
      <trkpt lat="43.19797" lon="5.56257">
        <ele>285.2</ele>
        <time>2021-01-13T13:55:26Z</time>
      </trkpt>
      <trkpt lat="43.19792" lon="5.56261">
        <ele>284.7</ele>
        <time>2021-01-13T13:55:30Z</time>
      </trkpt>
      <trkpt lat="43.1979" lon="5.56266">
        <ele>284.1</ele>
        <time>2021-01-13T13:55:36Z</time>
      </trkpt>
      <trkpt lat="43.19785" lon="5.56271">
        <ele>283.5</ele>
        <time>2021-01-13T13:55:42Z</time>
      </trkpt>
      <trkpt lat="43.19782" lon="5.56275">
        <ele>283.2</ele>
        <time>2021-01-13T13:55:46Z</time>
      </trkpt>
      <trkpt lat="43.19776" lon="5.56279">
        <ele>282.9</ele>
        <time>2021-01-13T13:55:52Z</time>
      </trkpt>
      <trkpt lat="43.19771" lon="5.56285">
        <ele>282.5</ele>
        <time>2021-01-13T13:55:58Z</time>
      </trkpt>
      <trkpt lat="43.19766" lon="5.56292">
        <ele>281.8</ele>
        <time>2021-01-13T13:56:04Z</time>
      </trkpt>
      <trkpt lat="43.19761" lon="5.56297">
        <ele>281.5</ele>
        <time>2021-01-13T13:56:10Z</time>
      </trkpt>
      <trkpt lat="43.19759" lon="5.56302">
        <ele>280.9</ele>
        <time>2021-01-13T13:56:14Z</time>
      </trkpt>
      <trkpt lat="43.19758" lon="5.56308">
        <ele>280.3</ele>
        <time>2021-01-13T13:56:18Z</time>
      </trkpt>
      <trkpt lat="43.19758" lon="5.56315">
        <ele>279.5</ele>
        <time>2021-01-13T13:56:22Z</time>
      </trkpt>
      <trkpt lat="43.19757" lon="5.56322">
        <ele>278.7</ele>
        <time>2021-01-13T13:56:26Z</time>
      </trkpt>
      <trkpt lat="43.19757" lon="5.56329">
        <ele>277.8</ele>
        <time>2021-01-13T13:56:32Z</time>
      </trkpt>
      <trkpt lat="43.19757" lon="5.56336">
        <ele>277</ele>
        <time>2021-01-13T13:56:36Z</time>
      </trkpt>
      <trkpt lat="43.19756" lon="5.56344">
        <ele>276.4</ele>
        <time>2021-01-13T13:56:42Z</time>
      </trkpt>
      <trkpt lat="43.19756" lon="5.56351">
        <ele>275.8</ele>
        <time>2021-01-13T13:56:46Z</time>
      </trkpt>
      <trkpt lat="43.19756" lon="5.56359">
        <ele>275.1</ele>
        <time>2021-01-13T13:56:52Z</time>
      </trkpt>
      <trkpt lat="43.19756" lon="5.56369">
        <ele>274.3</ele>
        <time>2021-01-13T13:56:58Z</time>
      </trkpt>
      <trkpt lat="43.19756" lon="5.56375">
        <ele>273.6</ele>
        <time>2021-01-13T13:57:02Z</time>
      </trkpt>
      <trkpt lat="43.19756" lon="5.56383">
        <ele>272.9</ele>
        <time>2021-01-13T13:57:08Z</time>
      </trkpt>
      <trkpt lat="43.19755" lon="5.56391">
        <ele>272.3</ele>
        <time>2021-01-13T13:57:14Z</time>
      </trkpt>
      <trkpt lat="43.19756" lon="5.56399">
        <ele>271.6</ele>
        <time>2021-01-13T13:57:20Z</time>
      </trkpt>
      <trkpt lat="43.19756" lon="5.56406">
        <ele>270.9</ele>
        <time>2021-01-13T13:57:24Z</time>
      </trkpt>
      <trkpt lat="43.19757" lon="5.56412">
        <ele>270.2</ele>
        <time>2021-01-13T13:57:28Z</time>
      </trkpt>
      <trkpt lat="43.19758" lon="5.56418">
        <ele>269.7</ele>
        <time>2021-01-13T13:57:32Z</time>
      </trkpt>
      <trkpt lat="43.1976" lon="5.56426">
        <ele>269.3</ele>
        <time>2021-01-13T13:57:38Z</time>
      </trkpt>
      <trkpt lat="43.19762" lon="5.56434">
        <ele>268.9</ele>
        <time>2021-01-13T13:57:44Z</time>
      </trkpt>
      <trkpt lat="43.19764" lon="5.5644">
        <ele>268.6</ele>
        <time>2021-01-13T13:57:48Z</time>
      </trkpt>
      <trkpt lat="43.19766" lon="5.56446">
        <ele>268.3</ele>
        <time>2021-01-13T13:57:52Z</time>
      </trkpt>
      <trkpt lat="43.19768" lon="5.56454">
        <ele>267.9</ele>
        <time>2021-01-13T13:57:58Z</time>
      </trkpt>
      <trkpt lat="43.19769" lon="5.56461">
        <ele>267.6</ele>
        <time>2021-01-13T13:58:04Z</time>
      </trkpt>
      <trkpt lat="43.19772" lon="5.56468">
        <ele>267.2</ele>
        <time>2021-01-13T13:58:10Z</time>
      </trkpt>
      <trkpt lat="43.19773" lon="5.56474">
        <ele>266.9</ele>
        <time>2021-01-13T13:58:14Z</time>
      </trkpt>
      <trkpt lat="43.19775" lon="5.56482">
        <ele>266.6</ele>
        <time>2021-01-13T13:58:20Z</time>
      </trkpt>
      <trkpt lat="43.19778" lon="5.5649">
        <ele>266</ele>
        <time>2021-01-13T13:58:26Z</time>
      </trkpt>
      <trkpt lat="43.19781" lon="5.56498">
        <ele>265.4</ele>
        <time>2021-01-13T13:58:32Z</time>
      </trkpt>
      <trkpt lat="43.19783" lon="5.56505">
        <ele>265.2</ele>
        <time>2021-01-13T13:58:38Z</time>
      </trkpt>
      <trkpt lat="43.19785" lon="5.5651">
        <ele>264.9</ele>
        <time>2021-01-13T13:58:42Z</time>
      </trkpt>
      <trkpt lat="43.19788" lon="5.56519">
        <ele>264.5</ele>
        <time>2021-01-13T13:58:48Z</time>
      </trkpt>
      <trkpt lat="43.19788" lon="5.56525">
        <ele>264.6</ele>
        <time>2021-01-13T13:58:54Z</time>
      </trkpt>
      <trkpt lat="43.19792" lon="5.56534">
        <ele>264</ele>
        <time>2021-01-13T13:59:00Z</time>
      </trkpt>
      <trkpt lat="43.19794" lon="5.56539">
        <ele>263.7</ele>
        <time>2021-01-13T13:59:04Z</time>
      </trkpt>
      <trkpt lat="43.19795" lon="5.56546">
        <ele>263.8</ele>
        <time>2021-01-13T13:59:10Z</time>
      </trkpt>
      <trkpt lat="43.19796" lon="5.56554">
        <ele>263.7</ele>
        <time>2021-01-13T13:59:16Z</time>
      </trkpt>
      <trkpt lat="43.19797" lon="5.56562">
        <ele>263.6</ele>
        <time>2021-01-13T13:59:22Z</time>
      </trkpt>
      <trkpt lat="43.19798" lon="5.56569">
        <ele>263.6</ele>
        <time>2021-01-13T13:59:28Z</time>
      </trkpt>
      <trkpt lat="43.198" lon="5.56576">
        <ele>263.4</ele>
        <time>2021-01-13T13:59:32Z</time>
      </trkpt>
      <trkpt lat="43.19802" lon="5.56585">
        <ele>263.3</ele>
        <time>2021-01-13T13:59:38Z</time>
      </trkpt>
      <trkpt lat="43.198" lon="5.56591">
        <ele>263.3</ele>
        <time>2021-01-13T10:09:33Z</time>
      </trkpt>
      <trkpt lat="43.19801" lon="5.566">
        <ele>263</ele>
        <time>2021-01-13T13:59:52Z</time>
      </trkpt>
      <trkpt lat="43.19803" lon="5.56607">
        <ele>262.3</ele>
        <time>2021-01-13T13:59:56Z</time>
      </trkpt>
      <trkpt lat="43.19804" lon="5.56613">
        <ele>261.9</ele>
        <time>2021-01-13T14:00:00Z</time>
      </trkpt>
      <trkpt lat="43.19805" lon="5.5662">
        <ele>261.6</ele>
        <time>2021-01-13T14:00:04Z</time>
      </trkpt>
      <trkpt lat="43.19806" lon="5.56629">
        <ele>261.2</ele>
        <time>2021-01-13T14:00:10Z</time>
      </trkpt>
      <trkpt lat="43.19806" lon="5.56636">
        <ele>260.9</ele>
        <time>2021-01-13T14:00:14Z</time>
      </trkpt>
      <trkpt lat="43.19807" lon="5.56644">
        <ele>260.5</ele>
        <time>2021-01-13T14:00:20Z</time>
      </trkpt>
      <trkpt lat="43.19807" lon="5.56652">
        <ele>260.2</ele>
        <time>2021-01-13T14:00:26Z</time>
      </trkpt>
      <trkpt lat="43.19809" lon="5.56658">
        <ele>259.9</ele>
        <time>2021-01-13T14:00:30Z</time>
      </trkpt>
      <trkpt lat="43.19809" lon="5.56664">
        <ele>259.5</ele>
        <time>2021-01-13T14:00:34Z</time>
      </trkpt>
      <trkpt lat="43.19809" lon="5.56673">
        <ele>258.5</ele>
        <time>2021-01-13T14:00:40Z</time>
      </trkpt>
      <trkpt lat="43.19807" lon="5.5668">
        <ele>257.4</ele>
        <time>2021-01-13T14:00:46Z</time>
      </trkpt>
      <trkpt lat="43.19804" lon="5.56686">
        <ele>256.9</ele>
        <time>2021-01-13T14:00:52Z</time>
      </trkpt>
      <trkpt lat="43.19801" lon="5.56695">
        <ele>256</ele>
        <time>2021-01-13T14:00:58Z</time>
      </trkpt>
      <trkpt lat="43.19797" lon="5.567">
        <ele>255.7</ele>
        <time>2021-01-13T14:01:04Z</time>
      </trkpt>
      <trkpt lat="43.19793" lon="5.56704">
        <ele>255.6</ele>
        <time>2021-01-13T14:01:08Z</time>
      </trkpt>
      <trkpt lat="43.19788" lon="5.56708">
        <ele>255.6</ele>
        <time>2021-01-13T14:01:12Z</time>
      </trkpt>
      <trkpt lat="43.19784" lon="5.56711">
        <ele>255.7</ele>
        <time>2021-01-13T14:01:16Z</time>
      </trkpt>
      <trkpt lat="43.19779" lon="5.56715">
        <ele>255.8</ele>
        <time>2021-01-13T14:01:22Z</time>
      </trkpt>
      <trkpt lat="43.19773" lon="5.5672">
        <ele>255.7</ele>
        <time>2021-01-13T14:01:28Z</time>
      </trkpt>
      <trkpt lat="43.19768" lon="5.56724">
        <ele>255.8</ele>
        <time>2021-01-13T14:01:34Z</time>
      </trkpt>
      <trkpt lat="43.19762" lon="5.56728">
        <ele>256</ele>
        <time>2021-01-13T14:01:40Z</time>
      </trkpt>
      <trkpt lat="43.19757" lon="5.56732">
        <ele>256</ele>
        <time>2021-01-13T14:01:46Z</time>
      </trkpt>
      <trkpt lat="43.19753" lon="5.56735">
        <ele>256.1</ele>
        <time>2021-01-13T14:01:52Z</time>
      </trkpt>
      <trkpt lat="43.19748" lon="5.56739">
        <ele>255.5</ele>
        <time>2021-01-13T14:01:58Z</time>
      </trkpt>
      <trkpt lat="43.19742" lon="5.56744">
        <ele>254.2</ele>
        <time>2021-01-13T14:02:04Z</time>
      </trkpt>
      <trkpt lat="43.19737" lon="5.56747">
        <ele>253.2</ele>
        <time>2021-01-13T14:02:10Z</time>
      </trkpt>
      <trkpt lat="43.19732" lon="5.56749">
        <ele>252.4</ele>
        <time>2021-01-13T14:02:16Z</time>
      </trkpt>
      <trkpt lat="43.19727" lon="5.56753">
        <ele>251.1</ele>
        <time>2021-01-13T14:02:22Z</time>
      </trkpt>
      <trkpt lat="43.19721" lon="5.56758">
        <ele>249.7</ele>
        <time>2021-01-13T14:02:28Z</time>
      </trkpt>
      <trkpt lat="43.19717" lon="5.56762">
        <ele>248.6</ele>
        <time>2021-01-13T14:02:34Z</time>
      </trkpt>
      <trkpt lat="43.19712" lon="5.56767">
        <ele>247.4</ele>
        <time>2021-01-13T14:02:40Z</time>
      </trkpt>
      <trkpt lat="43.19707" lon="5.56772">
        <ele>246.2</ele>
        <time>2021-01-13T14:02:46Z</time>
      </trkpt>
      <trkpt lat="43.19701" lon="5.56775">
        <ele>245.4</ele>
        <time>2021-01-13T14:02:52Z</time>
      </trkpt>
      <trkpt lat="43.19696" lon="5.56777">
        <ele>244.7</ele>
        <time>2021-01-13T14:02:58Z</time>
      </trkpt>
      <trkpt lat="43.1969" lon="5.56779">
        <ele>244.1</ele>
        <time>2021-01-13T14:03:04Z</time>
      </trkpt>
      <trkpt lat="43.19684" lon="5.56781">
        <ele>243.5</ele>
        <time>2021-01-13T14:03:10Z</time>
      </trkpt>
      <trkpt lat="43.19678" lon="5.56785">
        <ele>242.7</ele>
        <time>2021-01-13T14:03:16Z</time>
      </trkpt>
      <trkpt lat="43.19674" lon="5.56791">
        <ele>241.9</ele>
        <time>2021-01-13T14:03:22Z</time>
      </trkpt>
      <trkpt lat="43.19671" lon="5.56797">
        <ele>241</ele>
        <time>2021-01-13T14:03:30Z</time>
      </trkpt>
      <trkpt lat="43.1967" lon="5.56804">
        <ele>240.2</ele>
        <time>2021-01-13T14:03:42Z</time>
      </trkpt>
      <trkpt lat="43.19668" lon="5.56811">
        <ele>239.4</ele>
        <time>2021-01-13T14:03:52Z</time>
      </trkpt>
      <trkpt lat="43.19668" lon="5.56818">
        <ele>238.6</ele>
        <time>2021-01-13T14:04:00Z</time>
      </trkpt>
      <trkpt lat="43.19669" lon="5.56825">
        <ele>237.9</ele>
        <time>2021-01-13T14:04:06Z</time>
      </trkpt>
      <trkpt lat="43.19669" lon="5.56833">
        <ele>237</ele>
        <time>2021-01-13T14:04:14Z</time>
      </trkpt>
      <trkpt lat="43.19668" lon="5.5684">
        <ele>236.1</ele>
        <time>2021-01-13T14:04:22Z</time>
      </trkpt>
      <trkpt lat="43.19666" lon="5.56846">
        <ele>235.2</ele>
        <time>2021-01-13T14:04:30Z</time>
      </trkpt>
      <trkpt lat="43.19663" lon="5.56852">
        <ele>233.5</ele>
        <time>2021-01-13T14:04:38Z</time>
      </trkpt>
      <trkpt lat="43.19659" lon="5.56858">
        <ele>231.8</ele>
        <time>2021-01-13T14:04:46Z</time>
      </trkpt>
      <trkpt lat="43.19657" lon="5.56864">
        <ele>230.5</ele>
        <time>2021-01-13T14:04:52Z</time>
      </trkpt>
      <trkpt lat="43.19654" lon="5.5687">
        <ele>229.1</ele>
        <time>2021-01-13T14:04:58Z</time>
      </trkpt>
      <trkpt lat="43.19651" lon="5.56876">
        <ele>227.8</ele>
        <time>2021-01-13T14:05:04Z</time>
      </trkpt>
      <trkpt lat="43.19647" lon="5.56881">
        <ele>226.3</ele>
        <time>2021-01-13T14:05:10Z</time>
      </trkpt>
      <trkpt lat="43.19644" lon="5.56888">
        <ele>225</ele>
        <time>2021-01-13T14:05:16Z</time>
      </trkpt>
      <trkpt lat="43.1964" lon="5.56895">
        <ele>223.7</ele>
        <time>2021-01-13T14:05:22Z</time>
      </trkpt>
      <trkpt lat="43.19637" lon="5.56902">
        <ele>222.5</ele>
        <time>2021-01-13T14:05:28Z</time>
      </trkpt>
      <trkpt lat="43.19634" lon="5.56907">
        <ele>221.6</ele>
        <time>2021-01-13T14:05:32Z</time>
      </trkpt>
      <trkpt lat="43.19632" lon="5.56912">
        <ele>220.8</ele>
        <time>2021-01-13T14:05:36Z</time>
      </trkpt>
      <trkpt lat="43.19629" lon="5.56919">
        <ele>219.8</ele>
        <time>2021-01-13T14:05:42Z</time>
      </trkpt>
      <trkpt lat="43.19626" lon="5.56925">
        <ele>218.9</ele>
        <time>2021-01-13T14:05:48Z</time>
      </trkpt>
      <trkpt lat="43.19622" lon="5.56931">
        <ele>217.9</ele>
        <time>2021-01-13T14:05:54Z</time>
      </trkpt>
      <trkpt lat="43.19619" lon="5.56938">
        <ele>216.9</ele>
        <time>2021-01-13T14:06:00Z</time>
      </trkpt>
      <trkpt lat="43.19617" lon="5.56946">
        <ele>216.1</ele>
        <time>2021-01-13T14:06:06Z</time>
      </trkpt>
      <trkpt lat="43.19614" lon="5.56953">
        <ele>215.4</ele>
        <time>2021-01-13T14:06:12Z</time>
      </trkpt>
      <trkpt lat="43.19612" lon="5.56961">
        <ele>214.8</ele>
        <time>2021-01-13T14:06:18Z</time>
      </trkpt>
      <trkpt lat="43.1961" lon="5.56969">
        <ele>214.2</ele>
        <time>2021-01-13T14:06:24Z</time>
      </trkpt>
      <trkpt lat="43.19609" lon="5.56976">
        <ele>213.7</ele>
        <time>2021-01-13T14:06:30Z</time>
      </trkpt>
      <trkpt lat="43.19607" lon="5.56983">
        <ele>213.3</ele>
        <time>2021-01-13T14:06:36Z</time>
      </trkpt>
      <trkpt lat="43.19606" lon="5.56991">
        <ele>212.9</ele>
        <time>2021-01-13T14:06:42Z</time>
      </trkpt>
      <trkpt lat="43.19604" lon="5.56997">
        <ele>212.6</ele>
        <time>2021-01-13T14:06:48Z</time>
      </trkpt>
      <trkpt lat="43.19602" lon="5.57003">
        <ele>212.3</ele>
        <time>2021-01-13T14:06:54Z</time>
      </trkpt>
      <trkpt lat="43.19601" lon="5.57009">
        <ele>211.7</ele>
        <time>2021-01-13T14:07:00Z</time>
      </trkpt>
      <trkpt lat="43.19598" lon="5.57016">
        <ele>211.3</ele>
        <time>2021-01-13T14:07:06Z</time>
      </trkpt>
      <trkpt lat="43.19595" lon="5.57021">
        <ele>211</ele>
        <time>2021-01-13T14:07:12Z</time>
      </trkpt>
      <trkpt lat="43.19593" lon="5.57027">
        <ele>210.8</ele>
        <time>2021-01-13T14:07:18Z</time>
      </trkpt>
      <trkpt lat="43.1959" lon="5.57033">
        <ele>210.4</ele>
        <time>2021-01-13T14:07:24Z</time>
      </trkpt>
      <trkpt lat="43.19588" lon="5.5704">
        <ele>210.2</ele>
        <time>2021-01-13T14:07:30Z</time>
      </trkpt>
      <trkpt lat="43.19584" lon="5.57047">
        <ele>210.1</ele>
        <time>2021-01-13T14:07:38Z</time>
      </trkpt>
      <trkpt lat="43.19581" lon="5.57053">
        <ele>209.4</ele>
        <time>2021-01-13T14:07:44Z</time>
      </trkpt>
      <trkpt lat="43.19579" lon="5.57059">
        <ele>208.5</ele>
        <time>2021-01-13T14:07:50Z</time>
      </trkpt>
      <trkpt lat="43.19576" lon="5.57065">
        <ele>207.7</ele>
        <time>2021-01-13T14:07:56Z</time>
      </trkpt>
      <trkpt lat="43.19574" lon="5.57072">
        <ele>206.8</ele>
        <time>2021-01-13T14:08:02Z</time>
      </trkpt>
      <trkpt lat="43.19571" lon="5.57079">
        <ele>206</ele>
        <time>2021-01-13T14:08:08Z</time>
      </trkpt>
      <trkpt lat="43.19568" lon="5.57086">
        <ele>205.1</ele>
        <time>2021-01-13T14:08:14Z</time>
      </trkpt>
      <trkpt lat="43.19565" lon="5.57092">
        <ele>204.3</ele>
        <time>2021-01-13T14:08:20Z</time>
      </trkpt>
      <trkpt lat="43.19561" lon="5.57098">
        <ele>203.5</ele>
        <time>2021-01-13T14:08:26Z</time>
      </trkpt>
      <trkpt lat="43.19558" lon="5.57104">
        <ele>202.8</ele>
        <time>2021-01-13T14:08:32Z</time>
      </trkpt>
      <trkpt lat="43.19555" lon="5.5711">
        <ele>202.3</ele>
        <time>2021-01-13T14:08:38Z</time>
      </trkpt>
      <trkpt lat="43.19551" lon="5.57116">
        <ele>201.7</ele>
        <time>2021-01-13T14:08:44Z</time>
      </trkpt>
      <trkpt lat="43.19547" lon="5.57121">
        <ele>201.4</ele>
        <time>2021-01-13T14:08:50Z</time>
      </trkpt>
      <trkpt lat="43.19543" lon="5.57126">
        <ele>201.1</ele>
        <time>2021-01-13T14:08:56Z</time>
      </trkpt>
      <trkpt lat="43.19538" lon="5.57131">
        <ele>200.9</ele>
        <time>2021-01-13T14:09:02Z</time>
      </trkpt>
      <trkpt lat="43.19535" lon="5.57136">
        <ele>200.8</ele>
        <time>2021-01-13T14:09:06Z</time>
      </trkpt>
      <trkpt lat="43.19531" lon="5.57142">
        <ele>200.9</ele>
        <time>2021-01-13T14:09:12Z</time>
      </trkpt>
      <trkpt lat="43.19527" lon="5.57148">
        <ele>201.1</ele>
        <time>2021-01-13T14:09:18Z</time>
      </trkpt>
      <trkpt lat="43.19523" lon="5.57153">
        <ele>201.4</ele>
        <time>2021-01-13T14:09:24Z</time>
      </trkpt>
      <trkpt lat="43.19519" lon="5.57159">
        <ele>201.8</ele>
        <time>2021-01-13T14:09:30Z</time>
      </trkpt>
      <trkpt lat="43.19515" lon="5.57165">
        <ele>202.3</ele>
        <time>2021-01-13T14:09:36Z</time>
      </trkpt>
      <trkpt lat="43.1951" lon="5.5717">
        <ele>202.4</ele>
        <time>2021-01-13T14:09:42Z</time>
      </trkpt>
      <trkpt lat="43.19506" lon="5.57174">
        <ele>202.4</ele>
        <time>2021-01-13T14:09:46Z</time>
      </trkpt>
      <trkpt lat="43.19502" lon="5.57179">
        <ele>202.3</ele>
        <time>2021-01-13T14:09:52Z</time>
      </trkpt>
      <trkpt lat="43.19497" lon="5.57181">
        <ele>202</ele>
        <time>2021-01-13T14:09:58Z</time>
      </trkpt>
      <trkpt lat="43.19493" lon="5.57184">
        <ele>201.5</ele>
        <time>2021-01-13T14:10:10Z</time>
      </trkpt>
      <trkpt lat="43.19488" lon="5.57184">
        <ele>201</ele>
        <time>2021-01-13T14:11:02Z</time>
      </trkpt>
      <trkpt lat="43.19493" lon="5.5718">
        <ele>201.6</ele>
        <time>2021-01-13T14:11:50Z</time>
      </trkpt>
      <trkpt lat="43.19489" lon="5.57175">
        <ele>201.3</ele>
        <time>2021-01-13T14:12:04Z</time>
      </trkpt>
      <trkpt lat="43.19484" lon="5.57177">
        <ele>200.6</ele>
        <time>2021-01-13T14:12:48Z</time>
      </trkpt>
      <trkpt lat="43.19486" lon="5.57183">
        <ele>200.7</ele>
        <time>2021-01-13T14:12:54Z</time>
      </trkpt>
      <trkpt lat="43.19481" lon="5.57184">
        <ele>200.2</ele>
        <time>2021-01-13T14:13:12Z</time>
      </trkpt>
      <trkpt lat="43.19475" lon="5.57185">
        <ele>199.7</ele>
        <time>2021-01-13T14:13:18Z</time>
      </trkpt>
      <trkpt lat="43.1947" lon="5.57186">
        <ele>199.2</ele>
        <time>2021-01-13T14:13:22Z</time>
      </trkpt>
      <trkpt lat="43.19466" lon="5.57188">
        <ele>198.8</ele>
        <time>2021-01-13T14:13:26Z</time>
      </trkpt>
      <trkpt lat="43.1946" lon="5.5719">
        <ele>198.4</ele>
        <time>2021-01-13T14:13:30Z</time>
      </trkpt>
      <trkpt lat="43.19456" lon="5.57191">
        <ele>198.1</ele>
        <time>2021-01-13T14:13:34Z</time>
      </trkpt>
      <trkpt lat="43.19451" lon="5.57193">
        <ele>197.8</ele>
        <time>2021-01-13T14:13:38Z</time>
      </trkpt>
      <trkpt lat="43.19444" lon="5.57195">
        <ele>197.4</ele>
        <time>2021-01-13T14:13:44Z</time>
      </trkpt>
      <trkpt lat="43.19439" lon="5.57197">
        <ele>197.3</ele>
        <time>2021-01-13T14:13:48Z</time>
      </trkpt>
      <trkpt lat="43.19432" lon="5.572">
        <ele>197.2</ele>
        <time>2021-01-13T14:13:54Z</time>
      </trkpt>
      <trkpt lat="43.19428" lon="5.57202">
        <ele>197.2</ele>
        <time>2021-01-13T14:13:58Z</time>
      </trkpt>
      <trkpt lat="43.19423" lon="5.57204">
        <ele>197.2</ele>
        <time>2021-01-13T14:14:02Z</time>
      </trkpt>
      <trkpt lat="43.19417" lon="5.57208">
        <ele>197.4</ele>
        <time>2021-01-13T14:14:08Z</time>
      </trkpt>
      <trkpt lat="43.19413" lon="5.57212">
        <ele>196.8</ele>
        <time>2021-01-13T14:14:12Z</time>
      </trkpt>
      <trkpt lat="43.19409" lon="5.57216">
        <ele>196.4</ele>
        <time>2021-01-13T14:14:16Z</time>
      </trkpt>
      <trkpt lat="43.19405" lon="5.57221">
        <ele>195.8</ele>
        <time>2021-01-13T14:14:20Z</time>
      </trkpt>
      <trkpt lat="43.194" lon="5.57227">
        <ele>195.3</ele>
        <time>2021-01-13T14:14:26Z</time>
      </trkpt>
      <trkpt lat="43.19396" lon="5.57234">
        <ele>195.1</ele>
        <time>2021-01-13T14:14:32Z</time>
      </trkpt>
      <trkpt lat="43.19392" lon="5.57242">
        <ele>194.9</ele>
        <time>2021-01-13T14:14:38Z</time>
      </trkpt>
      <trkpt lat="43.19388" lon="5.57247">
        <ele>194.4</ele>
        <time>2021-01-13T14:14:42Z</time>
      </trkpt>
      <trkpt lat="43.19384" lon="5.57255">
        <ele>193.4</ele>
        <time>2021-01-13T14:14:48Z</time>
      </trkpt>
      <trkpt lat="43.19381" lon="5.57261">
        <ele>192.3</ele>
        <time>2021-01-13T14:14:54Z</time>
      </trkpt>
      <trkpt lat="43.19377" lon="5.57268">
        <ele>191.2</ele>
        <time>2021-01-13T14:15:00Z</time>
      </trkpt>
      <trkpt lat="43.19374" lon="5.57276">
        <ele>190.4</ele>
        <time>2021-01-13T14:15:06Z</time>
      </trkpt>
      <trkpt lat="43.1937" lon="5.57282">
        <ele>189.5</ele>
        <time>2021-01-13T14:15:14Z</time>
      </trkpt>
      <trkpt lat="43.19367" lon="5.57288">
        <ele>188.8</ele>
        <time>2021-01-13T14:15:20Z</time>
      </trkpt>
      <trkpt lat="43.19363" lon="5.57292">
        <ele>188</ele>
        <time>2021-01-13T14:15:28Z</time>
      </trkpt>
      <trkpt lat="43.19358" lon="5.57298">
        <ele>187.2</ele>
        <time>2021-01-13T14:15:36Z</time>
      </trkpt>
      <trkpt lat="43.19355" lon="5.57305">
        <ele>187.1</ele>
        <time>2021-01-13T14:15:42Z</time>
      </trkpt>
      <trkpt lat="43.19353" lon="5.57311">
        <ele>187</ele>
        <time>2021-01-13T14:15:48Z</time>
      </trkpt>
      <trkpt lat="43.19351" lon="5.57317">
        <ele>187</ele>
        <time>2021-01-13T14:15:52Z</time>
      </trkpt>
      <trkpt lat="43.19347" lon="5.57324">
        <ele>187</ele>
        <time>2021-01-13T14:15:58Z</time>
      </trkpt>
      <trkpt lat="43.19346" lon="5.57331">
        <ele>187.3</ele>
        <time>2021-01-13T14:16:12Z</time>
      </trkpt>
      <trkpt lat="43.19343" lon="5.57339">
        <ele>186.7</ele>
        <time>2021-01-13T14:16:18Z</time>
      </trkpt>
      <trkpt lat="43.19341" lon="5.57345">
        <ele>186</ele>
        <time>2021-01-13T14:16:22Z</time>
      </trkpt>
      <trkpt lat="43.19337" lon="5.57351">
        <ele>185.3</ele>
        <time>2021-01-13T14:16:26Z</time>
      </trkpt>
      <trkpt lat="43.19334" lon="5.5736">
        <ele>184.5</ele>
        <time>2021-01-13T14:16:32Z</time>
      </trkpt>
      <trkpt lat="43.19333" lon="5.57366">
        <ele>183.9</ele>
        <time>2021-01-13T14:16:36Z</time>
      </trkpt>
      <trkpt lat="43.19333" lon="5.57373">
        <ele>183.4</ele>
        <time>2021-01-13T14:16:40Z</time>
      </trkpt>
      <trkpt lat="43.19332" lon="5.57379">
        <ele>183</ele>
        <time>2021-01-13T14:16:44Z</time>
      </trkpt>
      <trkpt lat="43.19333" lon="5.57387">
        <ele>182.6</ele>
        <time>2021-01-13T14:16:48Z</time>
      </trkpt>
      <trkpt lat="43.19333" lon="5.57395">
        <ele>182.1</ele>
        <time>2021-01-13T14:16:54Z</time>
      </trkpt>
      <trkpt lat="43.19333" lon="5.57401">
        <ele>181.7</ele>
        <time>2021-01-13T14:16:58Z</time>
      </trkpt>
      <trkpt lat="43.19332" lon="5.5741">
        <ele>181</ele>
        <time>2021-01-13T14:17:04Z</time>
      </trkpt>
      <trkpt lat="43.19331" lon="5.57418">
        <ele>180.1</ele>
        <time>2021-01-13T14:17:10Z</time>
      </trkpt>
      <trkpt lat="43.1933" lon="5.57425">
        <ele>179.3</ele>
        <time>2021-01-13T14:17:14Z</time>
      </trkpt>
      <trkpt lat="43.1933" lon="5.57433">
        <ele>178.3</ele>
        <time>2021-01-13T14:17:20Z</time>
      </trkpt>
      <trkpt lat="43.19329" lon="5.57442">
        <ele>176.9</ele>
        <time>2021-01-13T14:17:26Z</time>
      </trkpt>
      <trkpt lat="43.19328" lon="5.57449">
        <ele>176</ele>
        <time>2021-01-13T14:17:30Z</time>
      </trkpt>
      <trkpt lat="43.19327" lon="5.57457">
        <ele>174.9</ele>
        <time>2021-01-13T14:17:36Z</time>
      </trkpt>
      <trkpt lat="43.19327" lon="5.57463">
        <ele>174.4</ele>
        <time>2021-01-13T14:17:40Z</time>
      </trkpt>
      <trkpt lat="43.1933" lon="5.5747">
        <ele>174.4</ele>
        <time>2021-01-13T14:17:44Z</time>
      </trkpt>
      <trkpt lat="43.19334" lon="5.57476">
        <ele>174.5</ele>
        <time>2021-01-13T14:17:48Z</time>
      </trkpt>
      <trkpt lat="43.1934" lon="5.57478">
        <ele>173.8</ele>
        <time>2021-01-13T14:17:52Z</time>
      </trkpt>
      <trkpt lat="43.19345" lon="5.57479">
        <ele>173.2</ele>
        <time>2021-01-13T14:17:56Z</time>
      </trkpt>
      <trkpt lat="43.19349" lon="5.57478">
        <ele>172.9</ele>
        <time>2021-01-13T14:18:00Z</time>
      </trkpt>
      <trkpt lat="43.19356" lon="5.57474">
        <ele>172.8</ele>
        <time>2021-01-13T14:18:06Z</time>
      </trkpt>
      <trkpt lat="43.1936" lon="5.57471">
        <ele>172.8</ele>
        <time>2021-01-13T14:18:10Z</time>
      </trkpt>
      <trkpt lat="43.19366" lon="5.57466">
        <ele>173</ele>
        <time>2021-01-13T14:18:16Z</time>
      </trkpt>
      <trkpt lat="43.19372" lon="5.57461">
        <ele>173.4</ele>
        <time>2021-01-13T14:18:22Z</time>
      </trkpt>
      <trkpt lat="43.19376" lon="5.57455">
        <ele>173.9</ele>
        <time>2021-01-13T14:18:28Z</time>
      </trkpt>
      <trkpt lat="43.1938" lon="5.57451">
        <ele>174.4</ele>
        <time>2021-01-13T14:18:32Z</time>
      </trkpt>
      <trkpt lat="43.19384" lon="5.57447">
        <ele>174.7</ele>
        <time>2021-01-13T14:18:36Z</time>
      </trkpt>
      <trkpt lat="43.19388" lon="5.57444">
        <ele>175.1</ele>
        <time>2021-01-13T14:18:40Z</time>
      </trkpt>
      <trkpt lat="43.19392" lon="5.57439">
        <ele>175.6</ele>
        <time>2021-01-13T14:18:44Z</time>
      </trkpt>
      <trkpt lat="43.19399" lon="5.57434">
        <ele>176.3</ele>
        <time>2021-01-13T14:18:50Z</time>
      </trkpt>
      <trkpt lat="43.19402" lon="5.57429">
        <ele>177.1</ele>
        <time>2021-01-13T14:18:56Z</time>
      </trkpt>
      <trkpt lat="43.19407" lon="5.57427">
        <ele>177.2</ele>
        <time>2021-01-13T14:19:00Z</time>
      </trkpt>
      <trkpt lat="43.19412" lon="5.57427">
        <ele>177.1</ele>
        <time>2021-01-13T14:19:04Z</time>
      </trkpt>
      <trkpt lat="43.19419" lon="5.57427">
        <ele>176.5</ele>
        <time>2021-01-13T14:19:10Z</time>
      </trkpt>
      <trkpt lat="43.19424" lon="5.57427">
        <ele>175.6</ele>
        <time>2021-01-13T14:19:14Z</time>
      </trkpt>
      <trkpt lat="43.1943" lon="5.57427">
        <ele>174.3</ele>
        <time>2021-01-13T14:19:20Z</time>
      </trkpt>
      <trkpt lat="43.19435" lon="5.57428">
        <ele>173.3</ele>
        <time>2021-01-13T14:19:24Z</time>
      </trkpt>
      <trkpt lat="43.1944" lon="5.57429">
        <ele>172.2</ele>
        <time>2021-01-13T14:19:28Z</time>
      </trkpt>
      <trkpt lat="43.19444" lon="5.5743">
        <ele>171.2</ele>
        <time>2021-01-13T14:19:32Z</time>
      </trkpt>
      <trkpt lat="43.19449" lon="5.57431">
        <ele>170.2</ele>
        <time>2021-01-13T14:19:36Z</time>
      </trkpt>
      <trkpt lat="43.19455" lon="5.57431">
        <ele>169</ele>
        <time>2021-01-13T14:19:42Z</time>
      </trkpt>
      <trkpt lat="43.19462" lon="5.57431">
        <ele>167.8</ele>
        <time>2021-01-13T14:19:48Z</time>
      </trkpt>
      <trkpt lat="43.19468" lon="5.57429">
        <ele>167</ele>
        <time>2021-01-13T14:19:54Z</time>
      </trkpt>
      <trkpt lat="43.19475" lon="5.57425">
        <ele>166.4</ele>
        <time>2021-01-13T14:20:00Z</time>
      </trkpt>
      <trkpt lat="43.19479" lon="5.57423">
        <ele>165.9</ele>
        <time>2021-01-13T14:20:04Z</time>
      </trkpt>
      <trkpt lat="43.19483" lon="5.5742">
        <ele>165.6</ele>
        <time>2021-01-13T14:20:08Z</time>
      </trkpt>
      <trkpt lat="43.19488" lon="5.57418">
        <ele>165.1</ele>
        <time>2021-01-13T14:20:12Z</time>
      </trkpt>
      <trkpt lat="43.19493" lon="5.57415">
        <ele>164.7</ele>
        <time>2021-01-13T14:20:16Z</time>
      </trkpt>
      <trkpt lat="43.19497" lon="5.57411">
        <ele>164.6</ele>
        <time>2021-01-13T14:20:20Z</time>
      </trkpt>
      <trkpt lat="43.19503" lon="5.57406">
        <ele>164.9</ele>
        <time>2021-01-13T14:20:26Z</time>
      </trkpt>
      <trkpt lat="43.19507" lon="5.57402">
        <ele>165.1</ele>
        <time>2021-01-13T14:20:30Z</time>
      </trkpt>
      <trkpt lat="43.19511" lon="5.574">
        <ele>165.1</ele>
        <time>2021-01-13T14:20:34Z</time>
      </trkpt>
      <trkpt lat="43.19515" lon="5.57394">
        <ele>165.7</ele>
        <time>2021-01-13T14:20:40Z</time>
      </trkpt>
      <trkpt lat="43.19519" lon="5.5739">
        <ele>166</ele>
        <time>2021-01-13T14:20:44Z</time>
      </trkpt>
      <trkpt lat="43.19522" lon="5.57385">
        <ele>166.5</ele>
        <time>2021-01-13T14:20:48Z</time>
      </trkpt>
      <trkpt lat="43.19526" lon="5.57379">
        <ele>167.1</ele>
        <time>2021-01-13T14:20:54Z</time>
      </trkpt>
      <trkpt lat="43.19531" lon="5.57374">
        <ele>167.3</ele>
        <time>2021-01-13T14:21:00Z</time>
      </trkpt>
      <trkpt lat="43.19537" lon="5.57371">
        <ele>167.2</ele>
        <time>2021-01-13T14:21:06Z</time>
      </trkpt>
      <trkpt lat="43.19542" lon="5.57369">
        <ele>166.8</ele>
        <time>2021-01-13T14:21:10Z</time>
      </trkpt>
      <trkpt lat="43.19547" lon="5.57371">
        <ele>165.7</ele>
        <time>2021-01-13T14:21:16Z</time>
      </trkpt>
      <trkpt lat="43.19552" lon="5.57377">
        <ele>164</ele>
        <time>2021-01-13T14:21:38Z</time>
      </trkpt>
      <trkpt lat="43.19556" lon="5.57381">
        <ele>162.8</ele>
        <time>2021-01-13T14:21:42Z</time>
      </trkpt>
      <trkpt lat="43.1956" lon="5.57384">
        <ele>161.6</ele>
        <time>2021-01-13T14:21:46Z</time>
      </trkpt>
      <trkpt lat="43.19564" lon="5.57387">
        <ele>160.4</ele>
        <time>2021-01-13T14:21:50Z</time>
      </trkpt>
      <trkpt lat="43.19569" lon="5.5739">
        <ele>159.5</ele>
        <time>2021-01-13T14:21:54Z</time>
      </trkpt>
      <trkpt lat="43.19573" lon="5.5739">
        <ele>158.9</ele>
        <time>2021-01-13T14:21:58Z</time>
      </trkpt>
      <trkpt lat="43.19579" lon="5.57387">
        <ele>158.5</ele>
        <time>2021-01-13T14:22:04Z</time>
      </trkpt>
      <trkpt lat="43.19584" lon="5.57383">
        <ele>158.7</ele>
        <time>2021-01-13T14:22:08Z</time>
      </trkpt>
      <trkpt lat="43.19588" lon="5.5738">
        <ele>159.4</ele>
        <time>2021-01-13T14:22:12Z</time>
      </trkpt>
      <trkpt lat="43.19593" lon="5.57377">
        <ele>160.1</ele>
        <time>2021-01-13T14:22:16Z</time>
      </trkpt>
      <trkpt lat="43.19598" lon="5.57374">
        <ele>160.8</ele>
        <time>2021-01-13T14:22:20Z</time>
      </trkpt>
      <trkpt lat="43.19604" lon="5.5737">
        <ele>161.4</ele>
        <time>2021-01-13T14:22:26Z</time>
      </trkpt>
      <trkpt lat="43.19608" lon="5.57365">
        <ele>162</ele>
        <time>2021-01-13T14:22:30Z</time>
      </trkpt>
      <trkpt lat="43.19611" lon="5.57361">
        <ele>162.5</ele>
        <time>2021-01-13T14:22:34Z</time>
      </trkpt>
      <trkpt lat="43.19615" lon="5.57356">
        <ele>162.9</ele>
        <time>2021-01-13T14:22:38Z</time>
      </trkpt>
      <trkpt lat="43.19618" lon="5.57351">
        <ele>163.2</ele>
        <time>2021-01-13T14:22:42Z</time>
      </trkpt>
      <trkpt lat="43.19619" lon="5.57344">
        <ele>163.6</ele>
        <time>2021-01-13T14:22:46Z</time>
      </trkpt>
      <trkpt lat="43.19621" lon="5.57338">
        <ele>164</ele>
        <time>2021-01-13T14:22:50Z</time>
      </trkpt>
      <trkpt lat="43.19623" lon="5.57332">
        <ele>164.3</ele>
        <time>2021-01-13T14:22:54Z</time>
      </trkpt>
      <trkpt lat="43.19627" lon="5.57327">
        <ele>164.8</ele>
        <time>2021-01-13T14:23:00Z</time>
      </trkpt>
      <trkpt lat="43.19632" lon="5.57322">
        <ele>164.9</ele>
        <time>2021-01-13T14:23:06Z</time>
      </trkpt>
      <trkpt lat="43.19637" lon="5.5732">
        <ele>164.7</ele>
        <time>2021-01-13T14:23:10Z</time>
      </trkpt>
      <trkpt lat="43.19642" lon="5.57319">
        <ele>164.3</ele>
        <time>2021-01-13T14:23:14Z</time>
      </trkpt>
      <trkpt lat="43.19647" lon="5.57318">
        <ele>163.9</ele>
        <time>2021-01-13T14:23:18Z</time>
      </trkpt>
      <trkpt lat="43.19651" lon="5.57317">
        <ele>163.4</ele>
        <time>2021-01-13T14:23:22Z</time>
      </trkpt>
      <trkpt lat="43.19656" lon="5.57317">
        <ele>162.9</ele>
        <time>2021-01-13T14:23:26Z</time>
      </trkpt>
      <trkpt lat="43.19662" lon="5.57314">
        <ele>162.4</ele>
        <time>2021-01-13T14:23:32Z</time>
      </trkpt>
      <trkpt lat="43.19661" lon="5.5732">
        <ele>162.2</ele>
        <time>2021-01-13T14:23:40Z</time>
      </trkpt>
      <trkpt lat="43.19655" lon="5.57322">
        <ele>162.7</ele>
        <time>2021-01-13T14:23:44Z</time>
      </trkpt>
      <trkpt lat="43.1965" lon="5.57323">
        <ele>163.1</ele>
        <time>2021-01-13T14:23:50Z</time>
      </trkpt>
      <trkpt lat="43.19645" lon="5.57328">
        <ele>163.1</ele>
        <time>2021-01-13T14:23:56Z</time>
      </trkpt>
      <trkpt lat="43.19641" lon="5.57332">
        <ele>163</ele>
        <time>2021-01-13T14:24:00Z</time>
      </trkpt>
      <trkpt lat="43.19638" lon="5.57338">
        <ele>163</ele>
        <time>2021-01-13T14:24:04Z</time>
      </trkpt>
      <trkpt lat="43.19636" lon="5.57345">
        <ele>162.9</ele>
        <time>2021-01-13T14:24:38Z</time>
      </trkpt>
      <trkpt lat="43.19634" lon="5.57352">
        <ele>162.8</ele>
        <time>2021-01-13T14:24:44Z</time>
      </trkpt>
      <trkpt lat="43.19635" lon="5.5736">
        <ele>162.6</ele>
        <time>2021-01-13T14:24:50Z</time>
      </trkpt>
      <trkpt lat="43.19637" lon="5.57367">
        <ele>162.4</ele>
        <time>2021-01-13T14:24:54Z</time>
      </trkpt>
      <trkpt lat="43.19636" lon="5.57374">
        <ele>162.2</ele>
        <time>2021-01-13T14:25:00Z</time>
      </trkpt>
      <trkpt lat="43.19636" lon="5.57382">
        <ele>162.1</ele>
        <time>2021-01-13T14:25:06Z</time>
      </trkpt>
      <trkpt lat="43.19634" lon="5.57388">
        <ele>161.8</ele>
        <time>2021-01-13T14:25:10Z</time>
      </trkpt>
      <trkpt lat="43.19632" lon="5.57394">
        <ele>161.4</ele>
        <time>2021-01-13T14:25:14Z</time>
      </trkpt>
      <trkpt lat="43.19629" lon="5.57397">
        <ele>160.9</ele>
        <time>2021-01-13T14:25:20Z</time>
      </trkpt>
      <trkpt lat="43.19625" lon="5.57402">
        <ele>160.3</ele>
        <time>2021-01-13T14:25:26Z</time>
      </trkpt>
      <trkpt lat="43.19619" lon="5.57406">
        <ele>159.3</ele>
        <time>2021-01-13T14:25:32Z</time>
      </trkpt>
      <trkpt lat="43.19614" lon="5.57408">
        <ele>158.5</ele>
        <time>2021-01-13T14:25:36Z</time>
      </trkpt>
      <trkpt lat="43.19611" lon="5.57413">
        <ele>157.6</ele>
        <time>2021-01-13T14:25:40Z</time>
      </trkpt>
      <trkpt lat="43.19607" lon="5.57417">
        <ele>156.7</ele>
        <time>2021-01-13T14:25:44Z</time>
      </trkpt>
      <trkpt lat="43.19602" lon="5.57421">
        <ele>155.8</ele>
        <time>2021-01-13T14:25:50Z</time>
      </trkpt>
      <trkpt lat="43.19599" lon="5.57427">
        <ele>155.1</ele>
        <time>2021-01-13T14:25:56Z</time>
      </trkpt>
      <trkpt lat="43.19596" lon="5.57433">
        <ele>154.4</ele>
        <time>2021-01-13T14:26:00Z</time>
      </trkpt>
      <trkpt lat="43.19594" lon="5.57441">
        <ele>153.8</ele>
        <time>2021-01-13T14:26:04Z</time>
      </trkpt>
      <trkpt lat="43.19592" lon="5.57447">
        <ele>153.2</ele>
        <time>2021-01-13T14:26:08Z</time>
      </trkpt>
      <trkpt lat="43.1959" lon="5.57453">
        <ele>152.3</ele>
        <time>2021-01-13T14:26:14Z</time>
      </trkpt>
      <trkpt lat="43.19587" lon="5.57459">
        <ele>151.4</ele>
        <time>2021-01-13T14:26:22Z</time>
      </trkpt>
      <trkpt lat="43.19582" lon="5.57464">
        <ele>150.2</ele>
        <time>2021-01-13T14:26:26Z</time>
      </trkpt>
      <trkpt lat="43.19578" lon="5.57467">
        <ele>150.3</ele>
        <time>2021-01-13T14:26:30Z</time>
      </trkpt>
      <trkpt lat="43.19574" lon="5.57474">
        <ele>150.1</ele>
        <time>2021-01-13T14:26:36Z</time>
      </trkpt>
      <trkpt lat="43.1957" lon="5.57477">
        <ele>150</ele>
        <time>2021-01-13T14:26:40Z</time>
      </trkpt>
      <trkpt lat="43.19565" lon="5.57482">
        <ele>149.9</ele>
        <time>2021-01-13T14:26:46Z</time>
      </trkpt>
      <trkpt lat="43.19561" lon="5.57485">
        <ele>149.8</ele>
        <time>2021-01-13T14:26:50Z</time>
      </trkpt>
      <trkpt lat="43.19556" lon="5.57489">
        <ele>149.7</ele>
        <time>2021-01-13T14:26:54Z</time>
      </trkpt>
      <trkpt lat="43.19551" lon="5.57494">
        <ele>149.4</ele>
        <time>2021-01-13T14:27:00Z</time>
      </trkpt>
      <trkpt lat="43.19547" lon="5.57497">
        <ele>149.1</ele>
        <time>2021-01-13T14:27:04Z</time>
      </trkpt>
      <trkpt lat="43.19541" lon="5.57501">
        <ele>149.1</ele>
        <time>2021-01-13T14:27:10Z</time>
      </trkpt>
      <trkpt lat="43.19536" lon="5.57508">
        <ele>149.4</ele>
        <time>2021-01-13T14:27:16Z</time>
      </trkpt>
      <trkpt lat="43.19532" lon="5.57512">
        <ele>149.5</ele>
        <time>2021-01-13T14:27:20Z</time>
      </trkpt>
      <trkpt lat="43.19526" lon="5.57518">
        <ele>149.4</ele>
        <time>2021-01-13T14:27:26Z</time>
      </trkpt>
      <trkpt lat="43.19522" lon="5.57521">
        <ele>149.2</ele>
        <time>2021-01-13T14:27:30Z</time>
      </trkpt>
      <trkpt lat="43.19519" lon="5.57526">
        <ele>149</ele>
        <time>2021-01-13T14:27:34Z</time>
      </trkpt>
      <trkpt lat="43.19516" lon="5.5753">
        <ele>148.7</ele>
        <time>2021-01-13T14:27:38Z</time>
      </trkpt>
      <trkpt lat="43.19511" lon="5.57534">
        <ele>148.1</ele>
        <time>2021-01-13T14:27:44Z</time>
      </trkpt>
      <trkpt lat="43.19505" lon="5.57536">
        <ele>147.4</ele>
        <time>2021-01-13T14:27:50Z</time>
      </trkpt>
      <trkpt lat="43.19501" lon="5.5754">
        <ele>146.7</ele>
        <time>2021-01-13T14:27:54Z</time>
      </trkpt>
      <trkpt lat="43.19498" lon="5.57547">
        <ele>146.2</ele>
        <time>2021-01-13T14:27:58Z</time>
      </trkpt>
      <trkpt lat="43.19493" lon="5.57554">
        <ele>145.8</ele>
        <time>2021-01-13T14:28:04Z</time>
      </trkpt>
      <trkpt lat="43.1949" lon="5.57559">
        <ele>145.4</ele>
        <time>2021-01-13T14:28:08Z</time>
      </trkpt>
      <trkpt lat="43.19486" lon="5.57563">
        <ele>145.1</ele>
        <time>2021-01-13T14:28:12Z</time>
      </trkpt>
      <trkpt lat="43.19482" lon="5.57567">
        <ele>144.7</ele>
        <time>2021-01-13T14:28:16Z</time>
      </trkpt>
      <trkpt lat="43.19478" lon="5.5757">
        <ele>144.4</ele>
        <time>2021-01-13T14:28:20Z</time>
      </trkpt>
      <trkpt lat="43.19474" lon="5.57574">
        <ele>143.9</ele>
        <time>2021-01-13T14:28:24Z</time>
      </trkpt>
      <trkpt lat="43.1947" lon="5.57578">
        <ele>143.4</ele>
        <time>2021-01-13T14:28:28Z</time>
      </trkpt>
      <trkpt lat="43.19467" lon="5.57583">
        <ele>142.7</ele>
        <time>2021-01-13T14:28:32Z</time>
      </trkpt>
      <trkpt lat="43.19464" lon="5.57588">
        <ele>142.8</ele>
        <time>2021-01-13T14:28:36Z</time>
      </trkpt>
      <trkpt lat="43.19459" lon="5.57594">
        <ele>143</ele>
        <time>2021-01-13T14:28:42Z</time>
      </trkpt>
      <trkpt lat="43.19455" lon="5.57597">
        <ele>142.9</ele>
        <time>2021-01-13T14:28:46Z</time>
      </trkpt>
      <trkpt lat="43.19451" lon="5.57602">
        <ele>142.8</ele>
        <time>2021-01-13T14:28:50Z</time>
      </trkpt>
      <trkpt lat="43.19448" lon="5.57608">
        <ele>142.6</ele>
        <time>2021-01-13T14:28:56Z</time>
      </trkpt>
      <trkpt lat="43.19444" lon="5.57612">
        <ele>142.3</ele>
        <time>2021-01-13T14:29:02Z</time>
      </trkpt>
      <trkpt lat="43.19439" lon="5.57614">
        <ele>141.8</ele>
        <time>2021-01-13T14:29:06Z</time>
      </trkpt>
      <trkpt lat="43.19435" lon="5.57616">
        <ele>141.2</ele>
        <time>2021-01-13T14:29:10Z</time>
      </trkpt>
      <trkpt lat="43.1943" lon="5.57618">
        <ele>140.6</ele>
        <time>2021-01-13T14:29:14Z</time>
      </trkpt>
      <trkpt lat="43.19425" lon="5.5762">
        <ele>139.9</ele>
        <time>2021-01-13T14:29:18Z</time>
      </trkpt>
      <trkpt lat="43.1942" lon="5.57621">
        <ele>139.2</ele>
        <time>2021-01-13T14:29:22Z</time>
      </trkpt>
      <trkpt lat="43.19414" lon="5.57623">
        <ele>139</ele>
        <time>2021-01-13T14:29:28Z</time>
      </trkpt>
      <trkpt lat="43.19408" lon="5.57624">
        <ele>139.9</ele>
        <time>2021-01-13T14:29:34Z</time>
      </trkpt>
      <trkpt lat="43.19402" lon="5.57625">
        <ele>140.5</ele>
        <time>2021-01-13T14:29:38Z</time>
      </trkpt>
      <trkpt lat="43.19397" lon="5.5763">
        <ele>140.7</ele>
        <time>2021-01-13T14:29:44Z</time>
      </trkpt>
      <trkpt lat="43.19394" lon="5.57634">
        <ele>140.7</ele>
        <time>2021-01-13T14:29:48Z</time>
      </trkpt>
      <trkpt lat="43.19391" lon="5.5764">
        <ele>140.4</ele>
        <time>2021-01-13T14:29:52Z</time>
      </trkpt>
      <trkpt lat="43.19388" lon="5.57646">
        <ele>140</ele>
        <time>2021-01-13T14:29:56Z</time>
      </trkpt>
      <trkpt lat="43.19386" lon="5.57651">
        <ele>139.5</ele>
        <time>2021-01-13T14:30:00Z</time>
      </trkpt>
      <trkpt lat="43.19385" lon="5.57659">
        <ele>138.6</ele>
        <time>2021-01-13T14:30:04Z</time>
      </trkpt>
      <trkpt lat="43.19384" lon="5.57666">
        <ele>137.8</ele>
        <time>2021-01-13T14:30:08Z</time>
      </trkpt>
      <trkpt lat="43.19382" lon="5.57672">
        <ele>138</ele>
        <time>2021-01-13T14:30:12Z</time>
      </trkpt>
      <trkpt lat="43.19381" lon="5.57679">
        <ele>138.2</ele>
        <time>2021-01-13T14:30:16Z</time>
      </trkpt>
      <trkpt lat="43.19379" lon="5.57687">
        <ele>138.4</ele>
        <time>2021-01-13T14:30:22Z</time>
      </trkpt>
      <trkpt lat="43.19376" lon="5.57692">
        <ele>138.5</ele>
        <time>2021-01-13T14:30:26Z</time>
      </trkpt>
      <trkpt lat="43.19372" lon="5.57699">
        <ele>138.5</ele>
        <time>2021-01-13T14:30:32Z</time>
      </trkpt>
      <trkpt lat="43.19369" lon="5.57704">
        <ele>138.4</ele>
        <time>2021-01-13T14:30:36Z</time>
      </trkpt>
      <trkpt lat="43.19365" lon="5.57711">
        <ele>138.2</ele>
        <time>2021-01-13T14:30:42Z</time>
      </trkpt>
      <trkpt lat="43.1936" lon="5.57717">
        <ele>137.8</ele>
        <time>2021-01-13T14:30:48Z</time>
      </trkpt>
      <trkpt lat="43.19356" lon="5.57724">
        <ele>137.3</ele>
        <time>2021-01-13T14:30:54Z</time>
      </trkpt>
      <trkpt lat="43.19354" lon="5.57729">
        <ele>136.8</ele>
        <time>2021-01-13T14:30:58Z</time>
      </trkpt>
      <trkpt lat="43.19351" lon="5.57735">
        <ele>136.3</ele>
        <time>2021-01-13T14:31:02Z</time>
      </trkpt>
      <trkpt lat="43.19348" lon="5.5774">
        <ele>135.6</ele>
        <time>2021-01-13T14:31:06Z</time>
      </trkpt>
      <trkpt lat="43.19344" lon="5.57748">
        <ele>134.5</ele>
        <time>2021-01-13T14:31:12Z</time>
      </trkpt>
      <trkpt lat="43.19342" lon="5.57755">
        <ele>133.8</ele>
        <time>2021-01-13T14:31:16Z</time>
      </trkpt>
      <trkpt lat="43.1934" lon="5.57761">
        <ele>133.3</ele>
        <time>2021-01-13T14:31:20Z</time>
      </trkpt>
      <trkpt lat="43.19338" lon="5.5777">
        <ele>132.6</ele>
        <time>2021-01-13T14:31:26Z</time>
      </trkpt>
      <trkpt lat="43.19337" lon="5.57776">
        <ele>132</ele>
        <time>2021-01-13T14:31:30Z</time>
      </trkpt>
      <trkpt lat="43.19336" lon="5.57782">
        <ele>131.5</ele>
        <time>2021-01-13T14:31:34Z</time>
      </trkpt>
      <trkpt lat="43.19335" lon="5.57789">
        <ele>131</ele>
        <time>2021-01-13T14:31:38Z</time>
      </trkpt>
      <trkpt lat="43.19335" lon="5.57795">
        <ele>130.6</ele>
        <time>2021-01-13T14:31:42Z</time>
      </trkpt>
      <trkpt lat="43.19335" lon="5.57801">
        <ele>130.3</ele>
        <time>2021-01-13T14:31:46Z</time>
      </trkpt>
      <trkpt lat="43.19333" lon="5.57807">
        <ele>129.6</ele>
        <time>2021-01-13T14:31:50Z</time>
      </trkpt>
      <trkpt lat="43.19332" lon="5.57814">
        <ele>129.3</ele>
        <time>2021-01-13T14:31:54Z</time>
      </trkpt>
      <trkpt lat="43.19331" lon="5.5782">
        <ele>129.1</ele>
        <time>2021-01-13T14:31:58Z</time>
      </trkpt>
      <trkpt lat="43.19329" lon="5.57826">
        <ele>128.8</ele>
        <time>2021-01-13T14:32:04Z</time>
      </trkpt>
      <trkpt lat="43.19328" lon="5.57832">
        <ele>128.5</ele>
        <time>2021-01-13T14:32:08Z</time>
      </trkpt>
      <trkpt lat="43.19328" lon="5.5784">
        <ele>128.4</ele>
        <time>2021-01-13T14:32:14Z</time>
      </trkpt>
      <trkpt lat="43.19328" lon="5.57849">
        <ele>128.1</ele>
        <time>2021-01-13T14:32:20Z</time>
      </trkpt>
      <trkpt lat="43.19326" lon="5.57856">
        <ele>128.1</ele>
        <time>2021-01-13T14:32:26Z</time>
      </trkpt>
      <trkpt lat="43.19327" lon="5.57866">
        <ele>127.8</ele>
        <time>2021-01-13T14:32:32Z</time>
      </trkpt>
      <trkpt lat="43.19327" lon="5.57873">
        <ele>127.6</ele>
        <time>2021-01-13T14:32:36Z</time>
      </trkpt>
      <trkpt lat="43.19327" lon="5.57879">
        <ele>127.4</ele>
        <time>2021-01-13T14:32:40Z</time>
      </trkpt>
      <trkpt lat="43.19327" lon="5.57886">
        <ele>127.2</ele>
        <time>2021-01-13T14:32:44Z</time>
      </trkpt>
      <trkpt lat="43.19327" lon="5.57892">
        <ele>127.1</ele>
        <time>2021-01-13T14:32:48Z</time>
      </trkpt>
      <trkpt lat="43.19329" lon="5.57898">
        <ele>126.8</ele>
        <time>2021-01-13T14:32:52Z</time>
      </trkpt>
      <trkpt lat="43.19329" lon="5.57904">
        <ele>126.6</ele>
        <time>2021-01-13T14:32:56Z</time>
      </trkpt>
      <trkpt lat="43.19328" lon="5.57913">
        <ele>126.5</ele>
        <time>2021-01-13T14:33:02Z</time>
      </trkpt>
      <trkpt lat="43.19327" lon="5.57919">
        <ele>126.3</ele>
        <time>2021-01-13T14:33:06Z</time>
      </trkpt>
      <trkpt lat="43.19327" lon="5.57926">
        <ele>125.9</ele>
        <time>2021-01-13T14:33:10Z</time>
      </trkpt>
      <trkpt lat="43.19327" lon="5.57932">
        <ele>125.6</ele>
        <time>2021-01-13T14:33:14Z</time>
      </trkpt>
      <trkpt lat="43.19327" lon="5.57939">
        <ele>125.2</ele>
        <time>2021-01-13T14:33:18Z</time>
      </trkpt>
      <trkpt lat="43.19327" lon="5.57946">
        <ele>124.8</ele>
        <time>2021-01-13T14:33:22Z</time>
      </trkpt>
      <trkpt lat="43.19327" lon="5.57952">
        <ele>124.4</ele>
        <time>2021-01-13T14:33:26Z</time>
      </trkpt>
      <trkpt lat="43.19324" lon="5.5796">
        <ele>124</ele>
        <time>2021-01-13T14:33:32Z</time>
      </trkpt>
      <trkpt lat="43.1932" lon="5.57967">
        <ele>123.7</ele>
        <time>2021-01-13T14:33:38Z</time>
      </trkpt>
      <trkpt lat="43.19318" lon="5.57976">
        <ele>123.1</ele>
        <time>2021-01-13T14:33:44Z</time>
      </trkpt>
      <trkpt lat="43.19318" lon="5.57982">
        <ele>122.7</ele>
        <time>2021-01-13T14:33:48Z</time>
      </trkpt>
      <trkpt lat="43.19319" lon="5.5799">
        <ele>122.1</ele>
        <time>2021-01-13T14:33:54Z</time>
      </trkpt>
      <trkpt lat="43.19318" lon="5.57999">
        <ele>121.5</ele>
        <time>2021-01-13T14:34:00Z</time>
      </trkpt>
      <trkpt lat="43.19316" lon="5.58005">
        <ele>121.2</ele>
        <time>2021-01-13T14:34:04Z</time>
      </trkpt>
      <trkpt lat="43.19311" lon="5.5801">
        <ele>120.7</ele>
        <time>2021-01-13T14:34:10Z</time>
      </trkpt>
      <trkpt lat="43.19305" lon="5.58013">
        <ele>120.3</ele>
        <time>2021-01-13T14:34:16Z</time>
      </trkpt>
      <trkpt lat="43.19299" lon="5.58012">
        <ele>120.1</ele>
        <time>2021-01-13T14:34:22Z</time>
      </trkpt>
      <trkpt lat="43.19292" lon="5.58012">
        <ele>119.7</ele>
        <time>2021-01-13T14:34:28Z</time>
      </trkpt>
      <trkpt lat="43.19287" lon="5.58012">
        <ele>119.5</ele>
        <time>2021-01-13T14:34:32Z</time>
      </trkpt>
      <trkpt lat="43.19282" lon="5.58012">
        <ele>119.2</ele>
        <time>2021-01-13T14:34:36Z</time>
      </trkpt>
      <trkpt lat="43.19278" lon="5.5802">
        <ele>118.4</ele>
        <time>2021-01-13T14:34:42Z</time>
      </trkpt>
      <trkpt lat="43.19274" lon="5.58026">
        <ele>117.7</ele>
        <time>2021-01-13T14:34:46Z</time>
      </trkpt>
      <trkpt lat="43.19273" lon="5.58033">
        <ele>117</ele>
        <time>2021-01-13T14:34:50Z</time>
      </trkpt>
      <trkpt lat="43.19274" lon="5.5804">
        <ele>116.5</ele>
        <time>2021-01-13T14:34:54Z</time>
      </trkpt>
      <trkpt lat="43.19277" lon="5.58046">
        <ele>116.2</ele>
        <time>2021-01-13T14:34:58Z</time>
      </trkpt>
      <trkpt lat="43.19281" lon="5.58053">
        <ele>116.1</ele>
        <time>2021-01-13T14:35:02Z</time>
      </trkpt>
      <trkpt lat="43.19285" lon="5.58058">
        <ele>116</ele>
        <time>2021-01-13T14:35:06Z</time>
      </trkpt>
      <trkpt lat="43.19289" lon="5.58066">
        <ele>115.9</ele>
        <time>2021-01-13T14:35:12Z</time>
      </trkpt>
      <trkpt lat="43.19292" lon="5.58072">
        <ele>115.8</ele>
        <time>2021-01-13T14:35:16Z</time>
      </trkpt>
      <trkpt lat="43.19294" lon="5.58078">
        <ele>115.5</ele>
        <time>2021-01-13T14:35:20Z</time>
      </trkpt>
      <trkpt lat="43.19293" lon="5.58086">
        <ele>115.2</ele>
        <time>2021-01-13T14:35:24Z</time>
      </trkpt>
      <trkpt lat="43.19291" lon="5.58092">
        <ele>115</ele>
        <time>2021-01-13T14:35:28Z</time>
      </trkpt>
      <trkpt lat="43.19289" lon="5.58099">
        <ele>114.7</ele>
        <time>2021-01-13T14:35:32Z</time>
      </trkpt>
      <trkpt lat="43.19285" lon="5.58105">
        <ele>114.3</ele>
        <time>2021-01-13T14:35:38Z</time>
      </trkpt>
      <trkpt lat="43.19284" lon="5.58112">
        <ele>114.3</ele>
        <time>2021-01-13T14:35:44Z</time>
      </trkpt>
      <trkpt lat="43.19283" lon="5.5812">
        <ele>114.3</ele>
        <time>2021-01-13T14:35:52Z</time>
      </trkpt>
      <trkpt lat="43.19285" lon="5.58128">
        <ele>114.5</ele>
        <time>2021-01-13T14:36:00Z</time>
      </trkpt>
      <trkpt lat="43.19288" lon="5.58135">
        <ele>114.7</ele>
        <time>2021-01-13T14:36:06Z</time>
      </trkpt>
      <trkpt lat="43.19291" lon="5.58141">
        <ele>115</ele>
        <time>2021-01-13T14:36:12Z</time>
      </trkpt>
      <trkpt lat="43.19294" lon="5.58148">
        <ele>115.2</ele>
        <time>2021-01-13T14:36:18Z</time>
      </trkpt>
      <trkpt lat="43.19298" lon="5.58154">
        <ele>115.4</ele>
        <time>2021-01-13T14:36:24Z</time>
      </trkpt>
      <trkpt lat="43.19302" lon="5.5816">
        <ele>115.5</ele>
        <time>2021-01-13T14:36:30Z</time>
      </trkpt>
      <trkpt lat="43.19306" lon="5.58167">
        <ele>115.7</ele>
        <time>2021-01-13T14:36:36Z</time>
      </trkpt>
      <trkpt lat="43.1931" lon="5.58174">
        <ele>115.5</ele>
        <time>2021-01-13T14:36:42Z</time>
      </trkpt>
      <trkpt lat="43.19313" lon="5.58179">
        <ele>115.2</ele>
        <time>2021-01-13T14:36:46Z</time>
      </trkpt>
      <trkpt lat="43.19314" lon="5.58188">
        <ele>114.7</ele>
        <time>2021-01-13T14:36:52Z</time>
      </trkpt>
      <trkpt lat="43.19313" lon="5.58198">
        <ele>114.1</ele>
        <time>2021-01-13T14:36:58Z</time>
      </trkpt>
      <trkpt lat="43.19314" lon="5.58204">
        <ele>113.7</ele>
        <time>2021-01-13T14:37:02Z</time>
      </trkpt>
      <trkpt lat="43.19314" lon="5.58213">
        <ele>113.1</ele>
        <time>2021-01-13T14:37:08Z</time>
      </trkpt>
      <trkpt lat="43.19314" lon="5.58221">
        <ele>112.6</ele>
        <time>2021-01-13T14:37:14Z</time>
      </trkpt>
      <trkpt lat="43.19313" lon="5.5823">
        <ele>112</ele>
        <time>2021-01-13T14:37:20Z</time>
      </trkpt>
      <trkpt lat="43.19311" lon="5.58236">
        <ele>111.6</ele>
        <time>2021-01-13T14:37:26Z</time>
      </trkpt>
      <trkpt lat="43.1931" lon="5.58243">
        <ele>111.1</ele>
        <time>2021-01-13T14:37:32Z</time>
      </trkpt>
      <trkpt lat="43.19305" lon="5.58249">
        <ele>110.7</ele>
        <time>2021-01-13T14:37:38Z</time>
      </trkpt>
      <trkpt lat="43.193" lon="5.58256">
        <ele>110.3</ele>
        <time>2021-01-13T14:37:44Z</time>
      </trkpt>
      <trkpt lat="43.19296" lon="5.5826">
        <ele>110</ele>
        <time>2021-01-13T14:37:48Z</time>
      </trkpt>
      <trkpt lat="43.19291" lon="5.58263">
        <ele>109.8</ele>
        <time>2021-01-13T14:37:52Z</time>
      </trkpt>
      <trkpt lat="43.19287" lon="5.58267">
        <ele>109.5</ele>
        <time>2021-01-13T14:37:56Z</time>
      </trkpt>
      <trkpt lat="43.19282" lon="5.5827">
        <ele>109.2</ele>
        <time>2021-01-13T14:38:00Z</time>
      </trkpt>
      <trkpt lat="43.19277" lon="5.58273">
        <ele>108.9</ele>
        <time>2021-01-13T14:38:04Z</time>
      </trkpt>
      <trkpt lat="43.19273" lon="5.5828">
        <ele>108.4</ele>
        <time>2021-01-13T14:38:10Z</time>
      </trkpt>
      <trkpt lat="43.19271" lon="5.58288">
        <ele>107.9</ele>
        <time>2021-01-13T14:38:16Z</time>
      </trkpt>
      <trkpt lat="43.1927" lon="5.58294">
        <ele>107.4</ele>
        <time>2021-01-13T14:38:20Z</time>
      </trkpt>
      <trkpt lat="43.19271" lon="5.58301">
        <ele>107</ele>
        <time>2021-01-13T14:38:24Z</time>
      </trkpt>
      <trkpt lat="43.19271" lon="5.58308">
        <ele>106.6</ele>
        <time>2021-01-13T14:38:28Z</time>
      </trkpt>
      <trkpt lat="43.19271" lon="5.58315">
        <ele>106.2</ele>
        <time>2021-01-13T14:38:32Z</time>
      </trkpt>
      <trkpt lat="43.19272" lon="5.58323">
        <ele>105.7</ele>
        <time>2021-01-13T14:38:38Z</time>
      </trkpt>
      <trkpt lat="43.19274" lon="5.58331">
        <ele>105.3</ele>
        <time>2021-01-13T14:38:42Z</time>
      </trkpt>
      <trkpt lat="43.19275" lon="5.5834">
        <ele>105.3</ele>
        <time>2021-01-13T14:38:48Z</time>
      </trkpt>
      <trkpt lat="43.19276" lon="5.58346">
        <ele>105.5</ele>
        <time>2021-01-13T14:38:52Z</time>
      </trkpt>
      <trkpt lat="43.19276" lon="5.58353">
        <ele>105.7</ele>
        <time>2021-01-13T14:38:58Z</time>
      </trkpt>
      <trkpt lat="43.19275" lon="5.58361">
        <ele>105.8</ele>
        <time>2021-01-13T14:39:04Z</time>
      </trkpt>
      <trkpt lat="43.19275" lon="5.58368">
        <ele>105.9</ele>
        <time>2021-01-13T14:39:08Z</time>
      </trkpt>
      <trkpt lat="43.19275" lon="5.58375">
        <ele>106.1</ele>
        <time>2021-01-13T14:39:12Z</time>
      </trkpt>
      <trkpt lat="43.19275" lon="5.58381">
        <ele>106.2</ele>
        <time>2021-01-13T14:39:16Z</time>
      </trkpt>
      <trkpt lat="43.19273" lon="5.58387">
        <ele>106.3</ele>
        <time>2021-01-13T14:39:22Z</time>
      </trkpt>
      <trkpt lat="43.19273" lon="5.58396">
        <ele>106.5</ele>
        <time>2021-01-13T14:39:28Z</time>
      </trkpt>
      <trkpt lat="43.19273" lon="5.58403">
        <ele>106.7</ele>
        <time>2021-01-13T14:39:34Z</time>
      </trkpt>
      <trkpt lat="43.19274" lon="5.5841">
        <ele>106.9</ele>
        <time>2021-01-13T14:39:40Z</time>
      </trkpt>
      <trkpt lat="43.19274" lon="5.58417">
        <ele>107</ele>
        <time>2021-01-13T14:39:44Z</time>
      </trkpt>
      <trkpt lat="43.19275" lon="5.58425">
        <ele>107.3</ele>
        <time>2021-01-13T14:39:48Z</time>
      </trkpt>
      <trkpt lat="43.19277" lon="5.58433">
        <ele>107.6</ele>
        <time>2021-01-13T14:39:54Z</time>
      </trkpt>
      <trkpt lat="43.19281" lon="5.58439">
        <ele>107.7</ele>
        <time>2021-01-13T14:40:00Z</time>
      </trkpt>
      <trkpt lat="43.19285" lon="5.58444">
        <ele>107.8</ele>
        <time>2021-01-13T14:40:04Z</time>
      </trkpt>
      <trkpt lat="43.19289" lon="5.58449">
        <ele>107.9</ele>
        <time>2021-01-13T14:40:10Z</time>
      </trkpt>
      <trkpt lat="43.19294" lon="5.58453">
        <ele>107.8</ele>
        <time>2021-01-13T14:40:16Z</time>
      </trkpt>
      <trkpt lat="43.19296" lon="5.58459">
        <ele>107.9</ele>
        <time>2021-01-13T14:40:20Z</time>
      </trkpt>
      <trkpt lat="43.193" lon="5.58466">
        <ele>107.8</ele>
        <time>2021-01-13T14:40:26Z</time>
      </trkpt>
      <trkpt lat="43.19303" lon="5.58473">
        <ele>107.8</ele>
        <time>2021-01-13T14:40:30Z</time>
      </trkpt>
      <trkpt lat="43.19304" lon="5.58481">
        <ele>107.8</ele>
        <time>2021-01-13T14:40:34Z</time>
      </trkpt>
      <trkpt lat="43.19307" lon="5.58487">
        <ele>107.7</ele>
        <time>2021-01-13T14:40:38Z</time>
      </trkpt>
      <trkpt lat="43.19312" lon="5.58493">
        <ele>107.5</ele>
        <time>2021-01-13T14:40:42Z</time>
      </trkpt>
      <trkpt lat="43.19314" lon="5.585">
        <ele>107.4</ele>
        <time>2021-01-13T14:40:50Z</time>
      </trkpt>
      <trkpt lat="43.19317" lon="5.58507">
        <ele>107</ele>
        <time>2021-01-13T14:40:56Z</time>
      </trkpt>
      <trkpt lat="43.19318" lon="5.58515">
        <ele>106.7</ele>
        <time>2021-01-13T14:41:04Z</time>
      </trkpt>
      <trkpt lat="43.19321" lon="5.58523">
        <ele>106.3</ele>
        <time>2021-01-13T14:41:10Z</time>
      </trkpt>
      <trkpt lat="43.19323" lon="5.5853">
        <ele>106</ele>
        <time>2021-01-13T14:41:14Z</time>
      </trkpt>
      <trkpt lat="43.19324" lon="5.58536">
        <ele>105.8</ele>
        <time>2021-01-13T14:41:18Z</time>
      </trkpt>
      <trkpt lat="43.19323" lon="5.58545">
        <ele>105.6</ele>
        <time>2021-01-13T14:41:24Z</time>
      </trkpt>
      <trkpt lat="43.19322" lon="5.58551">
        <ele>105.5</ele>
        <time>2021-01-13T14:41:28Z</time>
      </trkpt>
      <trkpt lat="43.19323" lon="5.58558">
        <ele>105.3</ele>
        <time>2021-01-13T14:41:32Z</time>
      </trkpt>
      <trkpt lat="43.19325" lon="5.58565">
        <ele>104.9</ele>
        <time>2021-01-13T14:41:36Z</time>
      </trkpt>
      <trkpt lat="43.19326" lon="5.58572">
        <ele>104.7</ele>
        <time>2021-01-13T14:41:40Z</time>
      </trkpt>
      <trkpt lat="43.19328" lon="5.5858">
        <ele>104.4</ele>
        <time>2021-01-13T14:41:46Z</time>
      </trkpt>
      <trkpt lat="43.19328" lon="5.58588">
        <ele>104.2</ele>
        <time>2021-01-13T14:41:50Z</time>
      </trkpt>
      <trkpt lat="43.19325" lon="5.58594">
        <ele>104.1</ele>
        <time>2021-01-13T14:41:54Z</time>
      </trkpt>
      <trkpt lat="43.19321" lon="5.58601">
        <ele>103.9</ele>
        <time>2021-01-13T14:42:00Z</time>
      </trkpt>
      <trkpt lat="43.19317" lon="5.58605">
        <ele>103.8</ele>
        <time>2021-01-13T14:42:04Z</time>
      </trkpt>
      <trkpt lat="43.19314" lon="5.58611">
        <ele>103.5</ele>
        <time>2021-01-13T14:42:10Z</time>
      </trkpt>
      <trkpt lat="43.19313" lon="5.58618">
        <ele>103.1</ele>
        <time>2021-01-13T14:42:14Z</time>
      </trkpt>
      <trkpt lat="43.19312" lon="5.58624">
        <ele>102.7</ele>
        <time>2021-01-13T14:42:18Z</time>
      </trkpt>
      <trkpt lat="43.19309" lon="5.5863">
        <ele>102.2</ele>
        <time>2021-01-13T14:42:22Z</time>
      </trkpt>
      <trkpt lat="43.19305" lon="5.58638">
        <ele>101.5</ele>
        <time>2021-01-13T14:42:28Z</time>
      </trkpt>
      <trkpt lat="43.19301" lon="5.58645">
        <ele>100.7</ele>
        <time>2021-01-13T14:42:32Z</time>
      </trkpt>
      <trkpt lat="43.19298" lon="5.58652">
        <ele>99.9</ele>
        <time>2021-01-13T14:42:36Z</time>
      </trkpt>
      <trkpt lat="43.19295" lon="5.58658">
        <ele>99.2</ele>
        <time>2021-01-13T14:42:40Z</time>
      </trkpt>
      <trkpt lat="43.19293" lon="5.58663">
        <ele>98.5</ele>
        <time>2021-01-13T14:42:44Z</time>
      </trkpt>
      <trkpt lat="43.19291" lon="5.5867">
        <ele>97.9</ele>
        <time>2021-01-13T14:42:50Z</time>
      </trkpt>
      <trkpt lat="43.19287" lon="5.58678">
        <ele>97.7</ele>
        <time>2021-01-13T14:42:56Z</time>
      </trkpt>
      <trkpt lat="43.19284" lon="5.58683">
        <ele>97.4</ele>
        <time>2021-01-13T14:43:00Z</time>
      </trkpt>
      <trkpt lat="43.1928" lon="5.58689">
        <ele>97</ele>
        <time>2021-01-13T14:43:04Z</time>
      </trkpt>
      <trkpt lat="43.19277" lon="5.58694">
        <ele>96.7</ele>
        <time>2021-01-13T14:43:08Z</time>
      </trkpt>
      <trkpt lat="43.19273" lon="5.58698">
        <ele>96.2</ele>
        <time>2021-01-13T14:43:12Z</time>
      </trkpt>
      <trkpt lat="43.19268" lon="5.58702">
        <ele>95.7</ele>
        <time>2021-01-13T14:43:18Z</time>
      </trkpt>
      <trkpt lat="43.19263" lon="5.58707">
        <ele>95</ele>
        <time>2021-01-13T14:43:24Z</time>
      </trkpt>
      <trkpt lat="43.19257" lon="5.5871">
        <ele>94.4</ele>
        <time>2021-01-13T14:43:28Z</time>
      </trkpt>
      <trkpt lat="43.1925" lon="5.58712">
        <ele>93.5</ele>
        <time>2021-01-13T14:43:34Z</time>
      </trkpt>
      <trkpt lat="43.19244" lon="5.58715">
        <ele>94</ele>
        <time>2021-01-13T14:43:40Z</time>
      </trkpt>
      <trkpt lat="43.19238" lon="5.58718">
        <ele>94.3</ele>
        <time>2021-01-13T14:43:48Z</time>
      </trkpt>
      <trkpt lat="43.19231" lon="5.58718">
        <ele>94.9</ele>
        <time>2021-01-13T14:43:54Z</time>
      </trkpt>
      <trkpt lat="43.19224" lon="5.58718">
        <ele>95.5</ele>
        <time>2021-01-13T14:44:00Z</time>
      </trkpt>
      <trkpt lat="43.1922" lon="5.58721">
        <ele>95.8</ele>
        <time>2021-01-13T14:44:04Z</time>
      </trkpt>
      <trkpt lat="43.19216" lon="5.58725">
        <ele>96</ele>
        <time>2021-01-13T14:44:08Z</time>
      </trkpt>
      <trkpt lat="43.19211" lon="5.5873">
        <ele>96.2</ele>
        <time>2021-01-13T14:44:12Z</time>
      </trkpt>
      <trkpt lat="43.19208" lon="5.58736">
        <ele>96.3</ele>
        <time>2021-01-13T14:44:16Z</time>
      </trkpt>
      <trkpt lat="43.19207" lon="5.58743">
        <ele>96.3</ele>
        <time>2021-01-13T14:44:20Z</time>
      </trkpt>
      <trkpt lat="43.19206" lon="5.58751">
        <ele>96.1</ele>
        <time>2021-01-13T14:44:24Z</time>
      </trkpt>
      <trkpt lat="43.19205" lon="5.58758">
        <ele>96</ele>
        <time>2021-01-13T14:44:28Z</time>
      </trkpt>
      <trkpt lat="43.19206" lon="5.58765">
        <ele>95.9</ele>
        <time>2021-01-13T14:44:32Z</time>
      </trkpt>
      <trkpt lat="43.19205" lon="5.58774">
        <ele>95.7</ele>
        <time>2021-01-13T14:44:38Z</time>
      </trkpt>
      <trkpt lat="43.19206" lon="5.58781">
        <ele>95.5</ele>
        <time>2021-01-13T14:44:42Z</time>
      </trkpt>
      <trkpt lat="43.19206" lon="5.58789">
        <ele>95.4</ele>
        <time>2021-01-13T14:44:46Z</time>
      </trkpt>
      <trkpt lat="43.19205" lon="5.58797">
        <ele>95.2</ele>
        <time>2021-01-13T14:44:52Z</time>
      </trkpt>
      <trkpt lat="43.19204" lon="5.58807">
        <ele>95</ele>
        <time>2021-01-13T14:44:58Z</time>
      </trkpt>
      <trkpt lat="43.19201" lon="5.58815">
        <ele>94.7</ele>
        <time>2021-01-13T14:45:04Z</time>
      </trkpt>
      <trkpt lat="43.19197" lon="5.58821">
        <ele>94.5</ele>
        <time>2021-01-13T14:45:10Z</time>
      </trkpt>
      <trkpt lat="43.19192" lon="5.58824">
        <ele>94.3</ele>
        <time>2021-01-13T14:45:14Z</time>
      </trkpt>
      <trkpt lat="43.19188" lon="5.58828">
        <ele>94</ele>
        <time>2021-01-13T14:45:18Z</time>
      </trkpt>
      <trkpt lat="43.19183" lon="5.58834">
        <ele>93.6</ele>
        <time>2021-01-13T14:45:24Z</time>
      </trkpt>
      <trkpt lat="43.1918" lon="5.5884">
        <ele>93.1</ele>
        <time>2021-01-13T14:45:28Z</time>
      </trkpt>
      <trkpt lat="43.1918" lon="5.58847">
        <ele>92.7</ele>
        <time>2021-01-13T14:45:32Z</time>
      </trkpt>
      <trkpt lat="43.19181" lon="5.58854">
        <ele>92.3</ele>
        <time>2021-01-13T14:45:36Z</time>
      </trkpt>
      <trkpt lat="43.19181" lon="5.58861">
        <ele>91.9</ele>
        <time>2021-01-13T14:45:40Z</time>
      </trkpt>
      <trkpt lat="43.19182" lon="5.58869">
        <ele>91.5</ele>
        <time>2021-01-13T14:45:44Z</time>
      </trkpt>
      <trkpt lat="43.19183" lon="5.58877">
        <ele>91.2</ele>
        <time>2021-01-13T14:45:50Z</time>
      </trkpt>
      <trkpt lat="43.19184" lon="5.58885">
        <ele>90.8</ele>
        <time>2021-01-13T14:45:56Z</time>
      </trkpt>
      <trkpt lat="43.19184" lon="5.58893">
        <ele>90.4</ele>
        <time>2021-01-13T14:46:02Z</time>
      </trkpt>
      <trkpt lat="43.19182" lon="5.58902">
        <ele>89.7</ele>
        <time>2021-01-13T14:46:08Z</time>
      </trkpt>
      <trkpt lat="43.1918" lon="5.58909">
        <ele>89</ele>
        <time>2021-01-13T14:46:12Z</time>
      </trkpt>
      <trkpt lat="43.19177" lon="5.58915">
        <ele>88.3</ele>
        <time>2021-01-13T14:46:16Z</time>
      </trkpt>
      <trkpt lat="43.19174" lon="5.58921">
        <ele>88.1</ele>
        <time>2021-01-13T14:46:20Z</time>
      </trkpt>
      <trkpt lat="43.1917" lon="5.58925">
        <ele>88.1</ele>
        <time>2021-01-13T14:46:24Z</time>
      </trkpt>
      <trkpt lat="43.19167" lon="5.58931">
        <ele>88.3</ele>
        <time>2021-01-13T14:46:28Z</time>
      </trkpt>
      <trkpt lat="43.19164" lon="5.58937">
        <ele>88.6</ele>
        <time>2021-01-13T14:46:34Z</time>
      </trkpt>
      <trkpt lat="43.19159" lon="5.5894">
        <ele>88.9</ele>
        <time>2021-01-13T14:46:40Z</time>
      </trkpt>
      <trkpt lat="43.19155" lon="5.58944">
        <ele>89.1</ele>
        <time>2021-01-13T14:46:44Z</time>
      </trkpt>
      <trkpt lat="43.19151" lon="5.58948">
        <ele>89.3</ele>
        <time>2021-01-13T14:46:48Z</time>
      </trkpt>
      <trkpt lat="43.19145" lon="5.58947">
        <ele>89.1</ele>
        <time>2021-01-13T14:46:54Z</time>
      </trkpt>
      <trkpt lat="43.19141" lon="5.58943">
        <ele>88.8</ele>
        <time>2021-01-13T14:47:04Z</time>
      </trkpt>
      <trkpt lat="43.19136" lon="5.58939">
        <ele>88.6</ele>
        <time>2021-01-13T14:47:08Z</time>
      </trkpt>
      <trkpt lat="43.1913" lon="5.58937">
        <ele>88.4</ele>
        <time>2021-01-13T14:47:12Z</time>
      </trkpt>
      <trkpt lat="43.19124" lon="5.58937">
        <ele>88.3</ele>
        <time>2021-01-13T14:47:16Z</time>
      </trkpt>
      <trkpt lat="43.1912" lon="5.58934">
        <ele>88.2</ele>
        <time>2021-01-13T14:47:20Z</time>
      </trkpt>
      <trkpt lat="43.19115" lon="5.5893">
        <ele>88</ele>
        <time>2021-01-13T14:47:24Z</time>
      </trkpt>
      <trkpt lat="43.19111" lon="5.58932">
        <ele>88.1</ele>
        <time>2021-01-13T14:47:28Z</time>
      </trkpt>
      <trkpt lat="43.19106" lon="5.58933">
        <ele>88.1</ele>
        <time>2021-01-13T14:47:34Z</time>
      </trkpt>
      <trkpt lat="43.191" lon="5.58936">
        <ele>88.1</ele>
        <time>2021-01-13T14:47:40Z</time>
      </trkpt>
      <trkpt lat="43.19093" lon="5.58938">
        <ele>88.1</ele>
        <time>2021-01-13T14:47:46Z</time>
      </trkpt>
      <trkpt lat="43.1909" lon="5.58946">
        <ele>88.1</ele>
        <time>2021-01-13T14:47:50Z</time>
      </trkpt>
      <trkpt lat="43.19084" lon="5.58951">
        <ele>88</ele>
        <time>2021-01-13T14:47:56Z</time>
      </trkpt>
      <trkpt lat="43.19079" lon="5.58953">
        <ele>87.9</ele>
        <time>2021-01-13T14:48:02Z</time>
      </trkpt>
      <trkpt lat="43.19074" lon="5.58957">
        <ele>87.8</ele>
        <time>2021-01-13T14:48:06Z</time>
      </trkpt>
      <trkpt lat="43.19068" lon="5.58958">
        <ele>87.7</ele>
        <time>2021-01-13T14:48:10Z</time>
      </trkpt>
      <trkpt lat="43.19063" lon="5.58962">
        <ele>87.6</ele>
        <time>2021-01-13T14:48:14Z</time>
      </trkpt>
      <trkpt lat="43.19058" lon="5.58965">
        <ele>87.4</ele>
        <time>2021-01-13T14:48:20Z</time>
      </trkpt>
      <trkpt lat="43.19054" lon="5.58971">
        <ele>87.2</ele>
        <time>2021-01-13T14:48:26Z</time>
      </trkpt>
      <trkpt lat="43.19049" lon="5.58979">
        <ele>86.9</ele>
        <time>2021-01-13T14:48:32Z</time>
      </trkpt>
      <trkpt lat="43.19046" lon="5.58987">
        <ele>86.5</ele>
        <time>2021-01-13T14:48:36Z</time>
      </trkpt>
      <trkpt lat="43.19042" lon="5.58994">
        <ele>86.2</ele>
        <time>2021-01-13T14:48:42Z</time>
      </trkpt>
      <trkpt lat="43.19039" lon="5.58999">
        <ele>85.9</ele>
        <time>2021-01-13T14:48:46Z</time>
      </trkpt>
      <trkpt lat="43.19035" lon="5.59004">
        <ele>85.8</ele>
        <time>2021-01-13T14:48:50Z</time>
      </trkpt>
      <trkpt lat="43.19031" lon="5.59007">
        <ele>85.7</ele>
        <time>2021-01-13T14:48:54Z</time>
      </trkpt>
      <trkpt lat="43.19025" lon="5.59011">
        <ele>85.6</ele>
        <time>2021-01-13T14:49:00Z</time>
      </trkpt>
      <trkpt lat="43.19019" lon="5.59014">
        <ele>85.4</ele>
        <time>2021-01-13T14:49:06Z</time>
      </trkpt>
      <trkpt lat="43.19014" lon="5.59014">
        <ele>85.2</ele>
        <time>2021-01-13T14:49:12Z</time>
      </trkpt>
      <trkpt lat="43.19008" lon="5.59015">
        <ele>85</ele>
        <time>2021-01-13T14:49:18Z</time>
      </trkpt>
      <trkpt lat="43.19002" lon="5.59017">
        <ele>84.7</ele>
        <time>2021-01-13T14:49:24Z</time>
      </trkpt>
      <trkpt lat="43.18996" lon="5.59018">
        <ele>84.6</ele>
        <time>2021-01-13T14:49:28Z</time>
      </trkpt>
      <trkpt lat="43.18991" lon="5.59018">
        <ele>84.6</ele>
        <time>2021-01-13T14:49:32Z</time>
      </trkpt>
      <trkpt lat="43.18985" lon="5.59021">
        <ele>84.7</ele>
        <time>2021-01-13T14:49:36Z</time>
      </trkpt>
      <trkpt lat="43.1898" lon="5.59023">
        <ele>84.7</ele>
        <time>2021-01-13T14:49:40Z</time>
      </trkpt>
      <trkpt lat="43.18975" lon="5.59024">
        <ele>84.7</ele>
        <time>2021-01-13T14:49:44Z</time>
      </trkpt>
      <trkpt lat="43.1897" lon="5.59027">
        <ele>84.7</ele>
        <time>2021-01-13T14:49:48Z</time>
      </trkpt>
      <trkpt lat="43.18965" lon="5.5903">
        <ele>84.7</ele>
        <time>2021-01-13T14:49:54Z</time>
      </trkpt>
      <trkpt lat="43.18961" lon="5.59033">
        <ele>84.7</ele>
        <time>2021-01-13T14:49:58Z</time>
      </trkpt>
      <trkpt lat="43.18956" lon="5.5904">
        <ele>84.7</ele>
        <time>2021-01-13T14:50:02Z</time>
      </trkpt>
      <trkpt lat="43.18954" lon="5.59048">
        <ele>84.7</ele>
        <time>2021-01-13T14:50:08Z</time>
      </trkpt>
      <trkpt lat="43.18951" lon="5.59054">
        <ele>84.6</ele>
        <time>2021-01-13T14:50:12Z</time>
      </trkpt>
      <trkpt lat="43.18948" lon="5.59061">
        <ele>84.5</ele>
        <time>2021-01-13T14:50:16Z</time>
      </trkpt>
      <trkpt lat="43.18946" lon="5.59068">
        <ele>84.4</ele>
        <time>2021-01-13T14:50:20Z</time>
      </trkpt>
      <trkpt lat="43.18943" lon="5.59074">
        <ele>84.3</ele>
        <time>2021-01-13T14:50:24Z</time>
      </trkpt>
      <trkpt lat="43.1894" lon="5.5908">
        <ele>84.1</ele>
        <time>2021-01-13T14:50:28Z</time>
      </trkpt>
      <trkpt lat="43.18937" lon="5.59086">
        <ele>83.9</ele>
        <time>2021-01-13T14:50:32Z</time>
      </trkpt>
      <trkpt lat="43.18934" lon="5.59091">
        <ele>83.6</ele>
        <time>2021-01-13T14:50:36Z</time>
      </trkpt>
      <trkpt lat="43.18931" lon="5.59098">
        <ele>83.3</ele>
        <time>2021-01-13T14:50:40Z</time>
      </trkpt>
      <trkpt lat="43.18928" lon="5.59103">
        <ele>83</ele>
        <time>2021-01-13T14:50:44Z</time>
      </trkpt>
      <trkpt lat="43.18926" lon="5.59111">
        <ele>82.6</ele>
        <time>2021-01-13T14:50:50Z</time>
      </trkpt>
      <trkpt lat="43.18922" lon="5.59118">
        <ele>82.1</ele>
        <time>2021-01-13T14:50:56Z</time>
      </trkpt>
      <trkpt lat="43.18919" lon="5.59123">
        <ele>81.7</ele>
        <time>2021-01-13T14:51:00Z</time>
      </trkpt>
      <trkpt lat="43.18916" lon="5.59129">
        <ele>81.4</ele>
        <time>2021-01-13T14:51:04Z</time>
      </trkpt>
      <trkpt lat="43.18913" lon="5.59134">
        <ele>81.2</ele>
        <time>2021-01-13T14:51:08Z</time>
      </trkpt>
      <trkpt lat="43.18909" lon="5.59142">
        <ele>80.9</ele>
        <time>2021-01-13T14:51:14Z</time>
      </trkpt>
      <trkpt lat="43.18906" lon="5.59147">
        <ele>80.6</ele>
        <time>2021-01-13T14:51:18Z</time>
      </trkpt>
      <trkpt lat="43.18901" lon="5.59152">
        <ele>80.3</ele>
        <time>2021-01-13T14:51:24Z</time>
      </trkpt>
      <trkpt lat="43.18897" lon="5.59157">
        <ele>80.1</ele>
        <time>2021-01-13T14:51:28Z</time>
      </trkpt>
      <trkpt lat="43.18894" lon="5.59161">
        <ele>79.8</ele>
        <time>2021-01-13T14:51:32Z</time>
      </trkpt>
      <trkpt lat="43.18891" lon="5.59166">
        <ele>79.4</ele>
        <time>2021-01-13T14:51:36Z</time>
      </trkpt>
      <trkpt lat="43.18887" lon="5.5917">
        <ele>79.3</ele>
        <time>2021-01-13T14:51:40Z</time>
      </trkpt>
      <trkpt lat="43.18883" lon="5.59176">
        <ele>79</ele>
        <time>2021-01-13T14:51:46Z</time>
      </trkpt>
      <trkpt lat="43.18877" lon="5.59181">
        <ele>78.7</ele>
        <time>2021-01-13T14:51:52Z</time>
      </trkpt>
      <trkpt lat="43.18873" lon="5.59185">
        <ele>78.5</ele>
        <time>2021-01-13T14:51:56Z</time>
      </trkpt>
      <trkpt lat="43.18868" lon="5.5919">
        <ele>78.1</ele>
        <time>2021-01-13T14:52:02Z</time>
      </trkpt>
      <trkpt lat="43.18863" lon="5.59197">
        <ele>77.7</ele>
        <time>2021-01-13T14:52:08Z</time>
      </trkpt>
      <trkpt lat="43.18859" lon="5.59199">
        <ele>77.4</ele>
        <time>2021-01-13T14:52:12Z</time>
      </trkpt>
      <trkpt lat="43.18854" lon="5.59201">
        <ele>77</ele>
        <time>2021-01-13T14:52:18Z</time>
      </trkpt>
      <trkpt lat="43.18848" lon="5.59206">
        <ele>76.5</ele>
        <time>2021-01-13T14:52:24Z</time>
      </trkpt>
      <trkpt lat="43.18842" lon="5.59207">
        <ele>76.1</ele>
        <time>2021-01-13T14:52:28Z</time>
      </trkpt>
      <trkpt lat="43.18838" lon="5.59211">
        <ele>75.6</ele>
        <time>2021-01-13T14:52:32Z</time>
      </trkpt>
      <trkpt lat="43.18834" lon="5.59214">
        <ele>75.2</ele>
        <time>2021-01-13T14:52:36Z</time>
      </trkpt>
      <trkpt lat="43.1883" lon="5.59218">
        <ele>74.9</ele>
        <time>2021-01-13T14:52:40Z</time>
      </trkpt>
      <trkpt lat="43.18825" lon="5.59222">
        <ele>74.7</ele>
        <time>2021-01-13T14:52:44Z</time>
      </trkpt>
      <trkpt lat="43.1882" lon="5.59228">
        <ele>74.3</ele>
        <time>2021-01-13T14:52:50Z</time>
      </trkpt>
      <trkpt lat="43.18816" lon="5.5923">
        <ele>74.1</ele>
        <time>2021-01-13T14:52:54Z</time>
      </trkpt>
      <trkpt lat="43.18809" lon="5.59235">
        <ele>73.7</ele>
        <time>2021-01-13T14:53:00Z</time>
      </trkpt>
      <trkpt lat="43.18805" lon="5.59239">
        <ele>73.5</ele>
        <time>2021-01-13T14:53:04Z</time>
      </trkpt>
      <trkpt lat="43.18799" lon="5.59241">
        <ele>73.2</ele>
        <time>2021-01-13T14:53:08Z</time>
      </trkpt>
      <trkpt lat="43.18793" lon="5.59245">
        <ele>72.9</ele>
        <time>2021-01-13T14:53:12Z</time>
      </trkpt>
      <trkpt lat="43.18789" lon="5.59248">
        <ele>72.6</ele>
        <time>2021-01-13T14:53:16Z</time>
      </trkpt>
      <trkpt lat="43.18784" lon="5.59249">
        <ele>72.5</ele>
        <time>2021-01-13T14:53:20Z</time>
      </trkpt>
      <trkpt lat="43.18779" lon="5.59251">
        <ele>72.3</ele>
        <time>2021-01-13T14:53:24Z</time>
      </trkpt>
      <trkpt lat="43.18773" lon="5.59255">
        <ele>72</ele>
        <time>2021-01-13T14:53:30Z</time>
      </trkpt>
      <trkpt lat="43.18769" lon="5.59258">
        <ele>71.7</ele>
        <time>2021-01-13T14:53:34Z</time>
      </trkpt>
      <trkpt lat="43.18764" lon="5.59262">
        <ele>71.3</ele>
        <time>2021-01-13T14:53:40Z</time>
      </trkpt>
      <trkpt lat="43.18759" lon="5.59266">
        <ele>70.8</ele>
        <time>2021-01-13T14:53:46Z</time>
      </trkpt>
      <trkpt lat="43.18753" lon="5.59271">
        <ele>70.2</ele>
        <time>2021-01-13T14:53:52Z</time>
      </trkpt>
      <trkpt lat="43.1875" lon="5.59275">
        <ele>69.6</ele>
        <time>2021-01-13T14:53:56Z</time>
      </trkpt>
      <trkpt lat="43.18747" lon="5.59282">
        <ele>69</ele>
        <time>2021-01-13T14:54:00Z</time>
      </trkpt>
      <trkpt lat="43.18744" lon="5.59289">
        <ele>68.4</ele>
        <time>2021-01-13T14:54:04Z</time>
      </trkpt>
      <trkpt lat="43.18742" lon="5.59295">
        <ele>67.8</ele>
        <time>2021-01-13T14:54:08Z</time>
      </trkpt>
      <trkpt lat="43.18739" lon="5.59302">
        <ele>67.2</ele>
        <time>2021-01-13T14:54:12Z</time>
      </trkpt>
      <trkpt lat="43.18737" lon="5.59309">
        <ele>66.6</ele>
        <time>2021-01-13T14:54:16Z</time>
      </trkpt>
      <trkpt lat="43.18734" lon="5.59317">
        <ele>66</ele>
        <time>2021-01-13T14:54:20Z</time>
      </trkpt>
      <trkpt lat="43.18731" lon="5.59323">
        <ele>65.5</ele>
        <time>2021-01-13T14:54:24Z</time>
      </trkpt>
      <trkpt lat="43.18727" lon="5.59328">
        <ele>65</ele>
        <time>2021-01-13T14:54:28Z</time>
      </trkpt>
      <trkpt lat="43.18723" lon="5.59333">
        <ele>64.7</ele>
        <time>2021-01-13T14:54:32Z</time>
      </trkpt>
      <trkpt lat="43.18718" lon="5.59338">
        <ele>64.9</ele>
        <time>2021-01-13T14:54:38Z</time>
      </trkpt>
      <trkpt lat="43.18713" lon="5.59342">
        <ele>65.1</ele>
        <time>2021-01-13T14:54:44Z</time>
      </trkpt>
      <trkpt lat="43.18707" lon="5.59345">
        <ele>65.3</ele>
        <time>2021-01-13T14:54:52Z</time>
      </trkpt>
      <trkpt lat="43.18704" lon="5.5935">
        <ele>65.4</ele>
        <time>2021-01-13T14:54:56Z</time>
      </trkpt>
      <trkpt lat="43.18698" lon="5.59355">
        <ele>65.5</ele>
        <time>2021-01-13T14:55:02Z</time>
      </trkpt>
      <trkpt lat="43.18693" lon="5.59358">
        <ele>65.5</ele>
        <time>2021-01-13T14:55:06Z</time>
      </trkpt>
      <trkpt lat="43.18688" lon="5.59362">
        <ele>65.5</ele>
        <time>2021-01-13T14:55:10Z</time>
      </trkpt>
      <trkpt lat="43.18683" lon="5.59367">
        <ele>65.4</ele>
        <time>2021-01-13T14:55:16Z</time>
      </trkpt>
      <trkpt lat="43.18678" lon="5.59373">
        <ele>65.3</ele>
        <time>2021-01-13T14:55:22Z</time>
      </trkpt>
      <trkpt lat="43.18674" lon="5.59379">
        <ele>65.1</ele>
        <time>2021-01-13T14:55:26Z</time>
      </trkpt>
      <trkpt lat="43.1867" lon="5.59384">
        <ele>64.9</ele>
        <time>2021-01-13T14:55:30Z</time>
      </trkpt>
      <trkpt lat="43.18666" lon="5.59391">
        <ele>64.6</ele>
        <time>2021-01-13T14:55:34Z</time>
      </trkpt>
      <trkpt lat="43.18664" lon="5.59399">
        <ele>64.6</ele>
        <time>2021-01-13T14:55:38Z</time>
      </trkpt>
      <trkpt lat="43.18663" lon="5.59405">
        <ele>64.5</ele>
        <time>2021-01-13T14:55:42Z</time>
      </trkpt>
      <trkpt lat="43.18662" lon="5.59412">
        <ele>64.4</ele>
        <time>2021-01-13T14:55:46Z</time>
      </trkpt>
      <trkpt lat="43.18662" lon="5.5942">
        <ele>64.1</ele>
        <time>2021-01-13T14:55:50Z</time>
      </trkpt>
      <trkpt lat="43.18662" lon="5.59427">
        <ele>63.8</ele>
        <time>2021-01-13T14:55:54Z</time>
      </trkpt>
      <trkpt lat="43.18663" lon="5.59435">
        <ele>63.5</ele>
        <time>2021-01-13T14:55:58Z</time>
      </trkpt>
      <trkpt lat="43.18662" lon="5.59442">
        <ele>63.2</ele>
        <time>2021-01-13T14:56:02Z</time>
      </trkpt>
      <trkpt lat="43.18662" lon="5.59451">
        <ele>62.9</ele>
        <time>2021-01-13T14:56:08Z</time>
      </trkpt>
      <trkpt lat="43.18663" lon="5.59457">
        <ele>62.7</ele>
        <time>2021-01-13T14:56:12Z</time>
      </trkpt>
      <trkpt lat="43.1866" lon="5.59463">
        <ele>62.5</ele>
        <time>2021-01-13T14:56:16Z</time>
      </trkpt>
      <trkpt lat="43.18658" lon="5.59468">
        <ele>62.4</ele>
        <time>2021-01-13T14:56:20Z</time>
      </trkpt>
      <trkpt lat="43.18656" lon="5.59474">
        <ele>62.2</ele>
        <time>2021-01-13T14:56:24Z</time>
      </trkpt>
      <trkpt lat="43.18651" lon="5.59479">
        <ele>62.1</ele>
        <time>2021-01-13T14:56:30Z</time>
      </trkpt>
      <trkpt lat="43.18647" lon="5.59483">
        <ele>62</ele>
        <time>2021-01-13T14:56:34Z</time>
      </trkpt>
      <trkpt lat="43.18642" lon="5.59486">
        <ele>61.9</ele>
        <time>2021-01-13T14:56:38Z</time>
      </trkpt>
      <trkpt lat="43.18637" lon="5.5949">
        <ele>61.9</ele>
        <time>2021-01-13T14:56:44Z</time>
      </trkpt>
      <trkpt lat="43.1863" lon="5.59491">
        <ele>61.9</ele>
        <time>2021-01-13T14:56:50Z</time>
      </trkpt>
      <trkpt lat="43.18624" lon="5.59494">
        <ele>61.8</ele>
        <time>2021-01-13T14:56:56Z</time>
      </trkpt>
      <trkpt lat="43.1862" lon="5.59498">
        <ele>61.7</ele>
        <time>2021-01-13T14:57:00Z</time>
      </trkpt>
      <trkpt lat="43.18615" lon="5.59501">
        <ele>61.6</ele>
        <time>2021-01-13T14:57:04Z</time>
      </trkpt>
      <trkpt lat="43.18609" lon="5.59504">
        <ele>61.5</ele>
        <time>2021-01-13T14:57:10Z</time>
      </trkpt>
      <trkpt lat="43.18603" lon="5.59508">
        <ele>61.4</ele>
        <time>2021-01-13T14:57:14Z</time>
      </trkpt>
      <trkpt lat="43.18598" lon="5.5951">
        <ele>61.3</ele>
        <time>2021-01-13T14:57:18Z</time>
      </trkpt>
      <trkpt lat="43.18593" lon="5.59513">
        <ele>61.1</ele>
        <time>2021-01-13T14:57:22Z</time>
      </trkpt>
      <trkpt lat="43.18589" lon="5.59517">
        <ele>60.8</ele>
        <time>2021-01-13T14:57:26Z</time>
      </trkpt>
      <trkpt lat="43.18583" lon="5.5952">
        <ele>60.6</ele>
        <time>2021-01-13T14:57:32Z</time>
      </trkpt>
      <trkpt lat="43.18578" lon="5.59521">
        <ele>60.7</ele>
        <time>2021-01-13T14:57:36Z</time>
      </trkpt>
      <trkpt lat="43.18574" lon="5.59521">
        <ele>60.9</ele>
        <time>2021-01-13T14:57:40Z</time>
      </trkpt>
      <trkpt lat="43.18568" lon="5.59524">
        <ele>60.8</ele>
        <time>2021-01-13T14:57:46Z</time>
      </trkpt>
      <trkpt lat="43.18563" lon="5.59526">
        <ele>60.9</ele>
        <time>2021-01-13T14:57:50Z</time>
      </trkpt>
      <trkpt lat="43.18559" lon="5.59531">
        <ele>60.6</ele>
        <time>2021-01-13T14:57:54Z</time>
      </trkpt>
      <trkpt lat="43.18555" lon="5.59535">
        <ele>60.3</ele>
        <time>2021-01-13T14:57:58Z</time>
      </trkpt>
      <trkpt lat="43.1855" lon="5.59539">
        <ele>60</ele>
        <time>2021-01-13T14:58:02Z</time>
      </trkpt>
      <trkpt lat="43.18546" lon="5.59544">
        <ele>59.6</ele>
        <time>2021-01-13T14:58:06Z</time>
      </trkpt>
      <trkpt lat="43.18543" lon="5.59549">
        <ele>59.1</ele>
        <time>2021-01-13T14:58:10Z</time>
      </trkpt>
      <trkpt lat="43.18537" lon="5.59555">
        <ele>58.6</ele>
        <time>2021-01-13T14:58:16Z</time>
      </trkpt>
      <trkpt lat="43.18534" lon="5.59559">
        <ele>58.2</ele>
        <time>2021-01-13T14:58:20Z</time>
      </trkpt>
      <trkpt lat="43.1853" lon="5.59563">
        <ele>57.7</ele>
        <time>2021-01-13T14:58:24Z</time>
      </trkpt>
      <trkpt lat="43.18525" lon="5.59568">
        <ele>57.2</ele>
        <time>2021-01-13T14:58:30Z</time>
      </trkpt>
      <trkpt lat="43.18518" lon="5.5957">
        <ele>56.9</ele>
        <time>2021-01-13T14:58:36Z</time>
      </trkpt>
      <trkpt lat="43.18514" lon="5.59574">
        <ele>56.4</ele>
        <time>2021-01-13T14:58:40Z</time>
      </trkpt>
      <trkpt lat="43.18509" lon="5.59579">
        <ele>55.7</ele>
        <time>2021-01-13T14:58:44Z</time>
      </trkpt>
      <trkpt lat="43.18506" lon="5.59586">
        <ele>54.9</ele>
        <time>2021-01-13T14:58:48Z</time>
      </trkpt>
      <trkpt lat="43.18502" lon="5.59591">
        <ele>54.3</ele>
        <time>2021-01-13T14:58:52Z</time>
      </trkpt>
      <trkpt lat="43.18498" lon="5.59597">
        <ele>53.8</ele>
        <time>2021-01-13T14:58:56Z</time>
      </trkpt>
      <trkpt lat="43.18496" lon="5.59603">
        <ele>53.4</ele>
        <time>2021-01-13T14:59:00Z</time>
      </trkpt>
      <trkpt lat="43.18493" lon="5.59608">
        <ele>53.1</ele>
        <time>2021-01-13T14:59:04Z</time>
      </trkpt>
      <trkpt lat="43.18489" lon="5.59612">
        <ele>53</ele>
        <time>2021-01-13T14:59:08Z</time>
      </trkpt>
      <trkpt lat="43.18485" lon="5.59617">
        <ele>52.8</ele>
        <time>2021-01-13T14:59:12Z</time>
      </trkpt>
      <trkpt lat="43.18481" lon="5.59621">
        <ele>52.7</ele>
        <time>2021-01-13T14:59:16Z</time>
      </trkpt>
      <trkpt lat="43.18478" lon="5.59626">
        <ele>52.5</ele>
        <time>2021-01-13T14:59:20Z</time>
      </trkpt>
      <trkpt lat="43.18474" lon="5.59633">
        <ele>52.1</ele>
        <time>2021-01-13T14:59:26Z</time>
      </trkpt>
      <trkpt lat="43.18469" lon="5.59638">
        <ele>52.1</ele>
        <time>2021-01-13T14:59:32Z</time>
      </trkpt>
      <trkpt lat="43.18465" lon="5.59642">
        <ele>52</ele>
        <time>2021-01-13T14:59:38Z</time>
      </trkpt>
      <trkpt lat="43.1846" lon="5.59646">
        <ele>52.1</ele>
        <time>2021-01-13T14:59:44Z</time>
      </trkpt>
      <trkpt lat="43.18455" lon="5.59648">
        <ele>52.3</ele>
        <time>2021-01-13T14:59:48Z</time>
      </trkpt>
      <trkpt lat="43.18449" lon="5.59653">
        <ele>52.4</ele>
        <time>2021-01-13T14:59:54Z</time>
      </trkpt>
      <trkpt lat="43.18443" lon="5.59658">
        <ele>52.5</ele>
        <time>2021-01-13T15:00:00Z</time>
      </trkpt>
      <trkpt lat="43.18437" lon="5.59662">
        <ele>52.6</ele>
        <time>2021-01-13T15:00:06Z</time>
      </trkpt>
      <trkpt lat="43.18432" lon="5.59666">
        <ele>52.8</ele>
        <time>2021-01-13T15:00:12Z</time>
      </trkpt>
      <trkpt lat="43.18426" lon="5.5967">
        <ele>53</ele>
        <time>2021-01-13T15:00:18Z</time>
      </trkpt>
      <trkpt lat="43.1842" lon="5.59674">
        <ele>53.3</ele>
        <time>2021-01-13T15:00:24Z</time>
      </trkpt>
      <trkpt lat="43.18416" lon="5.59677">
        <ele>53.4</ele>
        <time>2021-01-13T15:00:28Z</time>
      </trkpt>
      <trkpt lat="43.18413" lon="5.59682">
        <ele>53.3</ele>
        <time>2021-01-13T15:00:32Z</time>
      </trkpt>
      <trkpt lat="43.18409" lon="5.59687">
        <ele>53.2</ele>
        <time>2021-01-13T15:00:36Z</time>
      </trkpt>
      <trkpt lat="43.18407" lon="5.59693">
        <ele>53</ele>
        <time>2021-01-13T15:00:40Z</time>
      </trkpt>
      <trkpt lat="43.18406" lon="5.59702">
        <ele>52.5</ele>
        <time>2021-01-13T15:00:46Z</time>
      </trkpt>
      <trkpt lat="43.18405" lon="5.59709">
        <ele>52.2</ele>
        <time>2021-01-13T15:00:50Z</time>
      </trkpt>
      <trkpt lat="43.18405" lon="5.59715">
        <ele>51.8</ele>
        <time>2021-01-13T15:00:54Z</time>
      </trkpt>
      <trkpt lat="43.18404" lon="5.59721">
        <ele>51.5</ele>
        <time>2021-01-13T15:00:58Z</time>
      </trkpt>
      <trkpt lat="43.18404" lon="5.5973">
        <ele>51</ele>
        <time>2021-01-13T15:01:04Z</time>
      </trkpt>
      <trkpt lat="43.18403" lon="5.59739">
        <ele>50.6</ele>
        <time>2021-01-13T15:01:10Z</time>
      </trkpt>
      <trkpt lat="43.184" lon="5.59747">
        <ele>50.3</ele>
        <time>2021-01-13T15:01:16Z</time>
      </trkpt>
      <trkpt lat="43.18397" lon="5.59753">
        <ele>50.3</ele>
        <time>2021-01-13T15:01:22Z</time>
      </trkpt>
      <trkpt lat="43.18393" lon="5.59759">
        <ele>50.6</ele>
        <time>2021-01-13T15:01:28Z</time>
      </trkpt>
      <trkpt lat="43.18388" lon="5.59762">
        <ele>50.9</ele>
        <time>2021-01-13T15:01:34Z</time>
      </trkpt>
      <trkpt lat="43.18382" lon="5.59762">
        <ele>51.3</ele>
        <time>2021-01-13T15:01:40Z</time>
      </trkpt>
      <trkpt lat="43.18376" lon="5.59761">
        <ele>51.7</ele>
        <time>2021-01-13T15:01:46Z</time>
      </trkpt>
      <trkpt lat="43.18371" lon="5.59759">
        <ele>52.1</ele>
        <time>2021-01-13T15:01:50Z</time>
      </trkpt>
      <trkpt lat="43.18367" lon="5.59757">
        <ele>52.4</ele>
        <time>2021-01-13T15:01:54Z</time>
      </trkpt>
      <trkpt lat="43.18362" lon="5.59756">
        <ele>52.8</ele>
        <time>2021-01-13T15:01:58Z</time>
      </trkpt>
      <trkpt lat="43.18356" lon="5.59755">
        <ele>53.3</ele>
        <time>2021-01-13T15:02:04Z</time>
      </trkpt>
      <trkpt lat="43.18351" lon="5.59754">
        <ele>53.6</ele>
        <time>2021-01-13T15:02:08Z</time>
      </trkpt>
      <trkpt lat="43.18345" lon="5.59753">
        <ele>54.1</ele>
        <time>2021-01-13T15:02:16Z</time>
      </trkpt>
      <trkpt lat="43.1834" lon="5.59757">
        <ele>54.4</ele>
        <time>2021-01-13T15:02:20Z</time>
      </trkpt>
      <trkpt lat="43.18334" lon="5.59759">
        <ele>54.7</ele>
        <time>2021-01-13T15:02:24Z</time>
      </trkpt>
      <trkpt lat="43.1833" lon="5.59761">
        <ele>54.5</ele>
        <time>2021-01-13T15:02:28Z</time>
      </trkpt>
      <trkpt lat="43.18325" lon="5.59764">
        <ele>54.1</ele>
        <time>2021-01-13T15:02:32Z</time>
      </trkpt>
      <trkpt lat="43.1832" lon="5.59765">
        <ele>53.8</ele>
        <time>2021-01-13T15:02:36Z</time>
      </trkpt>
      <trkpt lat="43.18313" lon="5.59768">
        <ele>53.4</ele>
        <time>2021-01-13T15:02:42Z</time>
      </trkpt>
      <trkpt lat="43.1831" lon="5.59773">
        <ele>53.1</ele>
        <time>2021-01-13T15:02:46Z</time>
      </trkpt>
      <trkpt lat="43.18308" lon="5.59779">
        <ele>52.8</ele>
        <time>2021-01-13T15:02:50Z</time>
      </trkpt>
      <trkpt lat="43.18306" lon="5.59785">
        <ele>52.5</ele>
        <time>2021-01-13T15:02:56Z</time>
      </trkpt>
      <trkpt lat="43.18306" lon="5.59791">
        <ele>52.4</ele>
        <time>2021-01-13T15:03:00Z</time>
      </trkpt>
      <trkpt lat="43.18307" lon="5.59798">
        <ele>52.3</ele>
        <time>2021-01-13T15:03:04Z</time>
      </trkpt>
      <trkpt lat="43.18309" lon="5.59804">
        <ele>52.2</ele>
        <time>2021-01-13T15:03:08Z</time>
      </trkpt>
      <trkpt lat="43.18311" lon="5.5981">
        <ele>52.2</ele>
        <time>2021-01-13T15:03:12Z</time>
      </trkpt>
      <trkpt lat="43.18313" lon="5.59816">
        <ele>52.2</ele>
        <time>2021-01-13T15:03:16Z</time>
      </trkpt>
      <trkpt lat="43.18315" lon="5.59823">
        <ele>52.1</ele>
        <time>2021-01-13T15:03:20Z</time>
      </trkpt>
      <trkpt lat="43.18317" lon="5.59829">
        <ele>52.2</ele>
        <time>2021-01-13T15:03:24Z</time>
      </trkpt>
      <trkpt lat="43.18321" lon="5.59833">
        <ele>52.3</ele>
        <time>2021-01-13T15:03:28Z</time>
      </trkpt>
      <trkpt lat="43.18324" lon="5.59838">
        <ele>52.1</ele>
        <time>2021-01-13T15:03:32Z</time>
      </trkpt>
      <trkpt lat="43.18327" lon="5.59846">
        <ele>51.6</ele>
        <time>2021-01-13T15:03:38Z</time>
      </trkpt>
      <trkpt lat="43.18329" lon="5.59853">
        <ele>51.1</ele>
        <time>2021-01-13T15:03:42Z</time>
      </trkpt>
      <trkpt lat="43.18333" lon="5.59859">
        <ele>50.8</ele>
        <time>2021-01-13T15:03:46Z</time>
      </trkpt>
      <trkpt lat="43.18336" lon="5.59866">
        <ele>50.2</ele>
        <time>2021-01-13T15:03:52Z</time>
      </trkpt>
      <trkpt lat="43.1834" lon="5.59869">
        <ele>49.7</ele>
        <time>2021-01-13T15:03:58Z</time>
      </trkpt>
      <trkpt lat="43.18346" lon="5.5987">
        <ele>49.3</ele>
        <time>2021-01-13T15:04:06Z</time>
      </trkpt>
      <trkpt lat="43.18352" lon="5.59871">
        <ele>49</ele>
        <time>2021-01-13T15:04:10Z</time>
      </trkpt>
      <trkpt lat="43.18357" lon="5.59871">
        <ele>48.8</ele>
        <time>2021-01-13T15:04:14Z</time>
      </trkpt>
      <trkpt lat="43.18363" lon="5.59871">
        <ele>48.5</ele>
        <time>2021-01-13T15:04:18Z</time>
      </trkpt>
      <trkpt lat="43.18368" lon="5.59876">
        <ele>48</ele>
        <time>2021-01-13T15:04:22Z</time>
      </trkpt>
      <trkpt lat="43.18372" lon="5.59879">
        <ele>47.6</ele>
        <time>2021-01-13T15:04:26Z</time>
      </trkpt>
      <trkpt lat="43.18377" lon="5.59885">
        <ele>47</ele>
        <time>2021-01-13T15:04:32Z</time>
      </trkpt>
      <trkpt lat="43.18382" lon="5.59886">
        <ele>46.8</ele>
        <time>2021-01-13T15:04:36Z</time>
      </trkpt>
      <trkpt lat="43.18387" lon="5.59887">
        <ele>46.6</ele>
        <time>2021-01-13T15:04:40Z</time>
      </trkpt>
      <trkpt lat="43.18391" lon="5.5989">
        <ele>46.2</ele>
        <time>2021-01-13T15:04:44Z</time>
      </trkpt>
      <trkpt lat="43.18395" lon="5.59892">
        <ele>45.9</ele>
        <time>2021-01-13T15:04:48Z</time>
      </trkpt>
      <trkpt lat="43.18401" lon="5.59895">
        <ele>45.6</ele>
        <time>2021-01-13T15:04:54Z</time>
      </trkpt>
      <trkpt lat="43.18405" lon="5.59899">
        <ele>45.2</ele>
        <time>2021-01-13T15:04:58Z</time>
      </trkpt>
      <trkpt lat="43.18409" lon="5.59903">
        <ele>44.9</ele>
        <time>2021-01-13T15:05:10Z</time>
      </trkpt>
      <trkpt lat="43.18411" lon="5.5991">
        <ele>44.5</ele>
        <time>2021-01-13T15:05:16Z</time>
      </trkpt>
      <trkpt lat="43.18407" lon="5.59918">
        <ele>44.1</ele>
        <time>2021-01-13T15:05:22Z</time>
      </trkpt>
      <trkpt lat="43.18405" lon="5.59923">
        <ele>43.7</ele>
        <time>2021-01-13T15:05:26Z</time>
      </trkpt>
      <trkpt lat="43.18404" lon="5.59931">
        <ele>43.1</ele>
        <time>2021-01-13T15:05:32Z</time>
      </trkpt>
      <trkpt lat="43.18401" lon="5.59938">
        <ele>42.7</ele>
        <time>2021-01-13T15:05:38Z</time>
      </trkpt>
      <trkpt lat="43.18396" lon="5.59934">
        <ele>43.1</ele>
        <time>2021-01-13T15:05:44Z</time>
      </trkpt>
      <trkpt lat="43.18393" lon="5.59929">
        <ele>43.6</ele>
        <time>2021-01-13T15:05:48Z</time>
      </trkpt>
      <trkpt lat="43.18387" lon="5.59924">
        <ele>44.1</ele>
        <time>2021-01-13T15:05:54Z</time>
      </trkpt>
      <trkpt lat="43.18381" lon="5.59922">
        <ele>44.5</ele>
        <time>2021-01-13T15:06:00Z</time>
      </trkpt>
      <trkpt lat="43.18376" lon="5.5992">
        <ele>44.8</ele>
        <time>2021-01-13T15:06:06Z</time>
      </trkpt>
      <trkpt lat="43.1837" lon="5.5992">
        <ele>44.9</ele>
        <time>2021-01-13T15:06:12Z</time>
      </trkpt>
      <trkpt lat="43.18366" lon="5.59921">
        <ele>44.9</ele>
        <time>2021-01-13T15:06:20Z</time>
      </trkpt>
      <trkpt lat="43.18364" lon="5.59928">
        <ele>44.5</ele>
        <time>2021-01-13T15:06:34Z</time>
      </trkpt>
    </trkseg>
  </trk>
</gpx>